GFSGBSN_250_spd_000.txt.gz
Wind_Speed
42 42 43 42 45 51 51 54 55 53 56 63 50 45 47 50 52 54 53 59 65 62 57 62 70 87 98 96 95 102 98 96 88 75 68 59 54 51 49 47 44 42 40 38 33 32 31
45 43 42 41 45 50 52 54 52 51 57 59 46 42 49 46 46 50 53 58 61 54 46 52 63 79 92 93 98 106 105 99 87 78 74 62 56 58 51 45 42 38 39 32 33 31 28
46 45 42 41 45 50 53 55 53 51 56 57 47 43 47 44 40 48 49 53 52 47 44 49 55 75 85 96 98 106 108 101 89 82 76 70 65 59 54 48 44 36 33 31 33 27 26
47 46 42 41 43 49 52 54 53 50 55 55 43 44 41 43 45 47 48 50 45 41 41 46 52 64 81 95 101 102 111 104 92 87 81 74 67 61 56 50 44 36 34 32 31 29 24
46 46 44 41 41 48 51 53 52 49 54 52 46 43 45 40 42 50 47 49 42 36 39 40 47 62 79 100 99 101 112 104 96 89 84 78 70 59 54 50 43 37 37 35 29 30 28
47 45 44 40 40 47 49 52 51 47 51 49 42 37 48 44 49 51 52 50 41 29 33 34 42 55 85 101 99 99 111 106 100 94 88 78 70 60 55 46 40 44 44 38 34 31 32
47 45 42 40 40 44 47 51 50 46 50 45 40 36 44 41 50 57 54 54 42 24 25 30 39 58 89 97 97 96 108 107 102 95 83 74 68 57 54 55 53 47 43 41 38 33 34
45 45 40 40 39 42 45 49 48 44 49 44 36 36 41 40 51 59 58 51 43 24 18 27 38 62 84 95 97 96 105 106 101 91 86 79 66 66 65 57 50 48 48 44 40 37 36
46 45 39 40 39 39 43 48 46 43 47 43 32 34 36 47 49 60 60 47 35 20 14 25 39 64 85 91 92 93 100 104 100 96 85 75 70 70 62 57 52 52 47 42 41 39 38
45 45 40 40 38 37 41 45 43 41 45 38 30 30 36 44 51 55 60 47 32 12 10 24 40 65 82 88 87 89 97 106 99 91 86 80 76 74 64 60 56 56 52 44 42 42 41
45 45 41 39 37 36 39 43 40 38 42 29 25 24 30 40 45 50 55 45 27 7 8 24 43 67 80 83 84 83 92 104 99 91 86 80 77 74 65 62 61 64 54 49 46 45 42
46 45 40 38 35 35 37 40 37 34 41 26 21 20 24 32 40 47 52 42 21 10 7 24 47 67 72 75 80 83 84 102 102 94 89 86 85 78 71 70 69 61 52 51 47 45 41
48 46 40 37 34 33 36 38 35 31 38 22 15 15 20 25 34 40 48 41 18 12 9 30 53 62 66 69 70 74 77 97 100 91 88 87 82 79 77 69 65 58 54 51 47 45 48
49 45 39 35 32 32 34 36 34 28 36 19 12 10 14 20 25 32 39 34 14 7 20 37 51 55 58 58 62 66 71 88 96 92 90 83 77 75 68 67 65 60 57 52 48 47 49
51 44 39 33 30 31 33 34 31 27 34 16 11 10 12 14 20 27 31 24 12 16 31 38 43 47 47 48 54 56 61 74 89 90 84 82 82 80 78 75 70 63 57 58 51 50 50
51 44 38 32 29 31 30 32 28 26 31 13 10 10 5 10 13 19 26 20 19 24 28 33 34 30 32 34 39 47 50 59 76 89 89 87 85 81 79 74 68 62 63 56 53 54 54
54 45 38 32 29 30 28 31 26 25 27 14 10 5 2 7 8 14 22 15 23 25 24 28 28 27 27 27 31 37 45 52 58 75 88 90 88 84 80 72 70 68 62 60 59 58 57
51 46 39 33 30 29 26 28 25 24 22 20 11 6 7 6 4 11 18 14 23 25 25 23 26 26 28 29 29 34 41 47 52 59 75 87 89 83 79 76 73 70 65 62 60 60 61
51 47 43 35 31 28 25 26 23 22 22 22 18 11 5 11 6 12 18 15 15 29 25 27 24 24 23 24 27 30 33 39 46 53 62 73 79 80 78 74 69 67 65 64 66 65 64
58 48 46 38 32 28 26 24 21 20 19 19 21 18 13 14 9 8 16 15 13 24 27 26 28 26 23 23 25 28 29 32 38 45 53 61 68 70 71 73 76 73 71 70 68 64 65
55 51 48 42 35 30 26 23 22 18 16 18 18 24 21 16 16 14 16 18 15 13 28 29 31 30 30 28 26 26 28 30 34 40 46 51 58 65 68 69 67 67 67 65 63 65 60
58 54 49 43 36 30 27 23 23 19 17 19 13 29 27 23 14 22 18 13 18 17 15 29 30 32 34 32 31 31 29 29 32 35 39 44 50 56 62 65 66 66 65 63 63 63 62
59 57 51 44 38 33 28 24 23 19 17 19 15 31 33 31 25 24 23 18 18 21 19 18 28 34 33 35 35 33 30 32 32 34 36 40 44 47 49 52 53 53 55 56 58 60 60
66 59 53 45 39 36 29 26 22 18 18 18 17 32 36 36 33 26 25 26 22 27 18 16 20 25 33 39 34 33 35 36 37 36 36 37 38 39 41 44 43 46 49 50 53 54 55
67 63 55 48 43 39 30 28 23 18 18 18 14 30 38 40 38 34 28 26 24 26 24 18 24 19 22 19 28 32 42 41 40 37 36 36 38 41 45 45 45 48 49 52 54 54 56
72 66 58 52 46 44 34 30 27 18 19 18 12 24 39 39 44 41 37 31 27 24 23 26 22 19 17 23 21 22 26 27 33 32 38 43 46 45 48 49 50 51 52 55 58 60 64
76 67 61 56 50 47 38 33 29 21 17 19 12 19 31 35 45 44 41 42 37 32 29 25 29 27 25 24 24 26 23 23 24 24 23 22 28 31 36 38 42 46 47 48 49 51 54
77 71 65 58 53 49 43 37 32 25 18 18 17 12 26 37 37 42 41 40 45 39 35 33 32 29 26 28 28 26 23 23 27 31 29 28 31 31 29 29 31 32 33 37 40 43 45
81 75 69 62 57 52 47 41 36 29 23 17 17 14 15 24 39 39 40 39 41 45 43 40 37 37 38 35 32 33 32 28 31 28 33 38 36 33 34 34 33 38 39 42 41 40 41

GFSGBSN_250_spd_003.txt.gz
Wind_Speed
49 50 52 49 48 48 46 45 45 48 53 56 56 56 54 57 53 48 53 53 52 55 60 70 78 80 71 70 86 98 100 98 104 96 89 79 72 63 56 58 55 53 54 49 46 46 47
53 51 52 49 49 50 46 45 46 48 52 57 58 55 56 58 50 49 54 54 50 54 56 68 78 76 65 54 77 95 103 101 107 98 92 82 73 68 62 59 55 54 51 44 42 45 43
53 52 50 50 47 48 46 45 45 48 51 56 58 54 56 57 49 53 48 49 50 54 62 74 74 68 48 54 64 88 106 103 105 100 94 84 79 71 64 61 59 52 46 44 45 44 42
57 54 53 50 47 48 47 45 44 47 51 56 58 52 55 53 48 51 53 47 54 59 60 65 61 51 39 48 63 83 107 105 103 103 97 89 81 74 68 62 60 54 45 45 44 44 37
59 54 53 51 46 48 47 46 45 46 50 54 58 52 56 48 47 52 51 51 54 59 57 57 45 38 40 49 61 82 107 105 101 104 100 92 82 75 68 63 58 53 47 46 45 35 32
61 57 56 52 47 48 47 46 45 45 49 52 56 50 55 44 47 45 45 53 61 61 54 45 36 34 45 50 59 81 105 103 101 106 102 93 81 75 67 61 51 51 51 45 42 33 31
64 57 55 51 46 46 48 46 45 43 48 50 53 51 50 43 44 46 51 62 65 60 52 37 31 33 43 50 61 83 102 101 100 106 99 90 79 69 62 61 63 59 51 45 39 34 33
65 60 55 47 45 45 47 44 45 41 47 49 48 52 46 41 41 46 55 65 64 53 50 39 25 28 40 49 63 87 101 99 98 102 99 92 76 72 69 68 66 59 52 48 40 39 34
73 62 55 47 46 45 46 43 44 40 46 47 46 50 41 38 41 49 55 61 58 53 44 31 18 23 33 48 63 90 100 97 96 103 96 83 74 76 72 68 62 58 54 50 43 39 35
74 65 53 48 47 45 43 43 43 40 44 45 43 48 38 36 39 46 55 59 51 49 34 31 15 19 29 48 67 92 99 95 95 100 93 85 83 77 72 68 63 59 59 50 42 39 37
69 64 53 49 47 45 42 40 41 39 43 43 41 44 34 30 37 42 50 52 47 45 36 24 12 16 30 52 72 93 95 91 95 98 93 86 81 76 72 71 69 65 57 47 41 39 39
68 64 51 49 45 45 44 40 39 37 41 41 37 40 29 24 31 41 45 47 45 43 36 23 12 18 36 61 80 88 90 89 95 98 94 88 83 80 77 76 71 65 54 49 45 41 41
63 67 53 49 44 45 43 38 36 35 38 38 35 37 26 20 28 37 38 39 39 39 32 23 5 22 39 65 77 82 84 87 95 97 94 91 86 80 77 75 69 61 52 49 45 42 46
65 63 57 51 48 46 42 36 33 32 35 36 33 34 20 15 23 33 32 27 31 33 27 17 7 23 42 57 69 76 79 81 88 91 90 84 82 78 75 72 67 62 54 51 47 47 46
62 68 60 53 51 47 41 33 32 30 32 33 30 27 16 11 19 26 26 20 26 29 26 19 19 25 38 48 57 64 70 72 83 88 84 82 77 75 71 69 70 61 51 53 52 49 47
64 65 63 57 51 47 38 31 31 27 30 31 28 20 12 7 14 18 20 13 19 24 25 23 21 26 31 33 42 56 57 62 79 87 83 79 78 75 73 69 64 62 60 52 51 52 51
65 67 64 57 52 46 36 30 29 25 27 26 25 15 8 5 9 11 16 3 11 16 20 21 23 28 24 27 29 39 46 54 72 84 82 79 77 76 74 68 67 68 61 58 56 52 52
67 67 67 56 51 44 35 30 29 24 25 22 21 14 8 7 6 3 13 4 7 10 15 18 18 20 28 29 31 34 43 52 62 81 84 80 77 73 72 72 70 67 66 61 58 58 57
68 70 65 57 50 43 36 31 28 25 22 19 17 12 10 12 7 5 5 4 5 8 14 17 17 18 17 23 27 35 42 49 55 73 83 83 80 76 73 70 65 64 65 65 68 67 63
70 69 65 59 52 45 38 33 28 25 20 18 14 14 14 14 12 9 4 8 5 10 14 16 18 20 19 20 22 26 34 41 48 59 81 87 84 79 75 76 78 75 73 71 67 62 65
72 71 65 58 51 46 39 35 29 25 19 17 13 15 19 21 14 12 9 6 2 13 15 15 19 20 20 23 24 27 31 36 42 48 59 76 84 84 82 81 78 76 74 71 66 66 62
75 70 68 62 53 48 43 37 32 26 20 17 13 13 22 23 22 17 17 8 6 3 17 21 20 21 20 20 24 29 31 33 40 45 49 54 66 80 86 85 83 81 78 74 71 69 69
74 70 69 61 54 50 43 39 33 28 21 18 15 14 21 26 25 23 18 14 12 7 9 21 21 22 23 21 19 19 23 28 32 39 44 47 52 59 67 76 80 79 79 78 76 73 70
77 72 69 63 60 53 45 42 35 30 22 19 17 17 15 32 28 30 24 19 19 16 11 8 22 22 21 23 24 24 25 24 25 27 30 34 40 46 50 55 60 66 68 68 68 69 67
78 75 70 66 61 55 48 44 36 31 23 23 19 18 15 37 35 33 29 25 23 21 17 15 11 22 28 25 23 23 24 24 25 26 27 28 30 34 39 43 50 56 59 60 61 62 61
81 79 74 68 63 57 51 46 39 33 26 23 20 19 17 39 41 36 36 29 26 27 22 21 17 12 15 22 26 28 29 26 25 25 28 28 28 30 32 35 40 47 49 50 51 52 54
82 80 76 70 64 57 53 47 41 35 29 24 20 19 17 34 45 42 37 36 32 30 27 25 22 21 20 18 19 21 24 31 34 32 29 28 30 30 32 35 36 41 43 45 46 49 51
82 83 79 73 67 60 56 49 42 37 30 26 20 18 16 29 45 46 42 40 38 33 28 26 26 25 21 24 26 25 22 22 24 29 33 37 38 39 39 39 42 43 42 44 47 50 51
85 86 80 75 69 63 58 52 45 39 32 27 21 16 16 22 39 45 46 44 40 40 36 33 30 29 31 28 25 24 22 24 25 25 24 24 26 26 25 27 32 34 36 39 39 42 42

GFSGBSN_250_spd_006.txt.gz
Wind_Speed
73 68 64 61 58 56 51 51 49 51 48 48 50 49 54 51 53 54 54 54 50 45 46 45 51 54 55 65 72 70 72 81 92 95 92 96 93 87 78 72 69 66 64 61 56 52 54
74 75 69 65 60 59 55 51 51 51 50 47 50 49 54 52 53 54 53 55 49 44 45 50 51 56 62 72 81 74 70 72 88 100 98 97 93 92 85 78 72 70 64 61 53 52 52
77 74 72 67 62 57 52 52 50 50 54 47 50 48 53 52 56 55 55 57 45 44 48 49 56 61 63 76 78 79 73 75 79 102 104 100 99 96 88 80 74 71 61 57 52 51 52
77 77 74 68 63 59 54 53 53 51 54 48 50 48 53 52 55 54 56 50 39 44 46 53 61 64 70 76 77 80 69 70 83 99 109 105 102 97 89 83 78 70 62 55 55 51 53
71 75 76 71 67 62 57 55 53 52 54 49 50 47 52 52 55 54 55 45 42 48 56 59 63 64 62 63 67 70 60 70 89 102 110 109 104 99 94 85 79 69 57 59 55 53 52
65 69 75 74 71 66 60 58 58 54 54 48 49 46 51 51 54 54 52 41 43 50 57 63 65 61 53 51 59 53 53 63 78 95 104 108 103 100 93 85 67 61 59 62 55 53 50
64 66 71 73 72 68 59 56 55 54 53 45 47 45 50 52 53 54 46 42 48 51 59 64 63 51 41 43 47 44 48 56 65 79 97 106 102 97 86 76 72 67 70 62 56 53 48
65 67 68 75 73 69 63 58 53 52 51 43 46 45 48 52 51 53 42 46 50 57 59 63 55 44 35 36 40 39 46 51 60 74 97 105 97 94 87 82 74 72 68 61 53 53 49
63 68 68 70 71 68 65 59 51 52 48 42 43 43 47 51 49 47 41 48 54 60 59 62 51 41 32 31 35 40 47 52 64 78 99 98 92 95 88 81 75 70 66 62 55 56 50
64 65 70 69 68 67 63 60 52 52 47 41 40 40 44 50 48 39 42 49 54 62 58 54 47 40 29 25 34 39 47 52 68 84 98 91 96 93 86 80 74 72 68 59 56 56 51
64 62 67 68 65 67 65 59 53 51 45 39 37 39 41 46 45 35 42 48 53 59 55 48 43 34 23 24 33 40 46 51 70 89 95 92 97 94 87 78 76 77 71 59 61 55 52
63 61 65 64 63 63 66 59 52 51 44 39 34 36 38 43 38 32 40 45 49 50 50 49 40 28 22 25 33 42 46 54 76 92 90 95 97 91 83 81 80 76 70 61 61 56 53
57 59 62 59 59 59 56 59 52 49 42 38 30 33 37 40 30 32 39 43 42 42 45 45 34 16 11 19 32 42 50 62 85 91 92 98 98 90 87 85 81 75 70 64 61 54 53
52 56 59 57 57 56 53 60 52 47 39 35 26 30 34 37 26 31 33 36 36 37 43 42 30 12 4 16 31 44 60 77 90 88 95 96 95 93 87 82 74 71 67 62 58 56 54
49 53 56 56 58 55 55 57 52 45 35 31 24 27 30 30 22 27 30 31 27 30 38 37 32 19 13 20 33 48 66 84 88 88 93 95 92 92 85 79 73 71 64 59 60 58 55
48 50 53 56 57 56 59 56 51 45 35 27 22 25 26 24 19 22 25 26 20 25 33 35 33 27 26 22 28 44 69 81 81 84 91 96 91 83 79 78 75 71 68 62 59 59 55
43 48 54 59 61 61 61 56 51 42 34 24 21 22 24 19 16 18 20 20 13 20 28 30 28 27 26 23 34 55 67 68 70 77 85 85 81 76 78 75 71 69 65 63 61 58 56
44 48 56 61 63 64 62 57 49 39 33 24 21 20 20 17 14 14 16 15 6 15 22 26 25 26 32 35 42 48 54 57 61 68 75 78 76 76 76 74 72 70 67 64 58 58 59
43 49 60 65 67 65 64 55 45 40 33 23 21 18 16 15 15 13 11 10 1 9 15 20 23 23 24 31 35 39 47 52 59 67 75 79 77 74 72 72 68 63 64 65 65 65 60
44 52 60 66 68 66 63 52 45 42 32 24 21 18 14 18 20 13 10 13 7 5 10 15 19 23 24 25 27 34 43 49 56 66 75 79 77 74 70 71 70 67 67 68 67 63 64
47 55 62 68 68 64 61 52 46 42 32 25 22 18 13 21 23 19 14 13 8 10 9 13 16 20 21 24 26 30 36 43 49 60 70 75 76 74 73 72 70 69 65 63 59 65 62
51 58 63 68 67 64 59 53 48 41 32 27 22 20 13 24 24 18 18 12 4 16 16 16 16 17 19 21 26 32 36 42 46 53 63 74 76 75 73 71 68 66 65 62 61 60 59
55 60 64 69 67 64 59 53 47 40 35 29 24 21 14 26 30 24 18 15 7 11 18 20 16 19 19 18 20 24 30 37 43 47 54 68 75 74 72 71 68 64 65 66 67 66 68
57 63 65 70 70 65 62 57 51 42 36 31 25 23 22 24 33 28 21 21 12 9 15 21 18 19 19 20 19 21 25 30 37 41 45 52 68 74 73 73 69 72 71 70 69 70 71
58 64 66 72 72 67 63 59 51 44 39 33 28 25 22 16 33 32 27 25 20 14 12 18 22 21 23 21 21 22 23 26 29 34 39 44 50 61 71 73 76 78 77 76 75 76 76
63 70 70 73 74 71 66 61 53 47 41 36 30 27 27 24 34 34 33 29 24 22 17 13 24 26 22 22 25 23 24 25 25 27 31 36 42 45 49 56 65 74 77 79 79 80 80
65 71 73 73 77 74 68 62 54 50 42 37 32 28 28 24 19 41 37 36 28 27 22 18 15 14 23 25 24 25 25 25 23 22 23 27 31 33 37 39 44 49 52 55 58 62 64
68 73 74 74 80 75 70 63 56 51 44 38 33 30 27 24 18 43 42 39 34 31 28 25 20 17 13 14 18 23 26 27 26 27 29 28 27 28 29 29 31 33 34 35 38 41 44
68 72 75 77 83 78 72 65 58 53 45 40 35 31 26 24 20 39 48 43 41 37 35 31 28 25 23 20 18 17 15 20 25 28 30 30 32 31 31 34 33 33 35 36 38 41 42

GFSGBSN_250_spd_009.txt.gz
Wind_Speed
76 80 83 82 76 72 72 70 67 64 61 57 53 54 56 50 50 53 52 54 53 54 54 49 54 46 42 41 46 49 50 58 62 69 79 89 87 87 86 88 86 77 75 73 72 64 62
54 81 81 76 81 81 77 75 72 67 62 60 56 53 52 53 50 55 53 54 54 55 55 51 52 46 41 44 50 50 56 62 69 69 72 82 92 92 88 89 90 83 82 76 71 63 57
39 50 72 84 88 83 80 77 76 73 66 64 56 54 55 55 52 55 55 55 55 55 55 55 50 46 40 48 51 58 62 67 72 77 76 73 86 98 93 90 90 89 85 78 69 63 59
31 41 49 66 82 82 80 79 80 75 73 62 56 55 58 58 54 56 57 54 57 56 55 54 48 45 43 56 58 66 68 72 75 80 84 80 79 99 97 92 92 92 89 78 68 64 60
43 39 44 55 62 77 79 81 80 76 73 65 59 58 58 60 58 57 56 55 57 57 56 53 47 48 49 64 67 72 72 70 73 78 85 81 80 92 104 98 95 94 86 75 71 63 61
50 49 44 51 59 68 75 77 75 75 73 67 61 60 60 60 56 57 55 55 58 58 57 52 50 54 60 70 72 68 66 68 72 83 82 74 80 89 106 104 93 88 84 78 71 65 61
61 62 58 51 54 61 72 75 76 75 75 69 65 60 59 60 52 56 54 55 59 58 56 53 54 61 67 72 68 68 66 69 75 81 72 69 81 97 101 101 89 90 88 82 76 69 59
69 70 70 66 61 59 65 71 74 73 72 68 63 58 57 58 52 54 53 54 58 60 55 54 59 66 67 68 70 68 66 68 74 68 62 69 82 90 102 103 96 95 89 83 77 67 60
77 79 78 76 74 66 63 70 71 71 70 65 59 55 57 54 53 50 52 57 58 62 54 54 62 60 67 68 63 60 58 64 64 52 53 60 60 90 99 100 97 94 89 83 73 64 60
82 86 85 85 82 72 62 66 71 71 70 64 58 56 55 51 53 50 51 56 60 59 50 55 59 57 66 63 52 49 50 53 45 45 45 44 66 80 90 99 94 92 86 81 73 63 62
90 88 89 88 80 68 62 64 70 70 67 61 58 55 54 47 50 51 49 54 58 56 54 46 53 60 61 56 46 43 39 36 37 39 36 48 58 68 85 93 91 90 87 79 71 65 61
86 81 79 75 66 57 61 62 69 68 60 54 52 50 52 46 47 47 47 52 53 54 57 50 57 59 58 51 39 34 31 28 31 33 41 51 63 72 93 89 89 88 84 76 72 63 62
65 60 59 59 55 51 59 60 65 65 57 56 52 49 48 47 44 43 45 49 48 51 48 49 55 57 48 37 31 27 25 25 31 39 47 58 70 94 101 98 94 91 84 79 70 63 64
51 47 49 45 46 51 58 59 64 64 57 54 51 50 44 46 39 40 42 44 43 43 42 48 51 47 33 22 18 22 25 26 34 45 56 69 85 96 92 94 92 88 80 71 60 63 64
42 39 41 38 42 49 56 58 62 61 55 53 50 47 41 38 34 36 38 39 39 35 36 42 45 37 20 10 13 22 29 33 40 48 68 81 91 92 93 94 91 86 80 73 64 66 61
35 36 35 37 41 50 55 58 60 57 54 51 47 41 40 32 31 30 33 34 33 29 31 34 40 27 14 6 14 26 30 45 58 72 82 87 88 87 89 90 82 76 73 67 68 67 63
32 33 33 36 41 48 52 58 59 56 55 48 46 40 33 31 28 29 29 28 24 23 24 30 35 31 15 18 20 26 41 60 70 83 90 86 84 91 96 88 82 77 71 68 71 66 64
30 30 33 34 41 47 56 60 60 58 52 49 43 39 29 27 24 26 25 22 17 18 16 22 29 28 20 25 30 40 52 65 78 83 86 88 89 88 84 80 78 79 78 75 70 66 64
30 31 33 34 43 50 59 61 62 57 51 49 43 36 30 24 22 23 22 17 11 11 7 13 22 23 21 20 30 46 59 69 74 75 79 81 89 90 87 80 75 67 67 68 70 67 64
31 32 34 38 45 54 62 66 65 58 53 48 40 34 30 23 21 22 22 15 8 7 0 7 15 19 21 26 29 40 52 59 60 61 65 70 76 78 77 74 74 74 73 72 70 65 64
32 34 35 40 50 61 68 70 65 58 55 46 41 34 28 24 21 24 22 16 6 8 5 5 12 15 15 23 31 35 38 42 46 48 54 63 69 71 70 69 71 72 72 66 62 66 60
33 34 38 44 54 65 69 67 64 59 52 45 41 35 27 25 21 26 24 18 7 11 11 8 11 15 18 17 24 35 36 40 47 52 57 65 69 72 72 70 70 69 68 62 60 58 58
36 37 40 48 58 69 72 66 62 58 53 48 41 35 27 24 21 29 26 21 11 14 14 13 11 13 19 20 23 24 32 38 43 49 56 63 68 71 70 69 67 64 63 63 66 63 63
39 40 43 51 63 71 72 68 65 59 54 47 41 38 29 26 21 31 27 20 16 15 18 17 17 16 16 19 21 25 30 34 38 43 51 60 66 68 68 68 64 63 66 65 64 63 62
41 43 47 54 66 73 71 69 67 61 55 49 44 38 31 29 22 33 30 21 18 14 19 20 21 20 18 19 18 20 24 30 35 39 44 51 61 66 68 67 66 68 67 65 65 67 65
42 45 48 57 66 71 71 70 67 60 55 49 45 38 32 30 22 29 35 28 22 16 19 21 23 21 20 20 21 21 24 27 30 36 41 45 52 61 66 67 68 69 67 66 65 67 67
44 48 51 60 67 73 69 72 66 62 56 50 46 38 34 31 26 28 35 30 25 22 19 21 23 24 22 22 20 20 21 22 25 28 33 38 42 49 58 63 67 68 68 67 68 71 69
46 49 53 61 69 74 74 73 68 63 55 50 46 40 36 32 28 22 35 33 29 28 23 20 20 25 25 22 23 25 23 22 21 23 24 27 32 36 40 46 55 61 65 66 69 71 71
49 53 55 63 70 75 77 75 70 65 58 52 47 43 38 35 30 30 27 38 34 31 31 25 22 21 25 26 26 25 24 23 23 23 24 25 27 29 31 32 36 40 45 49 53 53 53

GFSGBSN_250_spd_012.txt.gz
Wind_Speed
35 32 35 46 58 72 81 81 77 79 74 69 68 67 67 62 59 58 57 58 56 56 55 48 50 53 53 54 57 54 52 57 58 58 60 63 73 77 80 78 80 85 84 84 80 75 65
32 28 30 38 48 69 72 71 75 78 80 78 76 74 70 67 65 59 59 59 56 55 57 52 52 53 55 55 59 57 52 52 53 52 52 52 60 74 80 83 81 82 87 87 86 77 69
37 32 27 27 39 52 76 77 80 82 82 80 82 82 80 71 69 64 62 60 60 59 59 58 56 54 54 61 58 57 46 48 46 48 50 55 60 66 74 84 85 83 86 90 87 77 71
41 40 34 30 27 36 52 71 81 80 81 77 78 80 78 78 69 67 62 59 62 61 64 61 59 55 56 62 58 54 48 50 53 54 58 63 65 65 68 80 86 89 88 88 85 81 73
48 45 43 39 36 36 35 46 64 76 81 82 82 83 79 76 72 68 62 62 63 66 64 60 60 57 57 63 58 51 50 55 58 63 67 70 69 69 70 72 84 92 86 83 89 83 78
53 50 47 47 46 44 43 42 40 56 70 82 85 83 80 77 75 69 66 63 67 65 61 61 59 58 60 61 57 55 59 61 64 69 69 70 73 74 72 72 72 79 90 85 87 85 81
56 54 51 52 52 54 52 50 52 50 48 58 74 80 78 75 73 69 65 62 67 60 61 60 58 63 61 60 61 63 64 67 68 69 75 78 78 70 71 74 70 84 94 93 88 87 85
58 57 57 59 59 60 60 60 58 58 57 55 59 70 73 73 72 66 65 65 65 61 57 58 61 63 67 64 64 69 67 67 72 73 78 81 72 72 79 77 67 79 94 95 89 90 88
58 62 65 65 67 67 68 67 67 64 63 61 59 61 70 69 66 66 63 64 63 61 57 54 63 66 70 64 65 69 71 76 75 77 81 82 68 75 71 70 59 71 90 93 86 88 84
63 68 72 74 73 78 75 73 73 71 67 66 63 59 67 66 61 63 60 63 61 62 55 56 63 66 68 63 62 73 74 78 75 74 83 66 69 70 67 60 58 68 82 92 88 85 82
76 77 84 83 80 84 87 82 79 77 73 70 65 59 65 62 59 59 59 58 55 64 58 58 63 65 60 63 66 72 74 74 66 67 69 62 64 58 53 54 63 71 87 93 92 90 84
83 83 88 89 89 89 88 87 84 81 76 72 62 59 62 59 55 56 56 53 55 60 59 60 65 55 54 64 68 71 67 65 54 54 49 50 49 42 47 55 64 90 90 90 81 86 83
71 69 74 71 72 71 68 75 79 76 70 68 58 58 59 55 52 52 49 46 55 59 59 60 58 51 59 64 64 63 59 53 43 39 38 37 37 40 45 56 79 80 89 94 94 91 79
59 55 53 56 56 55 59 62 63 62 60 61 55 56 55 48 51 47 41 46 54 53 55 56 50 54 60 59 55 53 42 35 29 30 30 31 32 37 42 53 59 74 85 88 78 77 73
51 46 45 47 48 45 52 54 56 54 57 57 54 52 51 47 47 40 38 47 48 48 50 47 47 53 55 48 43 33 23 20 21 22 25 30 33 46 54 58 72 83 83 80 78 79 76
40 38 39 40 41 42 45 48 50 54 57 53 52 50 51 46 43 37 40 43 42 43 40 40 43 50 47 35 23 16 16 19 19 19 30 38 52 58 65 78 84 87 84 83 84 81 74
36 35 35 36 37 40 42 46 51 55 53 52 51 51 49 43 39 36 37 38 36 34 33 32 39 44 39 20 10 5 15 23 29 30 42 54 62 71 76 81 90 91 87 78 74 76 70
34 33 33 34 38 38 40 46 49 50 51 50 51 52 47 39 36 35 35 31 30 25 23 25 31 37 34 20 8 6 20 35 44 51 62 65 68 72 81 83 84 82 86 80 79 72 70
32 31 31 32 37 38 41 42 45 48 49 52 56 52 43 37 36 32 31 27 23 20 17 18 24 30 31 26 11 7 34 49 59 64 66 71 75 79 79 80 82 79 81 81 77 71 70
30 30 30 33 37 39 38 43 46 50 52 55 56 49 41 38 34 31 27 24 18 15 12 10 15 22 23 22 9 12 43 60 62 68 71 74 79 74 77 80 81 77 78 79 70 67 67
25 29 31 34 38 39 40 45 51 53 57 58 54 49 42 39 33 30 25 22 16 12 10 4 7 12 14 15 9 13 39 60 64 65 71 74 76 77 80 75 76 79 76 69 67 69 64
25 28 34 35 38 39 43 48 53 57 60 58 55 49 44 38 33 29 23 21 15 10 8 5 4 5 8 6 10 11 19 49 65 69 71 74 75 75 71 74 77 72 63 60 63 61 61
22 28 35 36 39 42 47 50 54 59 60 60 55 50 44 36 34 27 24 18 15 11 10 8 9 5 7 8 10 18 27 27 38 51 55 58 62 57 64 68 67 63 60 62 62 61 63
20 31 37 37 41 42 47 55 62 67 66 63 56 49 43 36 34 27 23 21 17 13 15 12 11 11 10 12 15 16 20 27 35 39 42 44 42 43 55 60 60 57 59 62 59 58 58
20 31 36 38 41 44 52 56 64 68 68 61 55 50 43 39 33 26 24 25 19 15 17 16 15 14 14 15 17 20 22 25 29 31 33 34 38 47 54 57 58 59 58 58 58 60 59
23 30 38 41 42 47 52 62 71 71 67 61 55 49 42 39 33 25 30 27 20 19 18 19 17 16 14 17 18 21 23 25 27 30 32 34 38 45 53 58 61 60 57 58 58 60 60
22 33 40 43 47 50 58 65 68 70 65 60 56 49 44 38 34 26 33 31 24 22 19 20 20 20 17 15 16 18 21 23 26 30 32 35 40 44 49 56 61 63 60 59 61 61 61
21 34 42 45 48 54 63 67 72 70 67 61 56 50 47 39 35 28 34 34 28 23 21 19 24 25 20 18 17 17 19 22 22 22 26 31 34 38 44 52 58 59 60 62 62 60 61
20 35 44 47 50 58 64 70 72 72 67 62 56 52 49 41 36 32 28 33 33 27 25 22 23 25 25 21 19 17 18 18 19 20 24 27 30 33 38 43 46 53 58 60 62 64 64

GFSGBSN_250_spd_015.txt.gz
Wind_Speed
48 49 48 46 39 30 33 36 52 61 67 76 76 77 75 71 69 64 63 62 61 61 58 58 55 59 57 53 53 49 52 55 54 52 54 57 59 60 60 66 72 71 73 74 82 82 80
48 46 48 45 40 31 28 34 44 57 65 68 78 74 74 72 72 67 65 64 66 65 63 62 58 57 59 61 55 51 52 57 56 55 55 56 56 56 57 60 65 74 74 71 75 82 82
48 47 48 47 43 36 29 28 39 52 63 69 65 74 72 70 69 68 72 68 70 73 70 65 64 58 61 61 58 58 55 57 58 58 58 56 55 54 54 56 62 63 74 74 73 78 82
47 46 47 48 48 43 37 31 29 40 51 66 71 72 72 72 71 71 73 72 73 75 71 64 56 60 64 62 62 59 57 62 60 59 60 58 56 54 52 54 54 58 65 72 76 78 80
48 47 48 49 50 50 46 41 36 34 36 50 69 72 72 75 74 74 74 72 71 71 72 62 59 59 63 66 64 59 59 63 62 63 63 56 53 52 54 54 54 56 59 69 76 81 82
46 46 50 52 54 54 53 48 46 41 40 39 44 61 71 77 78 78 77 76 75 74 73 67 65 61 65 66 65 61 62 64 63 66 64 56 50 52 55 54 51 58 60 66 68 81 86
44 45 47 50 54 56 55 54 53 51 48 45 44 43 45 56 67 73 75 79 77 75 74 67 62 64 65 68 65 64 64 66 68 69 63 59 51 53 64 66 64 64 63 63 65 76 88
41 45 48 50 50 53 58 60 59 57 55 53 52 49 49 49 48 50 60 73 80 79 72 68 62 64 69 67 65 68 68 69 71 72 65 58 55 68 70 70 68 67 64 58 62 72 90
47 47 50 54 54 54 58 61 62 63 61 60 58 56 53 52 52 53 52 55 65 70 62 55 64 64 71 68 63 73 72 74 76 72 67 62 64 76 75 75 73 70 64 64 61 71 81
58 61 65 65 62 62 62 62 63 65 63 64 63 61 58 57 54 55 54 51 58 62 55 53 59 68 69 69 67 73 76 78 77 71 73 68 77 80 83 79 80 74 74 72 67 75 74
67 69 71 76 80 78 71 70 70 70 72 69 68 65 63 60 60 58 55 53 54 50 48 52 57 60 64 68 68 77 79 83 75 76 79 76 80 87 83 83 85 76 72 70 70 70 75
78 79 77 75 78 81 84 85 78 75 77 76 73 71 67 63 64 61 56 52 48 45 47 46 53 58 64 69 71 74 81 77 79 83 85 83 80 79 76 78 72 72 64 65 67 68 80
69 63 60 57 56 63 70 80 81 80 79 78 79 76 72 68 68 62 56 47 44 44 46 42 52 56 61 68 72 76 72 75 83 85 82 74 68 66 62 60 58 48 56 57 62 73 71
59 56 53 48 46 49 55 60 67 76 78 84 81 79 76 72 69 60 51 41 41 43 38 43 47 53 61 68 70 68 73 75 75 67 58 51 49 45 45 45 44 51 60 58 58 62 72
55 48 45 42 41 42 46 51 56 61 67 73 75 72 71 64 61 52 42 36 42 34 37 41 48 54 62 66 61 66 64 52 46 38 35 29 28 29 32 34 39 51 49 54 55 72 76
50 45 41 40 40 39 41 45 47 50 55 58 61 59 56 56 52 42 34 38 32 30 35 42 48 54 57 55 57 52 38 31 24 19 16 16 17 22 26 29 37 53 69 75 74 77 79
47 43 38 37 36 37 36 38 42 46 50 52 54 51 50 50 43 34 35 33 27 30 33 38 45 47 48 50 41 29 21 15 14 12 12 14 16 18 23 32 35 48 66 70 70 72 77
46 42 34 32 32 31 34 40 40 40 43 45 44 45 47 45 39 38 37 28 28 26 31 37 36 40 41 38 17 13 12 11 9 12 15 16 16 31 41 45 59 71 70 61 63 60 68
46 37 31 26 26 27 34 36 38 40 40 43 44 45 46 44 43 40 32 29 26 25 29 29 28 33 32 32 32 21 9 10 26 42 51 52 51 58 59 64 66 73 78 67 33 46 67
45 35 27 24 23 27 32 36 38 39 40 39 41 44 46 47 45 38 32 31 25 22 27 17 20 24 32 32 28 8 15 36 47 58 60 59 63 62 66 64 65 65 64 52 47 32 69
42 31 24 21 24 29 32 35 37 36 35 39 41 47 52 51 45 37 33 28 22 21 22 10 12 13 23 17 18 14 17 35 49 62 62 58 57 62 63 62 63 62 47 60 63 64 74
41 27 19 22 26 29 32 35 36 36 39 43 48 53 56 50 43 37 33 27 20 21 16 7 6 7 15 11 11 6 20 35 49 59 63 57 52 56 64 62 54 63 61 71 73 71 72
39 26 15 23 26 29 32 37 35 38 47 52 53 58 55 50 43 38 30 23 19 18 12 8 5 1 9 7 4 3 7 25 38 48 55 56 63 64 64 71 67 67 73 68 62 66 67
36 22 16 24 29 33 35 35 35 49 54 58 62 60 56 48 41 35 28 23 20 19 13 11 10 8 4 7 7 6 9 15 24 38 45 51 62 64 63 67 70 68 62 55 57 59 57
31 20 18 23 29 34 34 34 46 55 59 62 62 60 54 47 41 34 29 22 24 19 15 14 12 14 13 11 10 8 14 16 18 31 39 36 43 53 60 61 62 58 52 52 55 52 51
29 19 18 23 28 31 31 40 52 57 62 64 64 59 54 46 40 35 29 26 26 20 17 16 13 14 15 17 17 17 17 18 25 29 34 33 28 46 41 48 46 43 48 54 52 50 51
27 17 16 23 28 31 37 49 56 61 65 68 65 60 52 46 39 35 29 30 27 24 20 18 18 17 15 15 17 18 18 19 23 25 28 29 30 33 39 40 42 44 47 50 50 49 49
24 15 16 25 31 34 41 49 59 62 66 69 65 59 53 47 41 35 30 34 30 25 24 20 19 20 18 16 14 17 21 22 22 22 24 24 25 27 30 33 37 45 48 48 47 48 49
19 13 19 27 33 39 45 56 61 67 70 69 64 58 53 48 42 38 33 36 32 27 24 20 18 20 20 18 17 15 18 20 21 24 24 24 24 25 27 29 37 43 48 50 50 49 50

GFSGBSN_250_spd_018.txt.gz
Wind_Speed
54 52 52 50 49 48 50 56 54 51 43 44 52 60 67 70 74 77 75 75 72 69 64 62 58 56 57 56 53 53 58 54 50 48 51 51 54 54 51 50 52 50 58 60 66 67 72
55 53 49 48 47 45 48 53 51 46 40 39 46 57 66 68 72 74 75 75 73 70 66 62 58 58 61 64 54 56 62 61 54 53 54 57 53 53 51 52 52 53 55 59 65 71 72
51 50 46 45 45 43 46 50 51 45 39 38 43 51 61 67 70 71 72 72 73 71 68 65 60 61 63 61 63 61 64 64 62 55 54 56 58 53 53 53 52 54 53 58 61 66 75
47 48 47 45 44 43 45 49 52 48 43 37 41 48 58 62 63 67 70 70 70 70 70 68 62 61 66 69 67 64 65 63 60 60 59 54 56 55 54 54 54 55 54 56 58 62 70
43 41 43 42 43 45 46 48 49 52 47 41 36 42 52 62 65 65 61 66 71 68 67 66 65 68 67 70 69 66 65 64 61 61 62 58 56 56 55 53 56 54 49 54 56 59 66
41 40 40 41 41 43 45 49 50 52 53 48 43 39 43 52 66 69 70 67 67 70 68 67 66 68 67 73 73 65 63 68 65 64 62 61 57 56 56 57 54 52 51 54 56 60 65
40 38 38 39 40 42 44 48 53 54 56 58 52 47 44 44 49 62 70 73 69 68 70 69 66 68 71 73 74 70 70 70 64 64 67 63 57 56 62 64 61 54 50 49 53 57 60
44 43 44 44 43 43 45 50 52 55 57 59 59 56 52 47 43 45 55 67 67 66 71 73 75 77 74 74 74 79 73 69 67 67 67 64 60 64 65 66 66 60 53 50 58 63 62
59 57 55 55 53 50 49 49 51 56 57 60 62 63 59 55 50 48 46 45 46 49 51 54 63 76 83 81 79 82 79 75 71 69 69 68 66 67 69 69 71 61 58 61 63 70 65
58 60 60 63 65 65 60 57 56 57 58 60 62 65 64 61 58 55 54 50 48 48 46 49 55 63 74 81 80 80 79 76 72 70 72 68 72 73 73 74 77 67 69 70 71 73 66
64 66 70 71 71 72 71 72 65 62 62 64 61 64 63 66 62 60 57 56 52 51 45 47 55 62 66 66 68 73 74 73 73 74 73 72 75 78 77 83 80 72 76 75 75 74 73
70 72 66 59 59 60 60 65 71 69 68 67 64 64 63 62 66 61 58 54 53 51 45 50 56 56 56 59 63 67 68 69 70 74 74 77 79 82 84 88 83 81 82 82 80 80 65
76 65 58 54 50 51 51 53 56 67 74 75 70 65 66 66 67 63 57 56 54 49 50 51 53 51 50 55 60 62 65 69 73 76 77 82 84 83 85 86 89 90 90 90 86 78 41
71 61 54 48 44 43 43 43 51 54 66 68 76 76 71 69 65 66 62 58 50 53 56 52 50 47 47 53 54 59 64 69 72 78 80 80 81 81 86 82 84 86 82 74 66 50 54
66 58 49 43 40 38 36 37 42 49 56 61 71 75 72 71 73 66 63 55 54 57 57 49 45 42 46 49 52 57 61 68 71 74 76 75 66 63 61 58 58 58 53 64 58 55 61
63 55 45 41 37 34 33 33 37 45 49 54 57 64 74 76 72 68 59 51 55 58 44 43 37 35 41 46 50 55 59 64 69 59 47 46 43 37 33 34 35 37 43 41 38 47 49
61 52 46 40 33 28 27 29 32 38 44 47 50 54 69 73 74 64 56 56 54 44 38 34 29 32 39 45 47 52 58 51 42 30 26 21 18 18 17 17 18 24 29 33 43 50 55
60 53 46 37 29 22 21 22 26 31 37 42 51 52 41 50 54 55 55 53 44 34 33 24 27 31 37 42 42 32 17 16 16 16 15 3 2 4 7 10 19 31 39 54 61 55 54
60 54 44 33 23 16 15 19 23 28 33 40 40 42 35 40 41 47 52 46 36 36 25 24 23 27 36 31 24 25 21 10 5 24 24 21 20 30 32 30 30 41 53 60 65 65 62
61 53 41 29 18 13 15 19 22 26 31 36 38 35 32 35 44 50 44 40 41 29 25 18 19 26 24 20 18 20 13 27 44 52 60 61 59 57 54 44 49 50 51 56 62 60 53
62 51 37 26 17 11 14 17 20 24 30 34 35 35 38 43 48 45 47 46 35 28 20 16 16 18 14 9 12 9 15 46 52 57 60 61 66 66 64 60 54 45 45 45 53 52 51
60 49 35 25 17 10 12 17 20 25 30 32 36 42 47 46 46 53 50 41 32 24 18 18 12 12 5 10 8 12 32 42 51 55 56 57 65 63 60 56 53 43 41 29 34 40 52
57 46 34 24 15 11 13 14 16 22 29 35 43 49 49 53 59 54 46 39 32 26 19 15 9 8 5 2 4 6 23 39 44 50 47 53 62 61 54 51 55 54 47 41 45 29 46
53 43 32 22 14 10 12 14 20 27 35 43 48 51 55 61 55 50 44 37 32 23 18 16 11 9 9 4 6 5 3 19 42 48 48 49 50 56 51 47 52 43 52 50 50 52 52
50 40 28 17 13 11 15 16 23 32 40 46 53 58 63 58 53 48 42 34 33 25 22 17 13 14 15 12 10 11 16 11 32 33 46 45 47 49 51 48 48 43 55 55 51 52 52
50 39 29 15 10 12 16 20 28 33 40 52 59 64 61 55 52 46 40 36 36 27 23 18 15 17 16 15 16 14 17 11 18 34 36 43 40 46 49 52 51 50 48 51 46 45 49
47 35 27 15 9 14 18 26 30 32 45 58 67 67 61 58 52 45 39 38 36 28 24 21 17 16 14 16 14 17 14 24 18 17 24 31 36 31 39 43 45 39 36 41 34 32 39
44 32 26 13 10 15 22 29 30 37 52 63 69 65 61 58 52 45 38 39 36 30 25 22 19 17 15 13 16 17 17 16 14 13 14 18 20 24 31 33 32 32 27 27 32 36 37
41 29 21 13 12 18 28 30 37 46 58 67 68 65 62 56 50 45 39 41 40 32 26 22 19 16 17 16 16 17 18 17 14 15 17 20 18 16 17 24 26 27 29 30 32 37 42

GFSGBSN_250_spd_021.txt.gz
Wind_Speed
50 50 50 52 52 54 54 55 55 54 52 54 59 64 65 64 64 67 69 69 71 74 76 75 75 74 70 69 63 60 61 58 54 51 50 50 46 43 45 47 50 47 53 53 53 56 60
49 47 49 50 50 50 50 51 51 50 49 53 56 60 60 56 58 64 65 67 71 73 75 75 74 74 71 68 65 62 63 58 56 56 56 53 52 48 48 50 51 50 50 53 53 55 57
48 45 46 45 45 47 48 48 48 48 47 52 54 56 54 49 54 60 65 68 69 72 73 74 74 74 70 67 66 65 61 62 62 60 58 58 58 55 51 52 52 54 52 53 55 57 59
45 41 36 40 40 40 43 44 45 47 48 51 53 53 50 46 51 59 66 69 70 70 72 73 73 73 73 70 69 66 65 63 63 62 63 64 63 56 55 55 53 52 56 57 58 59 59
43 37 34 32 33 37 40 41 44 46 48 51 53 53 51 43 48 58 63 70 70 71 72 72 73 74 73 70 70 70 70 65 64 66 67 66 67 59 58 56 58 55 55 60 60 63 61
42 36 37 38 35 32 34 38 42 45 47 51 53 53 51 48 44 54 64 66 70 70 69 70 69 72 72 72 71 71 70 68 70 70 68 70 67 64 60 63 60 60 58 58 59 60 61
53 45 45 37 40 40 39 36 39 43 47 51 53 54 54 50 46 47 57 67 71 71 69 67 63 68 70 73 69 69 70 73 74 74 76 73 67 64 68 69 63 59 57 56 56 58 62
54 49 48 52 53 50 49 48 45 45 46 50 54 56 56 55 51 46 45 60 69 70 71 71 67 66 65 71 76 75 77 76 73 75 79 76 71 73 72 69 66 65 62 60 61 63 63
54 51 51 53 56 63 67 70 58 55 50 50 52 57 59 58 57 49 49 48 54 61 71 70 69 69 72 69 69 77 75 78 78 78 80 83 78 78 73 71 71 69 68 67 65 68 64
62 58 57 61 67 68 69 70 76 65 61 56 54 55 60 63 57 54 55 52 45 46 52 64 67 67 68 65 68 71 78 83 86 87 89 88 85 85 81 75 77 73 74 72 70 70 66
69 69 69 72 68 61 59 56 62 71 67 64 59 59 56 58 63 64 66 55 49 48 39 39 42 47 53 58 58 62 64 67 72 77 80 82 84 86 82 84 81 76 79 77 75 73 70
77 76 77 69 61 57 53 51 53 54 60 68 69 62 58 55 58 68 64 60 58 54 43 44 48 51 52 53 57 61 64 68 72 75 75 74 76 78 79 81 81 81 82 82 82 79 66
84 83 76 64 56 50 46 44 42 45 49 59 71 67 60 57 59 64 60 63 61 53 50 50 52 52 51 53 57 60 65 67 68 66 64 66 70 73 77 79 81 83 85 87 88 80 57
89 87 73 61 51 45 40 39 36 38 42 50 64 71 65 60 66 58 54 56 57 56 56 55 52 48 51 55 58 63 64 66 63 61 62 65 67 72 76 78 82 84 88 90 88 80 76
90 85 70 59 52 44 40 37 35 35 36 44 54 66 71 69 64 57 54 50 49 55 57 55 47 48 52 57 62 60 63 59 56 58 62 65 68 73 77 81 84 87 91 93 85 79 83
91 84 69 60 53 45 38 32 30 31 34 37 47 59 73 70 67 62 56 51 51 54 54 48 48 49 54 58 56 56 52 51 54 61 65 69 70 71 64 60 62 66 69 69 67 64 62
91 81 69 61 53 44 32 24 23 23 28 35 41 43 66 60 71 68 59 58 57 59 49 47 47 48 54 53 48 48 49 51 52 53 57 54 49 46 42 41 39 38 42 43 43 43 44
90 79 67 59 51 39 26 17 18 19 26 36 39 46 60 57 59 62 63 63 62 56 45 44 45 48 48 41 40 41 44 50 44 43 37 33 32 33 31 29 26 25 27 30 31 35 43
87 78 66 57 46 32 19 13 14 20 23 28 34 41 50 44 36 55 69 70 63 54 47 44 45 42 35 31 28 37 31 25 22 12 12 13 16 16 10 4 6 4 9 17 20 29 43
85 75 64 54 40 25 12 9 13 18 22 28 32 34 32 34 42 58 68 66 63 54 46 42 38 29 23 17 11 9 11 9 23 25 31 35 35 25 31 28 22 17 11 18 26 35 43
84 73 62 51 35 20 9 8 11 19 23 25 24 23 24 34 41 43 51 56 51 49 43 40 29 22 13 13 9 3 16 34 38 44 47 46 46 40 39 47 44 42 38 33 40 46 49
80 71 61 51 35 17 8 4 8 16 20 22 30 36 43 42 40 43 46 50 47 42 44 33 25 15 13 3 5 6 15 22 44 49 47 45 43 39 37 41 43 39 45 44 44 48 50
77 68 59 48 33 18 5 2 7 16 22 30 35 40 37 34 38 42 43 43 49 49 41 30 21 15 12 4 7 6 17 46 45 51 49 49 47 45 36 28 28 34 36 36 35 38 38
74 65 56 45 30 16 6 3 4 12 19 25 27 30 33 38 41 44 50 55 52 44 34 25 19 17 15 10 4 11 15 43 26 50 49 47 45 46 43 31 32 28 21 23 27 31 28
71 62 54 42 28 11 5 3 7 12 16 19 25 27 37 42 46 55 59 52 45 37 29 24 21 17 19 14 11 15 20 29 39 38 49 45 45 45 44 42 34 32 40 32 32 23 30
68 59 51 39 28 13 5 6 8 15 19 24 29 37 44 51 59 59 53 47 41 35 29 23 21 18 15 15 13 17 17 19 27 30 43 49 44 46 45 43 39 44 40 40 37 41 31
66 56 49 36 25 13 6 10 11 15 20 29 37 47 53 60 61 56 50 44 40 36 29 26 23 19 14 15 14 14 19 16 19 32 28 41 42 40 42 39 32 39 41 35 33 27 26
62 52 45 31 23 14 9 13 14 20 26 33 44 52 62 63 59 54 49 44 41 35 27 24 24 22 17 14 13 15 18 22 27 23 36 31 33 35 30 28 33 27 34 34 26 24 22
58 50 43 29 19 15 14 15 17 22 29 39 49 59 62 61 56 51 48 44 40 36 28 26 24 21 18 17 15 15 14 15 13 20 23 29 23 19 17 17 22 22 17 19 17 19 19

GFSGBSN_250_spd_024.txt.gz
Wind_Speed
51 48 47 46 45 46 49 50 55 57 59 63 60 61 63 61 63 68 72 76 77 76 75 74 76 79 85 88 88 82 79 74 67 61 60 57 53 49 47 47 46 43 48 49 50 55 57
56 51 47 46 46 43 44 48 49 50 53 55 58 57 58 59 60 63 66 70 75 75 73 74 80 87 85 80 77 78 79 75 71 66 64 60 58 54 53 50 49 47 45 48 51 53 56
60 55 47 42 41 39 38 39 42 44 44 49 52 51 54 56 57 60 64 66 66 72 75 79 80 77 74 75 75 76 76 75 73 68 66 61 59 59 56 56 52 51 48 50 53 58 58
65 58 47 43 39 37 37 37 35 37 37 40 47 48 52 54 56 59 61 60 63 67 72 72 72 72 73 75 75 74 75 75 72 69 67 63 61 60 61 63 59 59 56 58 59 58 58
71 64 54 43 41 38 37 35 36 34 36 36 40 44 51 54 57 60 57 57 58 59 62 66 70 72 73 73 73 74 75 74 73 72 69 64 64 63 62 66 65 65 61 60 60 62 60
76 67 57 49 41 40 40 40 37 35 36 36 37 42 49 54 59 59 56 54 50 51 60 68 70 73 71 73 73 73 73 73 73 72 71 68 66 65 64 70 71 70 65 62 62 63 63
78 72 63 54 54 53 48 48 48 47 40 39 39 39 45 55 58 59 54 51 46 48 62 68 70 72 71 72 74 74 73 73 73 71 74 71 68 70 73 78 77 76 70 69 67 67 67
84 75 67 60 57 61 67 64 60 59 56 49 45 43 41 50 58 58 53 49 47 48 59 65 71 72 71 71 71 72 73 72 73 74 73 73 74 76 78 78 79 79 75 74 69 72 71
89 82 75 69 65 69 74 74 73 71 72 65 55 51 48 46 58 57 55 51 46 42 53 64 68 71 72 70 70 72 73 71 71 72 75 80 78 80 81 80 83 85 85 83 77 76 69
95 88 85 76 74 77 72 66 61 58 60 68 63 61 57 51 53 57 57 53 50 42 42 59 66 69 71 71 70 72 70 71 73 80 80 78 81 83 84 83 83 83 86 88 86 80 73
100 93 90 83 80 73 64 56 50 47 47 55 60 64 67 57 51 53 62 59 54 47 40 42 51 66 67 69 71 73 73 73 73 75 75 74 74 77 76 80 81 81 87 90 90 85 78
104 98 94 85 81 70 60 52 45 43 38 43 50 55 68 63 55 55 68 62 53 50 40 37 39 48 56 63 67 70 70 69 70 68 65 64 64 66 71 78 81 83 84 85 83 82 71
108 101 97 89 80 68 59 50 40 36 34 36 41 46 58 69 59 59 63 64 58 51 45 41 40 39 39 41 46 50 52 52 54 55 56 61 67 70 76 82 82 75 73 75 74 70 56
110 102 98 93 80 67 58 46 35 28 26 33 35 41 50 67 64 62 57 60 57 53 49 46 45 43 42 41 44 46 46 49 53 57 62 65 68 77 78 72 67 64 70 68 69 65 61
112 103 99 93 79 69 58 44 30 21 22 26 30 37 45 62 68 60 57 53 56 58 54 52 49 47 44 44 45 46 48 52 56 60 63 70 73 67 63 64 67 70 69 73 70 68 70
112 104 97 92 79 69 57 44 28 19 18 22 28 34 43 58 63 64 57 51 53 57 58 55 52 46 46 46 47 46 49 54 58 62 68 62 59 63 67 68 71 70 73 76 74 74 72
112 103 96 89 77 67 54 41 23 14 16 20 27 33 40 54 65 63 55 51 50 51 48 45 45 46 47 45 44 46 51 55 58 58 56 59 63 65 66 61 56 50 52 53 57 62 61
112 103 95 87 74 64 50 35 18 10 15 21 26 33 39 50 58 59 57 56 52 47 45 37 36 39 39 37 41 43 46 52 48 51 50 47 37 36 40 41 41 44 43 43 48 46 42
111 101 94 86 72 60 46 30 14 7 15 20 25 31 38 46 50 58 63 58 53 49 42 37 36 35 34 39 37 39 43 37 34 24 11 10 11 14 19 19 20 27 31 28 27 25 29
109 99 91 83 69 57 41 26 10 4 14 21 23 27 33 37 46 58 63 60 54 49 41 38 36 34 37 33 33 35 30 26 26 21 6 20 22 25 18 19 14 9 6 4 4 8 12
108 98 89 81 66 54 37 23 9 6 12 17 19 20 25 31 37 44 56 58 53 47 43 40 38 37 35 30 29 17 17 20 17 15 18 25 28 30 31 27 20 20 21 23 19 14 5
104 95 88 78 64 51 34 19 9 4 9 17 21 24 29 29 29 35 49 56 56 54 49 44 41 38 33 27 19 14 17 19 14 21 22 27 28 21 24 25 27 20 20 22 22 23 24
103 93 87 76 62 48 32 15 6 2 9 17 21 25 25 26 27 37 47 56 57 55 51 47 44 37 29 23 15 17 21 21 18 20 27 24 26 19 18 22 22 17 21 22 19 22 30
101 90 84 73 59 45 29 13 2 3 10 16 24 28 29 30 34 38 41 45 51 54 54 48 40 33 28 19 17 19 24 25 16 27 29 21 24 21 17 14 17 16 11 13 15 19 21
97 87 81 69 57 43 28 12 2 5 9 15 19 23 25 25 26 33 37 44 47 48 48 42 34 33 26 22 18 20 28 32 16 27 28 26 24 22 23 18 16 11 10 13 9 10 22
93 84 76 66 54 41 26 11 3 6 8 10 17 21 22 24 31 37 42 44 47 47 43 38 37 31 27 25 21 22 31 25 25 36 33 28 25 25 25 21 24 17 24 22 15 24 11
87 78 73 62 52 39 27 14 5 6 10 15 19 25 32 36 39 44 47 49 48 45 43 38 30 27 25 25 23 25 28 29 18 22 33 27 28 26 23 22 24 17 19 23 19 24 16
83 73 69 59 49 38 27 15 7 9 11 16 23 31 37 42 45 49 52 52 49 46 38 31 28 24 23 24 25 29 29 36 29 22 25 22 25 28 25 19 20 22 19 17 15 12 7
78 71 66 56 46 36 26 15 8 12 13 19 27 36 42 47 50 52 53 51 46 42 34 27 28 27 24 20 20 21 23 27 24 25 28 25 30 25 26 23 17 24 25 23 16 15 9

GFSGBSN_250_spd_027.txt.gz
Wind_Speed
74 64 56 46 42 39 38 38 41 44 49 55 59 65 71 74 76 74 75 77 76 77 78 80 85 84 78 76 75 74 71 70 70 70 69 63 60 59 56 53 46 44 48 50 51 53 55
79 70 61 52 45 42 38 39 40 41 43 47 53 59 63 68 71 75 73 73 75 74 73 75 78 87 82 78 75 76 74 74 73 71 71 71 70 61 60 59 50 49 50 49 50 52 51
82 75 66 58 52 46 40 40 39 41 41 42 45 49 52 58 62 65 69 70 68 67 67 74 74 78 86 80 78 77 74 73 73 75 75 74 74 70 65 63 60 54 54 54 57 55 53
86 79 73 63 57 50 44 39 39 41 43 44 43 43 46 50 53 55 58 63 63 62 64 68 71 74 80 81 80 78 76 77 78 79 80 79 77 73 69 66 63 62 58 61 60 58 55
93 86 80 69 63 56 45 41 42 42 44 46 45 43 42 43 47 48 54 56 58 59 60 62 67 71 74 79 78 77 77 78 81 83 81 77 74 72 69 67 66 67 63 62 61 63 62
97 91 85 76 69 63 56 45 43 46 48 48 50 47 46 42 44 45 51 52 54 56 56 58 62 65 68 75 77 77 78 83 84 81 78 74 72 71 70 72 68 65 61 64 66 68 68
100 94 88 79 71 61 54 56 61 60 58 61 56 55 50 49 43 46 46 50 55 54 57 59 57 57 63 70 75 79 80 79 78 76 75 70 69 72 75 73 71 68 67 66 69 74 74
104 98 91 82 75 65 58 60 62 62 56 58 65 57 58 53 49 45 43 51 57 59 59 53 53 55 63 69 73 73 72 74 74 74 72 71 71 74 75 75 74 72 71 72 74 76 76
109 103 95 86 79 70 67 63 55 51 48 46 52 54 61 61 54 45 42 53 56 60 58 53 52 52 55 59 63 68 71 72 72 72 74 73 74 74 74 75 76 77 76 79 80 82 81
112 107 100 91 81 74 67 60 51 47 42 40 43 46 51 67 60 52 46 49 58 62 57 53 48 43 46 55 62 69 70 70 70 71 72 72 73 71 72 74 80 81 84 86 85 85 83
115 111 104 94 83 76 69 60 54 47 39 37 37 38 44 57 65 56 45 50 57 62 55 50 41 40 45 50 64 66 67 66 65 67 68 69 73 75 75 80 82 83 84 85 87 90 87
118 113 108 98 86 77 69 63 56 44 35 33 33 33 35 48 59 63 51 53 56 57 51 45 40 37 41 49 59 58 62 64 67 69 69 71 72 74 78 81 82 82 82 81 82 81 70
120 114 109 100 88 80 70 66 56 41 30 28 30 28 31 39 53 66 58 56 49 50 49 45 39 36 35 41 53 55 57 62 65 64 66 69 71 74 78 73 71 69 73 77 80 81 70
122 115 109 100 91 82 71 66 55 38 25 22 26 26 33 44 53 64 63 56 46 51 52 46 41 36 31 33 38 46 52 54 54 56 57 60 63 59 60 63 69 74 80 84 84 81 78
123 117 109 100 91 81 72 66 52 35 20 16 20 27 33 39 47 56 63 53 47 53 53 49 43 36 33 31 31 31 34 37 40 41 41 46 49 58 64 69 77 80 86 90 82 75 66
124 118 108 98 88 79 71 63 48 35 22 13 18 28 29 36 42 59 62 52 49 52 53 51 46 40 36 33 31 32 32 35 37 40 42 48 53 63 68 77 81 81 79 80 80 72 67
123 117 107 96 86 77 70 60 45 36 24 7 16 23 28 36 43 52 57 54 50 49 53 52 49 43 38 34 34 34 36 37 39 41 46 52 60 66 69 68 65 60 59 63 63 61 58
123 116 106 95 84 76 68 56 43 34 20 2 16 22 26 34 39 43 60 58 50 48 51 53 50 46 42 39 39 38 38 36 37 37 49 55 52 46 48 38 37 36 37 40 39 41 39
122 115 105 95 83 75 66 52 41 28 12 2 16 20 24 30 33 45 61 57 52 47 49 49 48 47 44 41 38 37 33 33 32 40 46 45 37 34 27 22 24 26 26 27 29 29 28
120 114 103 94 83 74 63 49 35 23 12 1 15 17 22 28 32 47 59 57 53 47 43 44 46 44 41 35 34 30 30 26 33 36 34 34 37 32 14 19 19 28 33 31 23 19 15
119 112 100 92 81 72 62 47 34 19 11 1 12 17 22 29 38 51 60 56 50 47 43 42 42 38 35 34 27 25 23 28 28 27 26 29 19 5 15 23 26 31 37 40 35 27 14
116 109 97 90 80 70 61 45 33 18 9 2 11 17 21 24 28 42 54 52 48 45 42 41 36 33 32 26 24 21 23 24 18 21 23 18 5 15 20 24 29 33 34 35 28 29 25
112 106 94 87 80 69 59 44 31 19 7 2 11 17 20 22 27 38 58 58 52 49 45 41 36 34 29 24 23 21 21 16 18 21 18 9 3 12 12 20 25 29 31 32 26 29 27
108 103 92 83 79 70 60 44 29 19 7 1 8 16 21 25 26 32 45 55 53 49 46 42 38 34 29 26 23 22 21 17 21 24 23 9 8 10 6 11 22 25 26 28 23 26 33
104 99 90 79 74 67 55 43 27 17 8 2 7 16 22 28 32 40 47 54 56 52 49 44 42 36 31 29 23 25 19 19 22 25 16 15 7 16 20 16 27 16 20 17 20 30 30
98 94 88 78 71 64 53 42 27 15 6 3 6 10 13 20 29 33 38 46 53 55 50 46 46 40 33 28 28 26 24 20 23 13 16 19 12 8 14 14 20 17 18 16 18 25 26
92 88 84 78 69 63 51 39 25 14 7 7 9 12 15 22 28 34 39 43 46 50 51 50 44 38 31 31 31 30 27 25 28 17 11 18 15 10 15 10 7 15 9 8 11 16 21
86 82 79 73 68 60 48 37 23 14 9 8 9 12 16 22 25 28 34 39 42 48 50 45 40 35 34 35 33 29 27 31 29 16 11 20 16 11 11 13 8 7 9 5 4 6 6
81 76 73 67 65 56 46 34 20 13 13 12 13 15 19 22 23 29 37 42 43 41 39 37 37 34 34 32 32 29 27 27 30 22 25 21 19 16 13 13 12 14 9 13 13 12 10

GFSGBSN_250_spd_030.txt.gz
Wind_Speed
93 87 81 74 62 51 44 39 36 39 41 44 49 52 57 62 66 70 71 74 76 74 74 76 80 84 86 89 88 85 82 82 81 80 80 76 73 70 68 66 62 55 58 54 53 51 51
99 92 87 79 68 58 48 42 39 37 41 44 46 49 50 59 64 69 74 75 75 75 80 80 80 79 85 86 84 86 84 82 80 78 78 78 79 76 73 72 64 58 60 57 56 53 51
104 98 91 83 75 65 56 48 41 37 37 42 46 49 50 52 58 65 71 78 75 76 77 81 81 82 82 81 85 85 86 83 80 78 75 75 77 75 74 73 65 59 60 61 59 57 52
109 103 97 91 82 69 60 54 44 38 36 41 46 50 53 52 54 56 62 68 72 74 75 76 76 80 80 83 82 88 86 84 81 79 77 76 74 72 71 69 69 65 63 63 66 61 58
111 106 99 93 83 75 68 59 49 44 41 41 44 52 54 56 57 56 57 59 63 69 73 77 78 82 74 77 79 82 87 85 82 79 78 76 75 73 74 74 71 71 68 66 68 67 65
115 110 102 96 86 77 70 61 54 53 56 54 54 53 56 58 59 57 56 55 56 58 61 68 74 76 70 69 73 80 80 86 85 81 78 76 75 74 75 77 75 74 70 72 68 71 69
118 112 106 100 91 81 71 62 53 54 61 64 63 57 60 61 63 62 57 50 48 52 54 63 67 67 68 65 66 72 76 80 84 83 81 78 76 78 79 78 77 77 77 73 73 72 71
121 115 110 106 97 85 76 67 61 59 55 55 56 50 54 59 65 65 60 46 46 56 56 57 55 58 60 60 62 66 71 73 77 82 81 81 78 78 80 81 81 81 79 74 76 75 72
123 117 112 108 101 89 79 71 65 56 48 48 49 46 49 51 60 67 61 48 51 51 52 53 53 54 55 54 56 61 66 68 72 78 81 80 79 80 81 82 84 83 76 77 77 76 74
126 119 115 109 102 91 81 75 66 55 46 41 42 41 44 45 52 59 63 53 51 51 52 52 52 51 50 51 49 50 54 58 64 71 76 79 80 82 82 82 82 77 75 75 77 79 79
128 120 116 110 103 93 83 75 66 55 44 35 33 34 36 41 45 53 64 59 56 55 52 51 47 49 51 48 49 50 54 59 65 71 75 78 81 78 76 77 74 74 75 77 79 80 81
128 121 116 111 104 94 86 74 63 53 40 31 26 26 30 37 44 53 69 65 64 50 48 46 45 49 49 48 47 46 48 54 61 65 66 67 68 67 69 72 72 74 77 80 82 82 80
129 122 116 111 103 94 83 72 62 46 35 28 20 19 27 37 46 54 71 71 59 43 46 48 48 51 50 46 45 43 42 46 51 53 55 55 58 61 66 69 72 74 78 80 82 85 80
128 122 115 110 101 92 81 71 58 39 28 22 14 14 25 36 41 52 66 70 52 43 44 49 50 49 45 43 39 37 39 42 44 44 48 52 57 62 66 65 68 70 76 79 75 77 78
127 121 115 108 100 90 79 69 54 37 26 18 12 11 19 29 41 51 66 62 50 45 46 50 50 47 43 38 33 33 33 32 36 40 45 51 56 55 58 55 56 57 64 70 74 79 80
127 122 113 107 99 88 77 66 50 38 27 18 9 7 16 30 40 50 58 60 51 48 45 50 49 45 39 34 29 25 22 23 26 31 36 41 44 45 42 48 54 60 64 73 82 83 87
126 120 111 105 96 86 75 63 48 38 31 17 3 6 17 27 35 42 51 57 54 48 45 50 49 44 38 33 29 25 23 21 23 25 27 30 35 40 46 51 56 62 68 68 63 65 67
124 119 109 101 93 82 71 60 44 39 29 14 6 6 18 26 32 40 50 59 55 47 44 49 49 43 37 32 29 27 23 23 23 23 28 33 38 41 46 53 54 48 44 32 35 40 48
122 117 107 98 91 80 69 58 43 37 24 14 10 7 19 30 40 44 57 62 55 46 46 50 48 44 39 33 29 26 24 25 24 26 31 34 37 42 39 26 19 12 25 31 36 38 30
119 114 105 96 89 76 67 57 42 35 23 16 8 10 18 29 41 51 61 60 53 44 44 48 46 44 40 35 32 28 28 26 27 28 29 32 33 19 18 13 13 20 21 22 30 32 31
115 111 102 94 85 75 64 54 41 34 23 14 7 7 16 25 34 48 60 59 52 45 43 47 47 43 40 37 35 33 28 27 24 23 27 24 18 18 13 9 18 17 15 23 25 24 23
111 107 99 93 84 74 65 54 41 32 25 15 6 6 16 25 32 44 57 56 50 42 39 41 41 43 42 38 37 32 27 24 21 21 18 11 16 13 6 11 17 15 19 20 32 39 30
105 102 95 92 84 73 63 55 43 30 23 14 5 6 14 22 33 47 57 56 49 42 38 36 40 41 39 38 34 27 26 19 17 15 13 16 10 5 7 9 19 15 17 25 26 37 42
99 98 91 87 83 75 64 55 44 29 21 13 5 5 14 19 29 47 57 56 51 45 39 37 38 39 37 35 30 25 20 15 13 9 13 11 9 3 7 18 16 10 16 25 30 34 38
93 91 87 82 79 74 64 57 44 29 18 10 2 6 15 23 32 45 58 59 53 47 44 40 39 36 36 32 27 23 16 14 10 11 14 12 9 7 10 14 8 12 12 23 27 30 35
87 83 82 79 71 68 62 57 45 30 18 10 1 7 15 24 34 44 54 55 53 51 47 44 41 38 35 30 26 20 15 14 14 14 12 12 12 8 17 12 7 12 13 17 18 24 31
81 77 76 74 70 63 58 52 42 30 16 9 7 6 10 17 29 42 55 58 59 54 51 47 42 38 33 28 25 20 19 19 18 15 18 14 18 11 7 7 5 4 3 10 11 15 20
76 73 71 67 66 59 54 50 39 27 17 8 8 10 13 17 23 33 49 58 57 56 53 47 42 40 34 29 25 21 21 22 21 19 18 16 13 9 13 7 5 5 2 4 7 11 12
73 71 69 64 61 56 51 45 37 26 17 9 10 10 13 17 21 28 39 51 58 58 51 47 44 38 34 30 26 24 24 27 20 19 20 19 18 14 12 14 11 10 13 12 4 12 13

GFSGBSN_250_spd_033.txt.gz
Wind_Speed
99 98 97 93 85 78 72 67 58 50 46 41 45 47 49 50 53 61 68 70 76 80 81 80 82 89 87 87 89 89 88 88 87 84 82 80 79 76 73 73 73 73 74 72 68 64 66
102 100 101 95 88 84 78 70 63 53 46 45 42 46 50 51 53 55 62 68 73 76 80 83 79 80 88 87 88 88 89 86 86 88 84 84 83 81 77 77 77 77 76 75 70 62 61
104 104 106 100 98 88 82 74 64 58 51 45 43 43 48 52 53 54 57 65 69 74 78 84 84 80 77 79 86 88 85 87 88 87 88 89 86 84 82 81 78 77 76 73 70 67 64
106 106 109 102 100 93 86 75 68 62 57 50 46 44 47 50 53 54 54 60 69 72 74 84 83 83 82 80 77 80 86 85 85 88 88 86 86 85 85 83 84 80 78 76 73 72 71
110 109 111 106 102 96 89 79 69 64 59 57 52 48 48 50 53 55 55 57 61 71 77 81 84 79 83 82 81 83 84 84 86 86 87 88 86 84 84 86 86 83 81 79 77 77 71
112 113 115 112 106 100 93 84 74 64 56 56 62 63 57 56 56 57 59 58 60 63 69 77 83 83 79 76 83 84 83 83 86 84 86 85 86 86 84 83 84 82 78 78 77 76 73
114 116 118 115 110 104 97 86 76 66 60 55 55 61 65 57 60 60 62 64 64 48 53 69 82 80 89 86 83 84 84 80 82 84 85 85 83 83 87 83 81 80 79 78 78 75 74
117 119 120 118 113 106 99 90 79 71 64 54 49 50 55 55 52 64 64 66 59 53 61 70 70 71 76 83 81 79 80 77 79 84 85 84 84 84 83 82 81 81 80 79 79 78 75
119 122 122 120 115 109 104 92 82 73 65 57 51 47 46 48 49 58 67 69 63 65 65 61 57 57 64 69 73 75 74 71 74 73 78 82 83 86 84 82 81 80 80 80 80 80 78
121 124 124 122 116 109 101 90 82 73 64 54 47 42 39 39 46 54 67 74 69 65 65 58 52 53 56 59 63 65 66 65 64 67 68 73 79 81 84 84 83 81 80 82 83 82 82
124 127 126 122 116 109 101 90 82 73 61 49 43 38 32 29 37 51 61 77 74 67 65 57 47 46 50 50 50 53 54 55 56 57 59 65 71 74 80 82 82 83 83 85 85 86 83
127 128 127 122 116 109 101 89 80 69 54 47 38 31 23 24 35 48 60 70 76 73 62 49 45 44 45 42 44 46 47 48 52 52 55 60 64 70 76 78 80 83 84 86 86 86 85
127 128 126 120 113 108 99 87 77 64 51 44 33 22 16 22 31 45 55 67 80 73 51 50 44 44 43 43 43 42 43 44 44 47 50 55 60 64 66 70 74 78 83 84 87 88 87
129 127 125 118 110 105 95 84 74 60 48 38 25 13 8 16 30 42 50 64 73 63 53 49 44 43 41 40 40 40 42 40 39 41 46 49 55 60 64 66 70 74 76 80 76 74 71
130 127 123 114 107 101 90 81 70 55 44 34 20 6 5 17 30 41 51 59 69 61 53 46 41 42 38 38 40 41 41 40 39 41 43 48 51 54 54 56 55 51 50 58 59 62 62
129 125 120 110 104 97 85 77 66 52 42 32 22 8 4 17 27 35 41 47 57 51 48 43 41 43 40 42 43 40 36 35 38 39 34 34 32 33 35 34 33 38 48 50 54 58 65
128 123 117 105 102 95 83 76 63 49 39 29 18 6 7 15 23 33 39 49 54 51 44 39 41 41 40 39 37 33 31 30 30 28 27 27 25 29 24 23 32 38 44 49 56 62 65
125 120 111 100 96 89 80 72 59 46 35 26 14 7 4 14 26 37 47 59 58 51 43 38 41 40 38 36 34 30 27 28 28 26 22 20 22 23 22 27 33 40 44 38 36 38 44
121 116 106 97 90 81 72 67 56 45 33 24 17 10 8 16 27 40 52 57 54 47 40 38 42 42 39 34 28 28 26 25 24 21 19 18 20 20 22 30 34 27 23 21 20 28 37
117 111 102 96 87 76 66 62 53 44 33 26 20 9 9 20 30 40 53 54 51 46 38 38 42 42 39 32 27 28 26 23 21 18 16 18 19 19 19 17 14 18 15 15 22 26 27
110 104 98 94 88 74 65 60 52 44 34 25 18 9 9 24 33 44 53 54 49 42 38 40 43 43 39 33 28 27 25 22 18 17 16 18 16 11 5 8 7 2 10 12 21 28 26
103 98 94 92 85 79 64 60 52 47 37 26 17 8 7 17 28 38 50 54 47 41 37 39 42 44 39 33 29 27 24 22 18 16 18 15 8 2 7 5 1 3 8 14 23 28 26
94 91 89 89 82 76 68 58 53 45 36 24 15 6 8 16 25 35 48 49 46 39 39 41 41 40 36 34 31 27 26 21 18 17 16 10 2 5 7 5 3 6 7 14 24 24 24
87 85 83 82 80 72 67 60 51 43 34 24 11 5 7 16 26 38 47 45 44 40 38 40 41 38 35 34 31 28 26 21 19 16 12 7 2 11 8 3 3 11 7 12 21 25 27
81 79 77 74 71 70 65 60 52 40 32 21 9 2 10 18 27 43 52 51 47 41 38 38 38 38 36 33 31 28 24 20 17 15 10 7 5 17 9 4 2 12 5 9 18 21 27
76 76 73 67 64 64 61 57 51 41 30 21 11 5 12 20 31 41 54 54 50 43 40 38 38 36 35 33 30 26 22 18 17 15 11 8 6 6 11 3 7 11 5 8 14 17 23
72 73 70 63 59 57 57 54 49 41 30 20 12 8 12 19 32 40 54 54 53 48 42 38 35 35 34 31 28 25 23 17 19 18 14 10 11 7 15 9 6 6 9 10 10 12 19
70 70 67 60 57 52 54 51 47 39 31 21 12 8 11 19 26 42 51 57 56 51 47 41 37 35 34 32 29 25 22 17 17 19 13 10 6 9 9 11 13 10 12 10 9 10 16
68 68 64 57 53 49 51 49 46 38 29 21 12 10 13 19 26 39 50 55 56 53 49 45 41 39 36 33 28 24 18 17 20 20 17 15 11 11 9 15 12 13 14 15 16 15 14

GFSGBSN_250_spd_036.txt.gz
Wind_Speed
98 99 100 100 101 98 96 89 83 78 70 61 52 49 44 44 48 51 58 66 72 78 82 81 86 87 91 91 90 93 92 88 83 79 78 79 78 74 73 71 70 69 68 70 73 73 72
98 101 104 106 108 105 100 92 86 84 76 67 59 50 49 47 47 52 54 62 70 75 80 83 84 85 87 90 87 91 91 92 90 85 82 80 78 76 76 74 73 72 72 72 73 76 77
101 103 106 110 111 109 104 96 88 84 77 74 67 59 51 50 50 52 55 58 65 72 78 83 84 83 82 86 89 89 89 88 91 91 86 85 81 79 77 77 74 75 75 77 74 75 75
103 106 109 111 115 114 109 100 92 86 79 69 65 69 64 53 54 52 55 57 61 65 74 80 84 85 84 82 84 89 88 86 88 88 92 91 89 83 84 81 79 81 80 80 78 77 75
111 109 111 113 118 118 113 104 96 90 83 73 65 61 68 66 54 56 54 58 59 62 69 75 81 83 83 84 83 82 87 86 86 87 87 89 91 91 88 85 83 82 83 83 80 78 78
113 113 115 116 120 121 116 106 100 93 86 75 65 57 55 62 57 54 57 56 59 62 68 70 74 77 78 80 86 82 80 82 87 85 83 85 84 87 87 88 87 89 87 85 85 83 82
115 117 118 120 122 123 118 109 100 93 86 75 66 55 48 49 54 47 56 59 61 62 63 57 66 72 72 80 87 87 82 81 77 74 83 84 82 82 88 88 88 86 88 90 90 88 85
117 119 121 122 124 123 117 108 100 94 86 76 63 51 44 38 41 42 49 59 61 61 54 55 60 59 71 72 78 87 84 83 80 78 73 72 77 86 84 82 84 86 89 88 88 87 83
119 120 122 124 125 124 115 109 102 95 85 75 60 49 43 35 29 34 45 57 60 60 52 56 57 59 69 70 72 80 83 84 83 80 77 75 76 75 77 81 83 84 83 86 87 88 87
120 122 124 126 125 123 114 109 102 94 83 70 59 50 37 27 24 27 42 55 59 59 56 57 53 50 56 62 72 76 80 80 76 78 78 78 79 80 78 77 81 82 81 83 84 85 84
120 124 125 126 125 119 112 107 103 92 80 68 57 47 33 23 23 24 37 52 63 59 59 56 52 49 48 46 53 62 71 78 77 76 73 78 80 78 75 81 79 81 82 85 85 83 80
123 125 127 126 124 116 109 104 99 90 78 66 54 44 31 21 18 23 37 52 57 61 61 53 47 47 43 39 42 48 59 68 76 77 76 73 72 75 79 75 79 84 84 84 83 82 79
123 126 126 126 121 114 107 101 93 81 70 59 49 40 30 17 14 21 35 50 51 57 52 52 49 47 42 40 40 41 48 56 62 68 69 68 71 68 67 67 71 72 75 76 75 76 79
122 126 126 124 118 112 107 103 96 82 67 55 45 35 25 15 8 21 35 37 45 57 53 51 49 45 41 38 36 37 40 41 44 47 52 54 55 52 53 53 55 57 60 65 65 68 71
120 124 125 122 114 107 104 101 93 80 64 51 43 34 20 9 5 14 20 24 41 50 53 50 45 41 36 33 36 36 35 35 35 37 38 40 42 43 45 46 47 52 55 58 62 68 66
119 121 123 119 109 102 99 96 86 74 58 46 38 31 21 10 2 10 21 31 33 53 53 47 43 41 33 35 35 34 33 33 32 31 29 31 33 33 39 41 43 46 52 56 59 59 60
118 120 120 114 105 98 94 90 81 69 53 43 33 26 18 9 4 9 15 25 42 57 52 46 41 34 29 36 36 34 30 28 29 28 29 29 31 36 39 37 41 41 41 39 35 38 42
115 118 116 109 103 95 90 86 73 65 51 41 30 24 15 6 8 14 25 36 44 55 50 42 37 30 29 30 29 28 27 27 27 28 29 32 35 34 26 24 21 22 22 27 34 39 42
114 115 111 105 100 94 87 85 70 60 48 39 31 25 14 6 16 26 31 40 53 51 44 40 31 27 32 30 27 29 29 26 26 27 29 26 25 19 16 11 17 22 25 32 30 28 30
111 110 105 99 97 92 86 83 69 59 48 40 31 25 14 7 15 25 38 50 50 46 39 33 27 31 30 28 27 27 24 20 20 20 19 20 16 10 8 14 22 24 17 16 15 21 18
106 103 99 94 92 91 84 80 69 58 50 40 34 23 17 6 7 20 36 49 49 45 39 32 31 34 31 28 25 21 21 20 20 20 17 13 9 9 14 17 16 11 4 3 8 15 16
100 96 92 90 88 88 81 78 68 59 49 40 32 21 15 6 9 21 33 43 43 39 33 29 35 37 32 28 23 21 24 21 19 16 12 8 6 13 13 12 8 8 5 2 9 20 24
94 89 86 85 83 84 79 74 64 56 52 40 29 18 10 3 4 18 32 37 39 35 30 30 36 37 33 29 25 22 22 20 15 11 8 7 14 13 11 10 8 13 9 2 10 18 24
87 83 81 80 77 79 77 70 58 54 49 38 26 15 5 3 11 27 39 41 39 32 28 31 36 37 35 30 26 23 20 18 13 9 9 11 11 13 15 14 14 15 10 2 11 17 20
82 78 75 75 72 73 73 69 56 47 45 38 26 17 9 10 21 33 42 44 41 35 32 31 36 36 34 30 27 24 20 16 13 11 11 15 12 19 16 12 10 16 11 1 9 15 16
78 74 71 72 66 67 68 66 56 44 42 36 27 14 14 13 23 34 43 45 40 35 34 34 36 35 34 31 28 25 21 16 13 13 11 16 12 20 13 7 14 16 9 5 4 12 19
73 71 68 68 62 62 62 61 56 45 38 35 25 14 13 15 22 33 44 46 44 40 37 36 37 35 34 31 29 26 21 17 17 15 16 18 14 13 16 13 11 13 7 6 9 14 18
68 68 66 64 59 58 59 57 52 44 38 31 25 14 13 18 23 33 45 49 48 44 41 39 38 37 35 32 29 25 21 21 18 16 19 19 12 13 17 19 13 11 11 11 13 14 17
65 65 64 62 57 55 57 56 49 42 37 29 19 13 15 19 23 30 40 49 54 51 44 42 40 39 36 32 30 26 24 21 18 14 23 18 14 10 10 15 14 13 12 14 15 18 18

GFSGBSN_250_spd_039.txt.gz
Wind_Speed
102 101 103 102 102 106 108 107 105 92 83 78 75 70 60 54 48 44 46 52 60 66 75 81 86 89 90 92 94 99 96 89 86 84 82 83 81 81 80 81 80 77 75 77 78 76 73
106 103 104 104 104 106 109 108 104 95 88 82 75 71 68 56 52 48 45 50 57 65 72 79 82 87 88 89 90 95 97 96 90 86 84 83 82 83 81 77 76 74 75 73 74 76 74
107 108 106 107 107 109 111 110 105 97 88 85 79 68 62 66 56 50 49 49 55 62 70 75 81 84 87 93 89 93 91 94 96 92 87 85 84 82 82 80 75 74 74 76 79 78 74
108 108 108 111 111 114 115 112 107 99 92 89 80 69 60 56 58 50 52 50 52 59 66 74 77 81 87 88 93 94 91 91 93 98 94 90 85 84 80 79 81 78 74 74 81 76 74
107 110 109 112 115 116 117 113 108 99 92 88 78 69 59 51 49 47 44 51 53 55 61 70 74 79 86 88 90 92 87 91 88 91 96 95 91 86 81 81 80 79 78 77 78 76 74
110 111 112 113 117 119 119 115 107 101 95 89 78 67 55 46 41 39 37 49 50 53 60 67 69 72 78 87 89 88 87 87 88 89 89 92 94 89 86 83 80 83 78 78 78 78 75
112 112 114 116 118 121 119 115 107 104 99 91 79 65 51 43 36 31 28 42 52 54 54 54 57 62 73 81 88 86 84 86 88 87 82 85 86 89 94 91 88 85 80 78 78 80 77
112 114 116 117 119 121 119 115 107 105 101 93 80 66 55 42 34 27 26 36 46 47 49 51 60 64 70 75 87 86 82 77 79 80 85 83 78 83 90 91 91 88 86 88 87 84 81
112 116 117 118 120 121 119 113 107 105 98 92 80 65 54 43 32 22 22 31 42 48 50 53 55 60 65 67 79 83 84 84 80 78 78 75 81 80 79 80 83 83 86 90 89 89 90
112 116 117 119 121 120 119 113 107 103 93 83 71 62 53 41 29 17 20 29 43 47 49 51 50 57 57 59 64 74 82 83 82 79 78 71 69 75 76 76 77 78 82 86 87 90 89
112 116 117 119 122 120 117 111 110 105 96 88 72 60 51 39 26 13 17 28 40 43 45 46 48 52 53 53 60 60 69 77 74 74 74 77 70 68 72 76 74 75 78 84 84 82 81
114 116 116 119 120 119 114 110 109 104 96 86 70 59 49 38 23 9 14 27 35 39 43 43 45 44 46 45 52 56 58 63 64 69 79 77 72 71 71 70 68 69 72 74 73 74 74
114 115 116 119 120 117 110 107 105 99 93 83 66 54 46 38 23 10 10 23 29 36 42 42 42 41 43 42 41 50 56 59 59 60 68 79 78 73 72 72 72 73 72 73 73 74 74
111 114 116 119 119 115 107 105 103 96 89 77 62 50 40 33 23 14 3 17 27 29 39 44 44 43 41 37 34 35 39 45 52 58 65 73 77 75 72 69 70 72 74 72 72 73 73
112 113 116 117 117 112 104 102 101 95 86 73 57 45 37 29 18 14 14 19 25 37 41 40 35 35 33 30 30 30 32 35 42 51 58 64 68 69 68 67 67 69 65 66 66 66 63
110 111 114 117 115 108 101 98 96 91 83 70 54 41 33 23 17 14 18 20 31 40 42 41 37 33 31 27 26 25 25 31 37 41 43 50 56 61 63 60 60 58 57 55 51 49 46
109 109 112 115 112 106 100 93 92 88 80 66 48 36 29 19 13 15 25 26 36 40 38 36 34 31 26 22 21 21 22 25 28 28 32 34 37 40 40 40 40 41 40 40 40 41 44
108 108 111 112 108 104 99 90 87 84 77 63 45 35 29 20 8 12 26 34 37 39 37 33 27 22 17 15 14 15 21 25 25 25 25 26 28 25 23 26 28 30 32 36 38 40 44
107 106 108 109 103 101 97 91 84 80 76 62 44 37 32 27 13 13 22 36 40 39 36 32 26 23 19 15 17 24 25 25 24 25 25 24 20 18 21 23 26 28 27 26 24 23 32
105 105 104 104 99 96 95 92 85 77 73 66 48 38 33 24 19 9 21 32 41 37 32 29 24 20 15 20 26 27 27 24 22 21 20 20 19 19 22 23 23 18 17 17 22 21 24
103 100 99 98 95 92 90 89 86 78 72 64 51 38 29 28 14 6 18 33 42 37 31 28 23 19 24 28 28 26 24 21 19 18 19 18 24 27 22 17 14 15 16 18 17 16 13
102 97 92 90 89 86 84 84 82 78 69 61 51 35 28 23 14 4 15 36 39 34 30 26 21 27 31 29 25 23 20 17 18 20 24 25 21 19 16 14 13 13 17 15 8 5 6
99 94 87 84 83 82 77 78 76 70 67 61 47 35 23 15 7 17 28 35 38 34 30 26 29 32 30 26 23 23 22 21 23 21 19 17 16 16 14 14 14 12 15 11 2 3 7
95 88 82 77 78 75 73 72 71 66 62 58 45 34 19 13 4 18 33 33 34 32 28 26 32 31 29 25 25 27 25 23 19 15 14 16 12 11 16 16 16 17 17 11 3 3 8
89 82 77 73 72 71 68 68 66 63 57 56 47 33 20 11 7 18 30 36 34 31 28 30 35 34 31 28 26 25 23 20 16 12 12 12 11 14 19 17 14 20 18 12 1 7 15
84 78 72 68 68 67 64 64 64 59 54 51 46 36 23 12 11 23 32 37 38 34 30 32 38 37 34 30 27 23 21 18 15 12 12 11 15 16 22 17 16 17 21 13 8 8 14
78 74 68 64 65 64 60 59 59 56 52 48 43 36 25 15 12 24 36 38 40 37 33 33 37 38 36 31 28 24 21 19 15 13 11 13 17 19 20 16 15 21 21 15 11 9 13
74 69 64 61 62 61 58 57 56 53 49 46 42 34 24 19 16 20 35 42 42 40 36 35 38 38 36 33 30 27 23 21 17 16 13 17 18 22 21 18 17 18 19 17 11 13 14
68 66 61 60 60 59 56 57 54 51 45 44 39 32 23 19 16 20 31 39 43 42 40 38 38 39 38 36 32 29 25 21 20 18 13 19 24 21 23 23 22 20 19 17 14 15 12

GFSGBSN_250_spd_042.txt.gz
Wind_Speed
105 104 103 103 103 103 103 104 103 97 90 80 77 71 64 61 58 48 46 43 49 56 61 71 82 90 93 96 102 107 102 100 98 95 94 93 89 91 91 91 90 86 86 86 85 86 81
105 105 105 105 104 103 104 108 106 97 89 85 82 75 65 55 56 55 47 46 48 54 61 69 76 86 91 94 100 104 107 102 99 97 94 90 89 88 89 88 86 85 84 83 83 84 82
104 105 107 106 103 104 107 109 107 100 91 89 85 76 63 55 48 48 48 45 48 52 59 66 73 82 90 94 95 100 103 107 101 96 94 91 91 87 87 84 83 81 83 81 82 86 85
105 106 107 107 105 107 109 111 107 100 94 94 87 78 64 52 44 41 40 43 46 52 57 63 69 77 86 92 94 97 99 101 106 97 94 92 90 89 86 83 82 82 81 79 82 84 81
107 109 110 108 107 110 112 113 108 102 97 97 90 77 63 50 41 37 34 35 41 50 57 60 65 71 82 88 93 96 95 98 100 103 98 94 90 87 85 82 82 79 78 79 81 78 78
108 111 111 110 109 112 114 114 109 102 97 96 90 75 61 52 43 34 29 30 38 46 56 59 63 69 78 86 93 94 94 92 96 100 101 100 94 90 85 82 81 82 80 79 78 75 73
109 114 112 110 111 114 116 116 109 103 98 93 81 75 60 54 45 33 24 26 37 44 51 55 50 62 74 80 85 89 89 91 91 93 94 97 97 91 88 87 85 81 77 76 77 77 73
113 115 114 113 113 116 117 117 111 104 102 97 86 70 62 52 45 31 20 21 35 38 45 50 55 61 71 76 81 85 86 87 90 89 87 89 90 94 95 92 88 83 79 76 79 77 76
115 117 115 114 114 117 118 117 112 106 102 98 85 72 62 52 44 28 16 20 31 35 41 51 52 57 66 73 76 82 85 85 86 89 87 82 84 88 89 93 93 88 85 83 81 78 76
118 118 116 114 116 118 118 117 111 106 103 96 84 71 60 52 41 25 12 17 29 32 41 50 55 56 57 65 69 74 80 84 81 82 88 87 84 81 81 82 85 90 90 88 87 85 79
118 119 114 114 116 119 118 115 111 105 102 94 81 69 59 49 35 21 7 13 21 31 43 52 52 54 54 57 62 63 70 78 82 78 76 75 80 78 77 75 77 79 82 87 92 89 86
118 117 113 114 116 120 118 113 108 103 99 92 78 69 58 44 30 16 4 6 15 29 42 47 51 43 44 51 55 56 62 65 78 78 71 71 75 76 76 75 76 76 76 77 78 83 85
117 114 112 116 117 120 117 111 106 101 97 88 77 67 54 40 26 11 7 5 15 29 40 41 38 39 45 47 46 48 54 52 72 79 71 71 68 71 72 70 70 72 68 69 70 74 74
117 112 112 116 118 118 115 108 104 99 94 85 73 62 48 38 26 11 10 14 23 37 39 43 40 41 42 43 40 43 47 49 57 80 78 75 71 69 66 67 69 67 63 61 62 64 64
116 111 111 116 119 118 113 106 100 96 91 80 68 57 45 39 25 12 16 23 37 43 43 38 39 38 35 36 37 31 36 45 49 55 70 73 69 70 68 68 67 69 65 63 61 59 61
115 109 110 115 118 116 111 102 95 93 85 74 64 56 41 37 24 10 22 32 37 39 40 40 36 31 31 31 29 27 32 39 42 43 48 54 62 69 69 65 67 68 69 66 64 63 65
111 109 110 115 116 113 109 99 91 88 86 77 63 53 42 36 24 9 19 29 35 37 34 35 36 35 30 28 26 26 26 27 30 36 42 46 48 52 54 56 59 63 71 70 66 62 61
107 108 109 114 114 109 106 100 91 83 82 77 65 55 43 37 27 17 16 24 32 35 35 33 31 29 29 25 22 21 20 24 28 34 38 41 44 47 52 56 57 58 61 63 58 55 59
104 106 107 111 108 104 101 98 92 83 78 73 62 54 43 36 29 17 15 30 32 29 31 31 27 24 21 16 10 17 19 21 25 28 32 31 32 34 37 40 43 45 47 46 45 44 39
102 104 106 105 101 98 95 93 89 85 78 72 62 55 40 31 27 15 14 27 33 33 31 28 26 23 19 17 19 20 21 23 24 23 23 24 25 26 28 28 30 30 30 33 32 31 34
100 102 103 100 95 92 88 87 82 79 75 69 61 53 42 29 19 9 13 24 30 31 31 29 25 19 15 14 20 25 27 26 25 26 25 24 25 24 25 27 26 27 28 24 25 27 26
100 102 99 95 88 85 83 81 77 73 70 65 57 49 43 27 18 7 17 25 28 27 27 25 20 17 16 22 25 29 28 26 24 22 21 22 23 24 25 24 22 21 24 25 21 18 19
99 100 97 88 84 80 77 77 73 71 66 60 53 45 39 28 17 2 16 28 30 28 25 21 18 17 21 25 29 28 25 22 20 21 23 25 27 28 24 21 21 20 19 18 19 18 14
98 96 93 84 79 75 72 70 69 66 63 59 51 43 36 29 15 10 16 24 28 29 27 24 21 25 25 27 26 23 20 20 22 26 27 27 26 23 22 20 17 17 20 20 17 12 9
97 94 86 79 74 72 68 66 62 64 59 56 51 42 34 28 18 12 16 27 28 29 29 25 25 29 30 28 26 26 27 29 28 26 23 22 21 20 17 16 18 22 25 22 16 8 5
94 89 82 74 69 68 64 61 58 59 57 54 51 39 33 27 23 17 21 26 30 30 29 27 29 32 32 30 32 31 30 27 23 19 18 19 18 15 13 19 24 23 21 24 16 12 12
88 83 78 71 66 64 62 58 55 54 53 52 49 41 31 27 25 22 24 29 32 32 30 27 33 35 34 34 35 33 29 26 21 18 16 17 15 14 15 20 23 22 22 24 24 18 16
82 79 75 68 64 61 59 56 52 50 48 47 46 39 31 28 24 24 25 34 36 37 34 31 34 38 37 37 36 33 30 26 21 18 18 18 15 15 16 20 21 17 20 27 25 21 19
77 76 72 66 62 59 57 55 50 48 46 43 41 34 31 25 21 23 28 32 40 39 39 35 36 39 41 39 37 34 31 27 23 21 20 17 15 15 18 21 21 19 19 22 24 24 19

GFSGBSN_250_spd_045.txt.gz
Wind_Speed
98 97 99 103 103 102 103 104 105 105 98 89 82 79 76 71 64 57 56 56 55 58 64 70 74 83 88 95 102 112 120 118 113 112 113 113 112 106 102 99 97 91 89 90 94 93 90
97 97 102 105 107 107 106 107 108 107 99 91 85 83 78 70 62 53 51 50 53 55 61 69 74 80 83 90 102 107 113 117 115 110 109 112 111 113 110 106 99 91 89 90 90 90 88
100 98 104 108 109 108 108 111 112 110 101 92 87 83 77 67 57 45 42 42 45 48 55 66 72 76 81 89 95 104 108 114 117 110 110 106 107 107 103 102 97 94 91 91 90 90 88
100 102 106 109 112 110 109 113 115 111 103 94 89 84 76 63 50 38 36 36 37 42 49 64 69 71 75 85 92 98 105 109 116 114 110 108 106 105 108 104 100 94 94 90 90 89 87
102 105 109 111 114 111 111 116 117 113 103 96 92 84 76 61 47 36 31 31 33 41 43 60 65 66 76 82 86 93 102 108 114 116 111 105 104 101 101 97 93 90 88 88 90 89 86
105 108 111 115 116 113 113 119 120 113 104 98 95 87 75 61 45 36 30 29 30 38 40 55 63 66 76 76 82 90 95 100 107 113 113 106 101 98 95 91 88 89 86 85 84 84 82
108 111 115 118 119 115 115 120 121 113 104 99 94 86 73 58 46 37 32 27 26 34 38 48 57 63 69 75 79 84 92 97 102 106 110 107 101 96 93 92 93 89 84 82 80 78 75
110 113 117 119 120 116 116 121 122 113 105 99 94 86 72 59 51 42 33 23 24 31 37 43 56 63 69 71 74 77 85 91 96 99 105 109 103 97 96 92 92 88 85 82 81 80 77
111 114 118 119 118 115 116 120 121 111 104 100 94 87 73 61 53 44 31 20 21 28 35 44 58 64 65 66 69 74 83 88 90 95 97 104 102 100 97 95 90 85 82 83 85 80 76
112 115 119 119 118 113 116 120 118 109 103 99 96 88 73 60 50 43 29 16 14 23 33 44 57 61 61 64 65 71 76 85 87 88 90 94 97 100 102 97 92 88 87 85 82 80 76
113 116 119 118 116 113 116 119 115 107 101 98 93 82 68 55 45 41 24 7 7 20 32 44 56 59 56 56 58 61 68 77 80 84 84 82 87 91 94 97 94 91 89 87 85 81 78
114 117 119 117 114 113 115 118 113 104 99 94 88 76 64 52 41 34 16 3 10 18 29 45 56 56 48 48 51 56 62 68 77 79 79 79 79 79 83 86 90 92 93 93 90 86 81
114 117 117 115 114 113 114 117 110 99 93 89 83 72 61 47 39 30 13 5 12 20 32 42 43 41 42 42 43 49 54 57 66 70 71 73 73 77 76 78 81 83 87 86 87 89 88
113 115 116 113 113 113 114 114 108 96 91 84 79 71 58 47 43 33 11 10 17 27 38 42 41 40 39 39 44 49 48 51 61 68 71 73 75 71 76 77 76 79 75 74 76 78 79
113 113 114 111 113 112 113 111 105 94 91 85 76 68 56 48 46 29 10 11 18 28 35 37 36 37 35 36 39 39 40 47 51 63 69 66 65 63 65 68 77 77 73 68 64 66 69
112 112 111 112 111 112 113 109 102 93 89 86 79 68 57 49 44 29 15 14 24 31 34 35 33 31 34 36 31 31 35 42 44 49 53 60 64 68 64 61 62 65 70 73 71 68 68
111 109 109 110 109 110 112 106 98 90 86 80 75 69 57 47 40 25 15 16 25 35 35 35 36 35 31 33 29 26 27 32 37 41 43 48 58 65 64 59 58 58 61 65 65 65 63
108 107 107 110 109 108 108 101 95 87 81 76 72 66 56 47 39 20 12 21 23 28 31 32 30 29 30 28 25 22 21 25 34 39 39 38 47 60 63 63 61 61 62 63 63 62 62
105 105 106 108 108 106 104 97 92 84 78 74 69 63 55 45 33 23 13 18 19 24 27 28 26 25 23 22 20 18 18 20 26 33 35 36 38 40 48 61 65 64 64 64 66 60 56
102 103 106 105 105 102 96 91 88 80 72 66 64 58 51 43 31 16 5 15 24 27 27 28 28 25 23 22 21 19 21 23 25 26 27 31 34 38 41 44 46 48 50 49 49 48 50
100 102 105 103 102 96 90 85 81 78 70 64 60 54 47 42 31 20 3 13 23 26 25 27 26 21 18 17 20 24 25 24 26 27 30 30 33 34 36 38 39 40 40 43 42 40 37
99 102 102 101 95 89 84 80 76 72 67 59 54 52 43 38 30 19 3 13 18 21 23 23 20 18 17 15 16 23 22 22 21 22 23 25 27 28 28 28 26 26 26 25 25 27 26
100 101 99 94 88 81 78 77 72 68 62 57 49 45 41 34 29 21 13 14 22 23 23 22 18 17 14 17 22 23 24 22 22 23 24 25 26 26 24 21 23 25 25 24 24 24 24
100 98 94 88 81 75 74 73 69 65 61 55 47 41 37 32 27 21 16 16 22 27 26 24 22 18 17 21 22 24 23 22 22 24 24 23 23 23 22 23 23 22 23 24 24 24 23
98 93 87 81 76 71 70 69 66 64 59 53 49 40 34 29 28 22 19 18 25 27 27 25 21 17 20 23 25 26 26 23 21 22 23 24 23 19 21 21 20 23 24 24 24 23 20
92 86 81 76 72 68 67 65 62 60 59 52 48 44 36 29 28 25 21 20 24 29 29 26 23 20 23 25 26 26 24 22 23 23 22 22 20 19 20 21 22 23 23 23 23 25 21
85 81 77 73 69 65 64 62 59 56 54 49 47 46 41 33 27 29 24 22 25 30 31 27 24 22 26 27 28 26 24 27 26 23 20 17 17 20 20 19 21 22 25 25 28 27 24
81 79 74 70 66 64 61 59 55 54 48 43 42 42 40 35 30 30 28 22 30 33 35 31 27 24 28 31 29 28 30 30 27 23 20 16 19 19 16 15 19 21 23 24 31 31 30
79 77 74 69 66 63 60 58 53 52 44 41 39 38 36 32 29 26 25 24 31 34 38 36 31 27 32 32 31 33 34 31 28 24 19 17 19 16 13 14 18 23 22 25 28 32 31

GFSGBSN_250_spd_048.txt.gz
Wind_Speed
95 94 97 102 106 109 107 104 102 105 105 103 91 85 78 75 70 66 61 54 52 54 56 62 67 76 80 83 92 105 112 124 124 127 125 118 116 113 111 108 105 99 96 95 95 93 89
97 97 99 104 108 110 108 107 106 108 109 102 92 86 80 75 69 61 55 51 46 46 52 54 63 72 77 81 92 99 108 113 126 127 126 123 115 113 113 110 107 102 98 97 96 94 90
99 100 102 106 109 111 110 109 110 110 111 102 93 87 81 75 64 52 47 44 41 42 46 47 58 65 71 82 87 93 103 111 116 125 122 123 122 117 113 110 107 101 99 99 97 94 91
102 104 105 107 111 111 112 110 112 112 112 102 95 89 83 76 60 46 40 38 37 39 42 42 51 59 70 80 86 90 100 104 111 124 125 118 121 120 116 110 105 100 98 94 95 94 90
104 106 105 108 112 113 112 111 113 115 113 103 96 90 85 75 59 45 36 33 32 34 38 39 46 55 71 78 84 88 95 100 107 114 126 124 115 117 115 111 110 102 99 95 95 95 95
104 107 107 109 113 115 113 113 114 117 113 104 98 92 87 76 60 47 37 30 27 30 35 39 42 56 71 76 83 86 89 95 100 110 116 128 120 108 110 108 105 103 102 101 99 95 90
108 108 109 111 114 116 113 115 116 116 112 104 99 93 87 74 60 48 38 29 22 25 31 34 41 58 71 72 77 81 86 93 96 101 107 117 120 107 92 99 107 103 100 100 101 96 91
110 109 110 112 114 115 115 116 117 115 111 104 97 92 84 71 59 46 37 27 18 17 23 34 45 60 69 71 74 77 80 87 90 94 99 110 118 119 104 93 96 98 97 97 95 93 89
112 110 110 111 114 115 116 117 118 114 108 102 96 89 79 67 55 46 36 25 13 8 20 36 48 58 63 66 67 70 76 81 86 93 98 104 111 116 117 100 90 92 93 91 91 90 86
112 111 112 114 115 116 116 119 118 113 104 97 91 86 76 63 50 46 36 24 11 6 21 37 48 52 59 61 62 67 72 76 82 88 95 100 97 103 111 115 97 91 88 90 90 87 84
109 110 112 114 116 115 117 120 117 112 103 95 87 84 76 65 52 47 33 22 8 4 17 31 41 48 57 57 57 63 67 71 77 82 86 87 92 95 102 106 109 94 90 89 88 86 82
110 109 112 114 115 114 117 120 117 110 103 95 89 83 77 61 48 42 33 17 8 10 22 29 35 48 51 52 53 57 61 62 69 74 81 83 86 91 96 98 99 98 95 91 85 84 80
111 110 112 114 115 113 116 118 116 108 103 95 89 83 75 61 47 42 33 16 9 15 16 20 27 39 45 44 46 51 55 55 60 64 68 73 76 81 85 91 93 95 96 92 88 85 81
109 110 111 112 113 112 115 116 111 103 99 94 87 82 76 63 49 42 33 23 13 9 15 20 34 39 38 38 43 46 47 49 55 62 66 69 71 73 75 77 88 93 91 91 90 88 86
107 108 110 111 111 110 114 112 106 98 93 91 86 83 78 67 52 44 32 25 18 16 20 21 29 32 32 35 36 35 36 41 46 53 59 63 65 69 71 73 75 80 88 92 91 92 91
106 107 109 108 108 109 111 106 99 93 88 86 82 78 74 67 56 47 36 22 19 22 29 31 32 30 32 31 30 32 33 36 41 44 50 56 60 62 69 69 71 72 71 72 78 81 83
106 106 107 107 105 108 108 101 93 88 83 82 78 75 70 61 53 46 35 19 12 19 26 31 31 32 28 29 28 27 29 33 36 39 41 50 55 59 63 66 65 62 64 66 70 70 73
106 105 105 104 103 104 102 95 88 84 78 76 74 70 66 58 47 39 29 18 11 9 13 17 20 19 20 21 17 17 22 28 33 36 37 38 45 53 55 58 63 64 64 64 68 69 70
103 103 102 102 102 101 95 89 81 79 75 70 71 66 61 53 41 36 24 16 10 9 9 10 13 16 18 18 18 19 19 24 30 33 32 34 37 46 53 54 57 58 58 56 54 56 61
101 100 100 100 99 95 88 82 77 73 69 66 64 62 57 50 40 31 21 11 4 10 15 17 17 17 19 20 18 17 16 19 23 29 34 33 34 37 42 46 50 53 54 54 55 55 55
99 99 97 96 94 89 82 77 72 70 65 62 58 58 54 48 39 27 17 12 2 7 13 15 18 20 20 20 18 17 18 18 19 26 32 36 35 33 34 38 43 47 50 51 53 51 54
101 98 95 93 88 84 78 72 69 66 63 59 56 49 52 46 39 30 18 15 9 10 12 15 16 15 14 15 15 13 14 14 15 19 23 29 34 34 34 35 37 38 41 43 43 45 42
100 97 92 87 83 79 75 69 65 63 60 57 54 44 43 45 38 30 22 12 16 15 14 18 18 17 16 13 14 15 16 18 19 20 22 24 26 28 30 31 32 33 35 34 33 34 30
98 93 88 82 79 76 72 66 61 59 57 54 52 42 37 39 39 32 24 15 10 20 20 20 20 18 16 13 14 15 17 18 19 20 21 22 22 22 22 22 24 23 22 21 21 20 20
96 90 83 79 76 73 69 65 61 58 54 53 50 41 37 34 35 34 28 21 13 13 24 24 23 20 16 14 15 16 18 19 19 19 19 19 17 17 18 19 18 18 18 19 20 21 23
92 86 80 76 74 71 67 63 60 58 53 51 48 43 40 37 32 33 32 26 20 16 19 29 28 22 17 16 17 19 19 20 20 20 18 19 19 19 19 20 19 18 19 20 21 22 26
89 83 79 75 73 69 65 62 58 56 51 49 48 46 43 40 37 31 34 31 26 21 23 23 32 26 19 18 20 21 22 21 20 21 21 21 20 19 19 19 19 19 20 22 22 25 30
85 82 78 77 73 68 63 61 57 54 49 47 43 42 42 42 43 39 34 34 31 27 26 28 27 31 24 20 23 24 25 23 21 20 20 20 20 18 18 17 18 20 23 24 25 28 29
84 81 78 76 73 68 63 60 56 52 46 44 40 39 38 37 37 35 33 33 32 30 31 31 31 33 28 22 25 27 25 23 21 22 19 17 17 16 16 19 19 20 21 22 26 29 32

GFSGBSN_250_spd_051.txt.gz
Wind_Speed
90 94 96 102 101 101 103 103 101 102 104 102 96 91 83 77 71 66 58 57 57 54 52 54 55 66 74 79 82 90 95 107 113 121 127 123 123 120 117 113 109 104 99 96 96 93 89
92 96 100 104 102 102 104 104 103 105 107 103 96 92 85 79 72 65 53 49 50 49 46 46 48 58 71 74 81 88 91 99 111 118 125 127 123 121 119 118 114 110 106 103 100 96 92
94 99 103 105 105 105 106 106 104 107 108 103 97 93 86 80 75 65 52 44 42 42 40 38 40 51 62 69 79 85 87 94 104 115 122 127 126 123 122 120 118 113 108 105 103 98 94
95 99 103 107 106 106 107 108 107 109 109 103 98 95 89 83 75 61 51 40 35 35 34 31 35 43 56 68 76 85 85 88 99 110 117 123 128 127 122 120 117 114 109 105 103 99 94
98 100 105 108 108 109 110 110 110 111 108 101 98 95 89 83 72 59 50 41 33 30 29 27 31 38 55 65 74 80 82 86 96 105 115 120 127 127 124 120 115 113 109 106 104 100 98
100 104 107 110 110 110 111 111 113 113 108 102 98 92 87 82 71 59 48 40 32 27 24 25 29 36 48 61 69 77 80 82 92 102 110 116 123 125 123 119 111 106 105 105 106 105 102
101 105 107 109 109 111 111 112 115 114 107 101 99 93 88 81 71 60 51 35 28 21 19 25 33 44 52 60 68 71 73 81 89 97 102 111 112 115 117 114 112 111 108 107 107 104 99
104 105 105 108 110 111 112 113 116 115 107 100 99 92 87 80 70 59 46 31 24 15 15 25 33 42 45 54 64 66 68 78 86 90 95 102 104 109 118 123 111 111 109 108 106 103 101
103 102 103 107 110 112 113 113 116 113 107 100 97 91 87 80 67 53 42 30 21 8 9 20 31 35 41 51 60 63 69 76 82 82 89 96 101 103 111 116 117 100 101 106 106 104 102
104 102 104 107 110 111 113 114 115 111 105 99 97 91 86 82 65 52 42 32 22 9 3 14 26 37 44 54 60 59 67 74 76 79 85 92 95 102 104 113 116 108 102 98 101 101 97
104 104 104 107 110 110 113 114 113 110 105 99 97 90 84 79 63 50 44 34 25 14 7 8 25 36 45 48 50 53 61 69 73 76 83 87 93 98 101 104 108 111 104 98 91 89 89
105 104 105 106 110 110 113 113 111 107 102 96 95 91 84 79 63 50 45 36 30 19 14 11 21 30 38 45 49 52 59 64 68 70 76 80 84 89 91 98 104 109 104 95 93 91 88
105 103 103 105 107 111 111 110 108 103 100 93 92 90 83 78 65 52 49 37 29 22 16 12 20 29 37 44 43 48 55 59 61 63 70 75 79 78 81 84 90 98 105 100 83 81 83
104 104 103 105 106 110 108 105 102 98 95 91 87 86 83 77 70 56 51 41 29 23 20 14 14 26 37 38 42 47 49 54 57 59 63 67 69 71 72 76 80 86 97 102 100 80 79
104 103 104 104 107 108 104 100 97 93 90 87 83 81 78 77 73 60 52 47 38 21 18 14 18 26 31 35 37 37 40 45 51 54 56 60 63 65 66 68 69 73 80 93 101 103 90
106 103 103 102 105 105 99 93 91 89 84 82 79 77 74 72 68 60 53 49 41 29 13 17 23 21 26 29 29 31 33 38 43 46 50 54 56 60 61 62 63 68 76 79 86 94 100
105 104 103 102 102 102 93 88 85 84 80 76 77 72 70 68 63 57 48 43 36 28 17 9 6 15 18 23 25 27 32 36 39 42 44 48 51 56 58 61 63 63 68 69 73 77 81
103 103 102 101 99 97 90 84 80 78 76 71 72 69 65 63 60 53 43 36 28 23 15 9 5 6 8 12 15 20 27 31 34 37 38 42 44 50 52 55 57 58 58 62 63 68 78
103 101 100 100 98 93 86 80 75 74 72 69 65 66 60 57 55 51 42 34 28 23 13 7 5 5 10 12 15 18 21 25 28 31 33 36 40 44 49 52 53 55 55 57 62 68 70
102 99 98 97 96 88 82 78 73 70 68 66 62 62 58 53 50 46 39 33 30 26 19 10 4 6 9 10 10 12 14 18 23 27 30 32 33 38 45 49 51 52 54 59 62 61 60
98 97 97 96 93 85 78 74 71 67 65 62 59 57 55 51 47 42 36 29 25 25 19 15 5 2 4 7 9 9 10 13 19 25 28 29 29 29 34 42 45 52 52 54 57 58 59
96 98 97 94 89 81 77 72 70 66 62 59 57 55 50 49 44 40 34 25 19 18 19 12 6 3 5 7 6 8 10 11 13 22 27 27 28 27 28 31 36 43 47 48 49 53 53
96 97 96 93 85 78 75 72 68 65 60 56 54 52 48 44 45 40 33 27 18 13 13 14 14 9 8 8 8 7 8 10 11 14 22 27 29 29 28 29 32 35 38 40 42 45 48
94 95 94 89 81 77 73 72 68 64 59 55 52 49 45 40 38 41 35 29 21 13 13 13 17 15 12 11 11 9 9 11 12 14 17 19 24 28 29 28 27 27 27 28 30 32 33
92 92 91 88 80 76 72 71 67 62 57 52 50 48 43 39 36 35 38 33 25 17 14 17 17 20 17 15 12 11 10 11 12 13 15 18 20 22 24 25 25 25 26 27 29 29 28
90 89 88 84 80 76 72 70 65 61 56 50 47 47 41 39 38 34 32 35 31 22 19 20 21 20 20 18 14 12 11 15 15 13 11 11 13 15 16 16 17 18 20 22 23 24 26
86 87 85 80 77 75 71 68 63 60 55 49 47 46 39 40 36 35 34 30 35 28 23 21 24 23 21 19 16 13 13 16 17 16 16 15 13 14 16 15 16 18 20 23 23 25 26
82 82 83 79 75 73 71 67 62 58 54 47 46 44 41 40 37 36 35 33 30 33 27 25 26 27 23 20 18 16 18 20 20 20 19 19 19 18 17 17 19 22 23 22 22 22 23
80 78 79 77 73 72 70 66 59 56 51 43 43 40 38 38 40 36 36 34 32 33 29 28 27 31 28 23 20 19 22 24 24 22 20 20 20 19 20 21 21 21 20 19 20 22 27

GFSGBSN_250_spd_054.txt.gz
Wind_Speed
83 89 93 98 98 99 100 101 99 97 97 94 88 84 82 79 76 71 64 56 50 47 49 53 58 62 68 81 82 91 92 100 107 116 126 129 128 122 118 115 111 107 101 100 98 97 94
86 91 95 98 98 98 101 101 100 99 99 94 89 85 82 79 74 69 60 50 41 41 41 44 48 51 55 71 84 89 93 94 102 110 121 129 130 126 123 120 116 111 106 105 102 101 96
88 92 96 98 99 100 102 103 102 102 101 96 93 87 85 80 75 66 55 43 37 33 32 35 38 39 45 65 84 89 89 90 97 105 116 124 132 131 124 123 121 116 111 111 106 103 98
89 92 94 96 97 100 102 104 105 103 101 98 94 90 88 83 77 65 54 43 35 30 28 27 29 31 46 61 79 85 87 88 93 101 109 120 130 133 129 125 124 120 117 113 109 105 100
92 95 98 97 97 100 103 106 106 104 101 98 96 93 91 86 78 64 52 44 36 27 20 22 28 35 47 60 75 81 85 87 92 97 103 115 123 129 132 127 124 121 117 113 111 106 102
93 97 98 99 100 103 104 107 109 105 100 98 97 94 91 85 75 62 53 45 33 24 18 22 29 36 48 60 69 77 77 84 87 93 98 108 118 126 131 129 120 117 115 114 113 110 105
94 98 102 101 102 105 105 107 110 106 101 97 96 93 90 85 76 65 55 43 32 21 13 17 26 35 45 54 62 71 77 81 85 89 94 101 111 118 124 127 123 117 118 118 117 113 110
95 99 103 102 104 105 105 107 108 105 101 99 95 92 89 84 77 65 52 38 30 19 9 12 25 35 39 48 60 71 77 76 79 85 91 96 101 111 119 126 125 120 117 118 117 114 110
99 100 103 103 105 106 106 107 107 104 100 99 96 92 89 83 77 63 52 40 29 19 8 7 23 32 37 47 56 63 65 66 73 81 86 86 92 100 113 119 124 123 121 117 116 114 111
100 101 102 104 106 106 108 107 105 102 99 98 97 92 88 83 76 62 51 39 30 19 11 9 20 31 37 41 47 55 57 63 69 77 79 81 85 91 102 113 119 121 121 120 116 114 112
98 101 104 105 106 106 108 107 104 100 97 96 94 92 88 82 77 64 51 43 32 24 19 15 18 22 27 35 44 50 59 64 65 69 74 76 81 85 95 107 112 118 120 120 119 114 111
95 102 103 106 107 106 105 106 102 97 96 93 91 90 87 80 75 66 53 45 37 27 23 17 14 20 29 35 43 51 57 62 63 67 69 70 75 80 86 95 103 109 114 117 116 116 111
96 100 102 104 102 103 104 104 99 94 93 92 90 88 87 81 75 68 56 48 44 30 26 20 13 13 18 30 40 48 53 56 55 52 63 67 72 76 79 87 96 101 104 108 113 110 111
94 96 100 102 100 102 103 101 97 91 89 90 86 84 83 80 76 70 58 48 49 44 28 21 14 15 23 31 39 45 46 47 45 52 58 61 63 67 69 78 82 90 93 96 101 103 101
93 98 99 100 101 101 100 97 93 89 85 87 83 80 79 77 73 68 60 53 49 46 35 24 15 13 22 30 33 34 34 38 42 48 53 53 56 60 61 66 72 78 86 91 92 96 91
93 98 98 99 99 99 97 91 88 86 83 83 80 76 75 71 68 62 55 47 45 38 32 23 22 9 18 23 25 28 31 33 37 40 43 46 48 50 52 55 64 72 81 86 88 91 95
93 97 96 96 98 99 93 88 84 84 80 78 78 73 70 68 63 59 53 42 39 34 27 20 15 11 5 8 18 22 27 30 34 36 38 41 42 42 45 49 50 59 69 76 85 84 90
93 97 94 93 96 98 92 86 81 81 79 75 73 71 68 63 59 56 51 43 33 34 28 19 12 9 8 10 16 20 25 29 32 33 35 37 39 41 43 43 44 51 60 65 75 85 86
94 90 92 91 92 95 90 85 79 77 78 73 68 66 65 60 56 52 48 43 33 28 28 22 13 6 5 8 14 18 22 26 29 31 34 36 38 39 41 42 44 48 53 57 61 64 73
88 89 87 88 88 89 89 83 77 77 74 73 66 63 59 58 53 48 44 40 34 25 22 23 18 9 4 8 11 16 19 23 26 29 31 34 36 39 41 43 44 44 46 52 60 64 67
88 85 82 84 87 85 84 82 77 74 72 69 65 62 56 55 52 45 41 37 34 25 18 17 17 11 4 4 7 10 14 18 23 26 30 32 32 34 37 41 43 45 46 49 51 51 53
87 83 83 86 82 82 81 76 74 72 69 66 62 60 54 51 49 46 39 34 30 25 17 12 11 10 6 2 3 5 6 11 18 21 25 28 30 30 32 37 40 42 46 45 48 52 53
91 82 82 80 78 80 80 77 74 70 67 63 59 57 52 50 47 44 39 34 28 24 18 11 7 6 4 3 2 3 5 7 10 15 21 27 29 29 29 31 36 42 46 48 49 51 52
89 86 86 79 75 76 79 75 74 70 66 61 56 54 50 48 46 40 40 34 28 25 20 15 9 9 7 8 8 7 8 10 11 10 11 20 23 25 27 27 29 32 37 41 45 49 48
88 87 85 80 75 73 74 75 70 68 65 58 54 51 50 47 43 40 35 34 32 25 22 19 15 12 14 12 11 10 11 11 13 13 14 15 18 22 26 25 24 25 27 31 35 39 42
89 90 86 81 76 70 70 74 71 67 64 56 51 49 49 47 42 40 36 31 30 31 24 21 19 16 18 17 14 10 10 12 11 12 15 17 19 19 21 24 24 24 25 26 28 29 31
91 92 88 83 76 70 70 70 71 68 63 55 49 48 49 47 41 40 36 32 29 30 28 24 22 21 19 22 19 14 11 12 13 13 14 16 17 19 23 25 27 28 29 30 30 32 32
97 95 89 80 75 70 69 69 68 68 63 57 48 47 47 46 41 39 35 34 32 30 28 29 24 24 24 26 23 19 14 15 17 16 15 17 20 21 21 20 21 22 24 26 26 26 27
100 92 85 78 72 69 67 68 68 67 63 57 47 46 46 44 43 40 36 34 32 31 30 29 29 26 28 29 30 25 19 19 22 21 20 19 20 20 22 21 22 22 23 25 25 27 27

GFSGBSN_250_spd_057.txt.gz
Wind_Speed
84 86 90 94 95 95 93 93 92 92 92 90 85 81 75 73 70 67 62 56 51 47 47 49 55 64 75 82 83 90 95 99 101 110 115 125 133 132 125 117 114 109 105 103 95 98 99
85 87 92 95 97 96 95 93 94 94 94 90 87 84 79 77 74 69 62 52 46 40 40 43 47 55 66 79 93 90 95 96 98 107 114 121 132 133 130 122 119 112 108 104 102 102 99
84 89 97 98 97 95 97 96 94 95 94 91 89 86 82 80 75 71 59 48 41 38 34 35 43 47 53 74 90 89 92 92 96 103 110 119 130 134 132 127 123 117 113 109 106 104 101
83 92 99 100 100 98 98 96 95 96 96 90 89 88 85 82 78 73 60 49 41 34 27 29 35 40 54 60 73 86 89 91 93 99 108 117 124 132 134 133 127 121 118 114 110 108 103
85 93 100 101 101 101 101 101 98 98 96 92 90 89 87 84 80 74 64 54 43 30 24 22 32 39 43 53 65 86 96 90 93 98 104 111 118 126 132 132 130 127 121 116 114 110 106
88 93 101 101 103 103 102 101 101 99 97 93 90 88 87 84 80 76 66 54 43 29 20 16 25 34 42 51 58 79 83 87 87 93 98 104 114 121 129 133 129 119 121 120 116 112 108
89 96 101 103 105 105 103 102 102 101 96 93 90 88 87 84 82 78 66 53 41 28 16 9 20 30 39 48 59 72 79 85 86 88 92 97 107 113 118 129 128 127 123 126 120 114 111
89 96 101 101 106 107 105 102 104 101 96 92 92 89 87 85 82 78 65 52 41 28 15 1 14 28 36 45 57 65 74 80 81 81 89 95 100 108 116 123 131 127 121 124 123 117 114
89 96 98 100 107 109 107 104 107 101 96 92 92 90 88 85 82 78 66 50 39 30 16 7 11 22 32 40 50 55 67 72 75 78 83 89 92 100 106 117 121 130 125 122 125 120 117
90 99 98 99 103 109 111 107 106 102 96 92 91 90 87 85 81 78 69 53 40 29 20 12 10 20 26 35 47 54 58 69 74 74 78 85 87 95 98 109 113 121 130 124 121 124 122
92 96 100 102 101 105 108 108 104 103 97 91 91 90 87 84 80 78 70 54 40 30 23 15 9 15 26 35 40 47 54 61 63 65 71 75 80 86 92 98 108 112 125 126 124 124 122
91 96 100 101 102 104 107 110 107 100 97 92 90 90 88 84 81 77 70 53 41 28 26 19 12 12 16 23 31 41 52 57 60 63 68 71 75 79 82 84 93 109 115 125 125 124 122
89 91 96 97 100 99 103 106 104 99 95 92 89 88 86 84 79 74 70 57 40 38 26 21 19 12 14 22 31 41 46 53 58 62 63 67 69 71 75 77 83 95 109 116 124 126 125
88 89 89 96 97 95 98 103 102 97 91 90 88 86 83 79 77 73 68 62 48 37 36 24 19 15 13 19 27 31 37 46 53 56 59 59 64 69 72 73 77 85 99 108 112 121 123
86 86 90 92 95 93 96 101 99 96 90 87 85 83 80 75 72 68 66 62 50 37 33 32 21 12 17 20 25 30 37 39 40 44 45 48 54 59 62 64 70 77 85 95 104 110 117
85 86 91 90 91 91 89 93 95 92 88 88 82 80 79 74 67 64 60 56 46 36 31 26 23 14 7 12 14 16 18 24 30 35 38 40 45 48 52 54 60 66 70 77 86 98 106
83 84 92 90 86 87 87 90 91 90 87 83 81 78 75 72 65 60 56 50 45 32 26 23 17 14 9 4 6 11 15 19 22 25 27 30 34 38 42 45 49 55 61 67 77 85 93
83 87 89 89 84 81 83 88 88 87 86 82 79 75 73 69 64 56 52 48 41 33 25 21 16 10 6 4 8 10 14 16 20 23 25 27 29 32 35 37 41 47 52 61 70 77 83
81 87 88 88 86 81 84 82 85 84 84 81 77 73 70 67 62 58 50 46 39 33 23 19 16 9 4 4 8 10 15 18 20 24 26 27 29 30 32 33 36 39 45 53 63 72 76
82 90 90 88 90 85 86 84 84 81 82 81 75 71 67 64 60 55 50 44 39 32 25 17 15 12 7 2 7 12 15 17 21 24 26 28 29 30 31 34 35 38 42 47 55 64 73
84 91 90 88 88 87 83 82 81 78 76 77 74 68 65 60 58 54 48 43 37 31 24 15 10 8 6 4 1 7 13 16 19 22 25 28 30 32 33 33 34 34 37 44 53 60 63
84 82 95 96 88 87 88 80 76 73 73 75 72 66 64 58 56 53 47 41 35 30 24 19 8 4 2 1 1 3 6 12 17 22 25 27 29 31 32 34 36 38 38 41 42 47 55
88 90 98 95 95 87 90 82 73 73 70 73 71 65 62 56 54 52 46 40 35 30 24 18 14 7 3 2 2 3 4 7 11 15 21 26 29 30 32 33 35 39 41 42 42 42 49
88 94 98 95 90 88 89 87 76 73 70 68 68 63 60 55 53 50 47 41 36 30 25 19 16 13 10 8 8 9 8 9 10 11 16 20 22 26 28 29 30 35 37 40 43 45 46
91 93 98 92 92 92 93 88 76 68 69 68 66 62 58 54 52 48 43 41 38 32 26 20 17 16 16 16 15 13 12 12 14 16 14 15 20 23 25 27 28 29 33 37 40 43 47
100 101 102 97 94 89 86 87 75 69 65 67 64 60 57 54 51 48 43 40 36 34 30 23 19 17 18 20 21 18 16 14 15 19 20 18 18 23 26 26 26 27 30 32 36 39 43
101 107 108 91 93 90 90 85 76 67 63 63 62 58 55 53 49 47 43 41 37 33 30 28 23 21 20 22 24 25 22 18 15 18 20 21 22 22 24 28 28 28 27 28 28 33 35
104 104 107 98 91 91 91 81 74 65 61 58 59 57 53 51 48 46 44 40 39 34 28 28 28 25 23 23 26 29 29 24 18 18 19 19 21 24 26 26 28 32 31 30 32 31 31
105 111 103 99 91 92 91 78 79 67 61 58 56 54 50 49 46 44 43 40 38 35 32 26 28 29 28 26 26 30 34 29 22 22 22 20 20 21 24 26 29 29 31 32 33 33 32

GFSGBSN_250_spd_060.txt.gz
Wind_Speed
77 83 88 88 96 103 103 100 98 96 95 91 86 79 77 75 71 67 64 58 49 46 44 41 43 54 64 73 78 82 89 98 102 111 116 117 119 122 126 125 121 114 108 107 107 97 96
79 86 90 91 97 105 106 105 102 97 98 91 86 82 80 77 75 71 65 54 45 40 38 38 37 44 56 74 84 82 88 97 100 108 115 118 119 121 126 129 125 119 115 112 107 98 97
82 87 92 95 101 104 109 107 105 99 98 95 88 82 81 79 78 73 67 51 42 35 32 32 32 38 51 68 83 80 87 93 98 104 112 117 121 120 122 128 128 125 122 115 106 102 102
83 88 93 96 103 105 110 108 107 101 99 96 90 85 81 80 78 74 67 53 46 39 31 25 25 30 47 57 75 83 85 88 95 103 107 114 118 120 121 126 130 128 124 119 110 108 108
83 89 92 97 104 106 110 112 111 104 101 97 91 88 84 84 82 78 71 59 53 45 32 21 22 26 38 53 68 85 85 85 91 100 106 110 115 116 120 122 128 130 127 121 115 110 110
85 90 93 100 103 106 109 113 114 109 104 98 92 89 84 84 82 79 73 65 57 44 32 21 16 24 36 48 59 75 81 81 86 94 102 105 107 112 114 118 124 126 124 121 117 115 111
85 91 95 102 101 103 109 114 115 112 106 98 94 89 86 84 81 79 75 68 59 45 29 18 9 17 28 38 51 66 83 84 89 92 95 98 100 102 107 113 117 126 128 126 125 120 116
85 91 96 102 100 107 106 110 116 115 108 100 96 93 89 85 82 81 78 71 61 44 28 15 3 13 24 34 47 62 84 90 87 86 87 91 96 101 106 111 113 120 126 128 128 121 117
85 91 93 100 103 105 107 108 112 114 109 104 97 96 92 89 85 82 79 74 63 45 31 20 5 9 18 29 42 57 69 79 89 87 88 86 90 96 98 103 109 112 121 127 125 120 120
83 89 90 98 105 106 104 103 108 111 109 104 98 95 94 91 88 83 78 75 63 46 34 22 14 6 10 22 36 49 61 72 79 77 74 82 85 90 92 95 101 106 114 125 123 123 123
83 88 91 98 100 104 104 103 103 107 106 103 98 94 92 89 86 82 78 73 63 48 35 25 19 10 10 12 20 40 47 53 63 63 65 68 76 81 87 89 95 101 108 119 120 126 127
85 89 90 95 100 106 103 100 99 103 104 101 98 95 92 88 84 79 76 72 65 54 38 25 18 15 10 16 22 28 39 53 61 66 70 67 69 75 79 83 86 91 102 112 122 124 125
84 88 89 90 99 103 101 97 96 100 104 101 97 93 92 88 83 77 72 69 64 54 38 27 18 15 9 10 23 32 37 40 48 54 58 63 65 70 75 78 79 85 92 104 114 121 121
82 87 88 90 95 103 101 95 95 95 99 97 95 92 90 86 81 77 71 66 63 56 43 30 24 15 11 8 11 22 30 35 39 46 53 58 61 65 69 71 72 76 86 95 105 112 118
83 87 87 89 93 98 97 92 94 93 96 94 91 89 86 84 79 74 70 66 61 56 44 33 25 20 14 8 6 7 17 29 35 42 47 50 54 58 61 62 65 69 76 85 94 106 115
83 87 85 87 90 94 92 88 91 91 92 91 90 87 83 80 75 71 65 60 58 54 45 34 26 20 19 15 8 3 7 10 19 28 34 40 44 48 51 53 55 60 67 75 84 93 106
84 86 81 84 84 91 90 92 92 89 87 89 88 85 82 77 72 68 63 56 51 48 43 33 26 21 16 14 9 9 11 12 15 20 24 28 32 35 39 42 46 52 57 64 72 81 92
85 84 82 85 86 91 87 92 89 91 86 88 85 83 79 75 70 65 60 55 48 42 39 30 19 16 12 7 7 7 10 15 17 18 21 24 26 28 31 34 40 47 52 57 62 68 77
86 85 85 83 85 87 90 92 89 90 84 84 81 80 76 73 67 62 59 53 46 40 34 30 22 11 7 6 1 6 10 13 17 20 22 24 24 25 27 30 33 38 45 50 55 62 67
83 84 87 82 80 88 87 93 92 90 82 80 82 81 79 72 65 60 56 52 46 40 34 29 24 16 8 3 3 2 5 11 15 17 20 22 23 24 27 29 31 34 36 40 46 52 59
81 82 86 84 80 85 91 90 98 93 87 79 78 78 77 73 64 58 54 50 46 39 34 27 22 14 11 7 4 1 5 7 11 17 20 22 23 24 25 27 31 31 33 36 40 45 50
85 88 88 83 82 83 89 97 101 93 87 80 77 75 74 73 63 57 53 48 44 40 33 27 22 18 11 6 4 3 3 7 12 15 20 23 25 27 28 28 28 30 33 37 38 42 47
88 91 87 82 82 84 91 98 103 92 86 78 78 77 71 69 64 56 52 48 42 39 34 29 22 17 14 11 8 5 4 5 6 10 16 18 22 26 28 28 30 32 36 35 36 39 43
92 92 87 83 85 87 90 97 97 89 89 78 74 74 69 65 64 55 51 47 41 38 32 29 26 18 15 11 13 11 9 8 8 8 11 15 18 21 25 28 32 35 35 37 39 39 42
96 93 88 84 84 87 95 101 98 90 87 79 72 72 65 61 60 52 48 45 41 35 32 28 26 23 18 16 14 16 15 14 12 12 13 13 17 20 21 26 29 31 34 36 38 41 43
94 94 92 89 89 89 95 97 95 94 86 77 75 71 64 58 53 49 47 44 40 34 32 28 26 24 21 19 18 18 20 20 19 16 17 17 17 20 23 24 25 30 29 31 36 38 42
96 96 95 92 94 95 97 96 95 89 85 79 75 70 64 55 51 47 47 45 40 34 31 28 26 25 23 22 22 22 22 25 23 22 20 20 22 21 22 25 27 26 26 27 29 36 38
99 98 97 96 97 96 95 94 91 91 87 83 76 70 62 53 48 46 44 44 41 35 30 28 28 28 26 24 24 25 26 26 25 26 23 23 24 24 24 26 29 28 27 29 30 31 32
101 102 100 101 100 97 96 95 93 99 91 84 78 67 61 53 49 46 43 43 41 37 31 28 28 28 28 28 27 27 28 28 29 28 27 25 25 23 24 27 28 30 31 30 29 29 29

GFSGBSN_250_spd_063.txt.gz
Wind_Speed
71 76 80 86 92 94 99 103 104 102 101 95 91 89 83 77 73 69 64 57 51 43 41 38 40 43 46 57 70 75 76 89 93 96 103 111 116 117 120 123 124 120 117 111 111 106 97
72 78 82 86 92 95 101 104 107 107 102 97 92 88 84 79 76 71 67 62 50 38 31 30 34 38 44 58 72 74 79 88 92 97 103 110 116 119 120 123 124 122 122 119 115 104 98
73 78 83 87 91 95 100 107 110 108 106 98 94 88 83 82 79 74 69 64 51 37 31 25 29 35 41 53 66 76 80 84 91 98 104 109 118 118 118 119 122 124 127 121 115 108 100
74 79 82 88 93 98 102 109 111 114 112 104 100 91 85 82 79 76 72 66 54 47 40 28 22 27 36 49 65 73 83 85 90 97 102 110 117 120 118 118 121 124 126 122 115 111 105
76 79 81 88 93 101 103 109 112 116 115 111 103 95 88 84 82 79 73 67 59 55 48 30 18 19 32 47 61 69 79 85 88 95 101 110 115 123 119 118 118 123 125 120 119 113 110
76 79 83 89 95 102 105 107 112 117 116 112 108 99 93 89 86 84 77 70 63 56 46 31 18 11 26 42 54 66 75 81 86 93 101 105 112 121 118 115 113 113 119 120 119 115 114
75 79 84 89 94 101 103 107 111 115 117 116 111 102 96 92 90 87 81 73 66 58 47 35 20 6 19 33 47 60 69 78 83 87 96 100 103 107 122 123 116 115 118 122 124 120 119
74 79 83 90 95 101 101 106 110 113 117 115 113 104 96 93 90 88 83 76 71 61 47 36 24 9 9 24 39 50 60 69 78 83 91 95 97 109 118 121 117 113 112 113 120 122 122
75 79 83 89 97 99 100 104 106 111 112 115 110 106 97 91 89 87 86 78 72 61 53 38 24 14 6 20 32 46 59 68 75 78 81 86 96 102 106 115 117 113 109 112 114 120 119
74 79 84 89 94 97 98 103 104 107 111 113 110 106 98 91 89 85 83 79 73 65 58 38 25 16 8 12 26 40 56 69 75 78 77 79 90 96 100 103 110 115 117 107 106 112 117
74 77 82 89 92 96 96 98 99 103 108 108 108 105 99 91 87 82 79 77 72 66 57 40 28 17 12 8 18 32 46 57 70 72 69 73 77 88 96 100 102 108 106 105 107 106 109
74 77 81 86 92 93 93 97 97 102 104 106 106 103 99 92 86 81 76 74 69 66 57 46 30 21 13 12 13 27 36 43 53 57 66 72 73 78 86 89 91 92 94 103 107 105 106
73 77 81 87 90 91 90 92 94 99 102 101 102 103 99 91 86 80 75 71 67 62 59 51 35 23 17 11 12 18 26 37 46 52 59 63 64 71 75 77 81 81 85 93 99 98 102
74 77 80 85 88 90 92 89 97 96 97 98 100 99 99 91 85 80 75 69 64 59 55 51 38 24 17 16 6 12 21 30 33 39 46 52 57 64 65 64 66 70 75 78 85 89 100
73 76 79 83 85 87 91 91 94 94 93 95 95 96 96 93 84 81 75 70 63 58 53 50 42 26 13 13 12 6 9 13 19 26 35 44 46 50 54 56 59 59 60 66 73 80 92
73 76 78 82 84 86 89 87 93 95 94 96 93 94 95 92 86 79 73 68 64 56 48 44 38 27 17 9 13 13 7 6 14 19 24 32 41 50 57 56 52 51 53 57 64 73 81
73 76 78 81 84 87 87 86 92 94 97 100 98 93 93 92 87 77 71 65 60 54 48 41 37 29 18 10 7 12 14 12 12 16 22 26 31 37 42 43 45 48 50 54 59 65 73
72 76 78 81 83 85 86 83 86 94 102 103 101 93 91 90 85 78 69 62 58 51 46 41 36 32 22 11 6 6 12 15 17 19 22 24 29 33 36 38 42 43 45 50 54 59 66
73 76 79 81 83 84 85 82 83 92 97 102 108 94 88 87 83 76 69 59 54 51 42 37 35 32 26 15 6 4 7 12 15 17 20 22 26 29 31 32 35 38 42 47 52 57 61
76 76 79 80 82 85 85 83 83 86 95 102 108 96 89 84 82 74 67 59 52 45 41 34 30 28 25 19 10 2 4 8 13 16 19 23 26 29 31 32 35 37 39 44 48 52 57
75 78 80 82 85 86 83 81 84 85 89 100 111 101 93 83 81 75 66 55 51 47 40 32 25 21 20 17 13 7 4 8 12 16 19 21 24 27 28 30 33 35 36 39 43 47 49
77 78 79 82 85 87 84 82 79 87 91 101 106 101 93 88 77 74 66 55 48 45 38 32 26 21 17 15 11 8 5 8 11 14 17 21 25 30 31 32 33 34 35 36 39 41 47
78 79 81 83 86 86 86 86 80 87 89 104 103 101 93 84 76 72 67 56 48 41 38 31 25 20 16 14 13 10 9 7 9 12 16 17 19 24 27 30 33 35 35 35 38 40 41
79 81 83 86 87 88 87 85 83 86 93 101 103 100 95 85 78 71 65 56 48 43 37 31 26 19 15 14 14 12 11 10 8 9 12 16 19 21 24 26 28 32 34 36 39 39 41
80 85 85 88 89 90 91 87 86 89 91 98 101 105 94 83 75 70 63 56 48 44 39 31 25 21 16 14 15 14 15 15 15 14 12 13 17 22 24 24 29 32 34 37 38 39 41
84 87 88 90 93 93 95 90 89 89 90 97 98 97 91 83 75 67 59 53 46 43 39 32 26 22 20 17 15 17 17 19 19 17 16 16 17 17 21 24 28 29 30 32 34 37 40
87 89 93 92 94 96 97 91 92 91 94 93 101 103 95 82 74 64 55 50 44 42 38 33 28 25 21 20 19 18 18 19 21 20 20 20 19 20 20 22 27 25 28 31 33 36 38
91 92 96 95 96 98 96 94 95 94 98 92 104 103 94 82 72 65 56 47 42 40 38 33 29 27 24 22 21 22 20 21 22 23 24 24 22 22 24 24 23 24 27 28 29 30 32
95 96 98 98 100 102 101 99 97 96 94 103 106 105 95 78 68 62 54 47 40 38 38 33 29 28 26 26 24 24 23 24 23 25 26 28 26 24 25 26 27 25 26 28 28 29 30

GFSGBSN_250_spd_066.txt.gz
Wind_Speed
67 72 75 78 82 87 90 93 100 102 101 100 101 97 90 74 67 65 62 59 56 46 33 36 41 42 45 53 67 73 74 77 83 84 85 92 98 106 109 112 113 115 115 114 117 111 107
67 71 75 78 83 89 95 96 102 105 103 104 104 103 95 83 70 66 66 62 59 48 32 24 29 36 41 54 60 70 73 78 82 84 85 92 99 104 109 113 112 116 118 121 119 113 110
69 71 75 77 82 88 97 96 103 109 107 106 108 108 101 90 76 70 67 64 61 52 39 28 19 27 35 48 61 70 73 80 82 84 86 92 99 104 109 113 116 119 124 123 120 117 113
70 72 75 78 81 87 95 100 103 109 111 108 112 111 105 96 82 75 71 67 63 54 42 34 21 19 29 41 57 66 72 81 83 83 87 92 98 103 110 112 118 120 125 124 124 119 119
70 73 76 79 81 86 92 100 105 109 112 113 116 112 107 99 88 79 75 72 66 59 43 36 23 11 21 35 52 62 69 78 83 80 86 92 97 101 106 112 118 121 123 123 126 122 119
70 73 77 79 83 86 93 98 105 108 113 113 114 114 108 100 92 83 78 74 70 62 47 41 29 13 13 26 45 57 65 73 79 79 86 93 96 98 102 109 113 114 119 122 124 123 119
69 73 77 78 83 87 93 97 105 107 111 115 113 112 107 100 94 87 80 77 71 65 51 43 33 18 6 20 35 52 60 68 76 80 83 93 91 90 97 107 114 117 120 121 123 123 122
69 73 77 78 82 87 90 97 102 107 111 113 113 111 107 102 95 90 83 79 73 68 57 47 36 22 7 14 28 43 54 62 70 78 83 84 85 93 98 106 114 116 119 118 123 124 122
68 73 77 78 82 85 88 94 100 104 108 112 112 111 106 101 95 92 85 81 76 68 62 49 34 24 13 2 20 34 47 53 64 76 84 71 83 88 95 101 111 116 119 119 121 121 118
68 73 77 78 79 85 86 91 96 100 104 110 112 110 102 101 95 91 83 80 76 68 61 51 37 27 15 8 8 24 39 47 56 71 76 73 81 86 93 99 108 115 116 114 114 114 116
69 71 76 79 79 83 85 90 95 95 101 104 109 107 102 100 96 91 84 78 73 68 60 52 42 31 18 11 4 15 32 39 51 62 69 70 76 82 88 97 102 115 111 111 111 112 111
70 71 73 78 79 81 83 89 93 92 96 100 105 108 102 99 95 90 84 76 72 68 60 54 46 35 22 14 7 10 24 36 48 56 62 69 73 79 84 90 97 108 114 113 109 104 103
69 71 72 78 78 80 82 88 91 92 92 96 101 105 101 98 98 91 85 76 71 66 60 53 46 39 25 16 11 6 14 20 39 45 54 60 68 72 78 84 88 94 109 111 101 94 93
70 71 71 75 78 79 81 86 88 90 91 96 99 102 101 96 95 92 85 79 71 63 59 50 46 39 29 15 11 7 7 12 25 36 48 45 53 62 68 75 84 89 93 98 93 97 105
69 70 69 73 76 78 80 85 86 87 85 95 100 101 100 94 91 91 84 77 70 63 57 50 42 38 30 17 8 8 9 8 15 17 17 30 51 58 63 67 71 76 82 82 82 91 104
69 69 68 71 74 78 80 86 86 89 87 93 99 100 100 93 88 87 84 76 70 62 54 49 42 36 29 22 5 11 13 15 19 25 25 28 35 46 53 58 61 65 67 67 73 83 98
66 68 67 70 73 76 79 84 85 89 86 89 98 101 104 97 92 84 84 77 68 61 52 45 39 33 28 21 14 5 16 21 24 28 29 31 34 38 43 48 54 55 55 54 58 67 83
65 67 67 70 72 74 78 82 84 87 87 85 94 99 103 101 93 83 81 78 68 61 52 41 36 31 26 20 16 10 4 17 22 24 27 30 31 33 40 46 51 53 55 51 56 61 64
65 66 67 70 71 74 77 80 84 84 87 88 91 96 101 101 101 82 80 72 66 60 52 43 34 27 23 19 12 7 3 5 14 19 20 24 25 29 35 38 40 42 50 55 55 55 59
65 66 65 69 71 74 77 79 83 84 86 86 94 95 99 99 103 86 80 70 63 56 52 44 34 27 20 15 13 9 2 5 10 16 18 21 22 25 27 32 36 41 45 49 51 52 54
67 64 63 67 71 74 76 79 81 82 84 87 91 93 96 96 100 92 80 73 62 54 48 43 34 26 21 14 11 8 7 6 9 13 17 21 24 27 28 31 35 37 41 44 47 49 49
68 63 62 65 69 74 75 78 82 81 85 90 90 88 97 100 94 95 81 72 62 52 44 40 34 25 22 16 12 8 7 7 10 13 16 20 24 26 28 32 34 37 39 40 42 44 48
67 63 63 65 69 74 75 79 82 83 85 89 89 90 93 101 94 93 85 74 63 52 43 36 32 24 22 17 14 10 8 7 8 12 15 18 21 26 29 32 35 36 39 41 41 42 41
66 63 64 66 70 74 76 80 82 84 87 91 90 88 94 96 94 94 82 74 66 52 40 35 29 23 20 16 15 13 10 10 10 9 13 18 22 24 27 31 33 37 38 38 40 39 40
65 64 65 68 72 75 77 80 82 85 88 90 91 86 90 98 97 93 79 71 62 52 42 36 28 24 21 19 17 14 13 12 12 13 14 13 15 20 26 29 35 38 38 39 39 41 44
65 66 67 69 76 77 80 82 86 88 91 92 93 86 89 97 100 95 77 71 63 48 40 35 32 24 21 22 20 18 16 16 16 16 17 17 16 16 19 25 31 33 35 37 40 42 44
66 68 70 73 78 81 84 86 88 90 94 96 93 91 92 98 101 89 75 71 61 50 39 35 32 26 21 20 22 22 20 19 20 19 20 21 21 19 20 21 24 27 30 34 37 39 41
68 72 74 77 80 83 86 89 92 93 95 95 95 90 93 98 91 87 78 72 66 49 40 35 32 28 22 21 22 23 23 22 23 24 25 25 25 24 23 21 23 23 25 30 32 35 37
74 76 78 81 84 87 88 91 95 96 99 97 97 91 94 89 90 86 81 72 64 48 38 34 31 29 26 23 24 24 24 25 26 25 26 27 26 26 26 24 22 23 27 27 30 32 34

GFSGBSN_250_spd_069.txt.gz
Wind_Speed
66 67 69 74 77 81 86 89 92 95 101 103 101 101 100 97 89 78 63 60 58 52 48 37 31 39 41 48 59 67 71 73 76 79 81 84 85 92 98 104 110 112 111 110 117 114 108
66 70 71 74 77 81 85 90 91 94 100 104 104 104 104 100 94 81 68 63 60 58 49 40 31 30 38 46 52 63 68 73 79 81 79 83 83 90 96 104 110 116 111 112 110 115 109
66 70 73 74 78 82 85 91 91 96 98 106 107 107 106 102 98 89 75 64 63 58 56 41 32 27 30 41 50 62 65 75 79 81 80 82 84 87 93 102 111 114 114 111 109 115 111
67 69 75 75 78 80 83 89 93 97 97 106 109 110 110 107 102 95 84 71 65 60 56 40 30 24 22 33 49 61 62 72 80 82 81 83 85 86 91 100 109 114 114 112 111 115 115
66 69 74 77 78 82 84 88 92 96 102 104 110 111 112 109 107 100 89 77 70 66 61 42 32 25 19 26 43 54 59 67 78 81 81 82 83 84 88 97 106 112 110 109 114 114 116
65 69 74 77 79 83 84 88 93 96 102 105 110 111 110 111 108 102 94 81 74 69 63 48 37 29 19 18 34 46 53 64 73 79 81 80 81 82 83 92 94 101 106 109 114 113 115
63 68 74 78 79 82 84 85 91 95 101 107 108 110 111 109 107 103 98 87 76 71 65 55 43 32 19 9 26 36 44 53 67 73 78 77 78 74 74 86 95 103 109 112 113 115 115
62 69 72 77 80 82 84 85 88 93 99 105 106 109 110 108 105 102 98 88 78 72 66 61 44 34 23 7 13 25 37 46 57 68 77 75 72 80 81 87 95 101 107 109 115 119 116
60 69 72 75 79 82 83 84 87 91 98 104 108 107 108 108 104 99 94 87 80 72 68 64 47 37 23 13 1 15 31 38 49 62 70 71 73 77 79 82 92 100 106 111 115 116 116
58 66 71 73 78 80 83 83 85 89 95 102 104 108 107 105 102 96 91 91 82 72 67 62 52 38 27 14 6 5 19 32 44 55 65 70 73 73 76 80 90 97 104 108 113 116 116
57 65 70 73 77 77 81 82 83 87 93 97 101 107 107 106 101 98 92 90 82 74 67 61 55 41 32 16 11 7 13 24 35 52 61 67 70 71 74 79 85 94 100 107 110 115 117
57 63 68 72 76 75 80 81 81 85 89 95 100 106 106 107 104 101 94 88 79 73 66 62 56 43 33 19 15 10 12 25 38 48 56 62 64 66 70 76 82 89 95 103 109 114 112
56 62 65 70 74 75 76 79 79 83 87 92 98 103 103 103 106 102 98 86 76 70 66 62 55 48 36 24 14 15 10 17 25 36 46 47 52 60 66 71 78 84 90 97 104 112 111
54 60 64 70 72 74 75 76 77 81 85 91 94 99 102 97 100 103 99 89 76 67 63 59 55 49 38 29 14 15 10 4 19 32 34 30 39 54 61 66 71 80 85 90 97 105 112
53 58 61 68 70 73 75 75 75 80 84 89 90 95 101 101 93 99 97 93 75 64 60 55 52 47 41 31 17 9 11 7 5 20 21 27 41 52 58 63 67 74 79 85 90 95 97
51 57 57 65 68 71 75 74 73 78 81 86 88 92 97 98 97 90 94 92 79 65 57 52 47 42 38 30 22 11 7 10 8 11 11 13 25 38 52 59 60 63 72 76 82 87 87
52 55 55 62 65 68 72 72 72 76 80 84 86 90 94 98 97 91 94 95 81 68 54 49 43 39 32 27 22 15 8 8 15 17 18 16 22 26 36 44 53 59 61 68 74 76 85
53 54 55 61 62 67 70 71 71 75 78 82 84 91 97 98 100 90 95 94 83 71 54 45 40 34 30 25 17 13 11 7 12 18 21 23 24 27 31 45 53 57 59 58 60 67 78
53 52 55 61 61 65 68 68 69 73 76 81 82 88 93 95 96 93 88 89 83 71 56 43 34 32 27 24 18 12 7 7 9 15 20 24 28 35 38 43 46 52 57 58 60 65 65
53 53 54 60 59 63 66 67 67 71 74 78 80 86 91 93 93 91 82 87 84 70 59 44 33 25 25 21 18 13 8 6 7 13 19 22 27 31 36 41 48 53 59 62 61 58 65
53 55 56 59 60 61 64 65 66 70 74 78 81 83 88 90 92 96 90 83 88 75 62 47 35 23 20 18 16 14 10 8 8 9 14 18 24 27 31 36 42 47 48 51 55 60 56
54 56 59 60 60 62 62 63 67 70 73 78 79 84 89 88 94 98 98 78 80 75 63 49 35 27 22 16 12 13 12 9 8 11 12 14 18 24 29 32 35 39 42 44 47 49 49
55 57 61 61 61 62 62 62 66 68 74 78 81 84 88 90 92 102 100 75 77 73 63 49 38 27 22 18 15 11 12 12 10 10 13 15 17 20 22 26 30 34 38 41 42 44 45
57 59 62 60 61 61 60 62 66 70 74 77 82 86 89 92 92 100 104 89 75 73 63 50 38 30 22 20 18 15 13 13 12 12 11 14 17 20 22 24 28 31 33 37 39 40 43
60 61 62 60 59 59 59 61 67 72 75 77 82 86 89 91 94 100 104 94 79 71 63 49 36 28 23 19 19 18 16 17 16 15 15 14 14 17 22 24 29 31 33 36 38 40 42
61 60 63 58 57 56 60 61 67 73 77 80 83 87 89 91 93 97 102 91 82 72 60 48 37 25 22 20 19 19 19 19 22 20 20 20 19 18 18 22 28 30 31 33 35 37 41
63 61 63 58 57 56 59 63 69 74 78 81 84 87 91 90 94 94 101 93 82 77 60 49 38 28 22 20 21 21 21 22 25 24 23 24 25 24 22 21 22 25 29 34 37 38 40
64 64 61 57 55 58 62 66 70 75 79 83 86 88 90 90 93 90 100 101 87 80 64 51 40 31 27 22 22 20 22 23 24 25 27 27 27 26 28 27 24 25 25 28 34 40 41
63 61 61 58 58 62 64 68 72 75 80 83 87 89 90 89 88 82 96 99 86 75 67 49 41 34 30 25 24 23 21 23 25 27 28 28 28 28 29 29 29 28 27 27 28 31 37

GFSGBSN_250_spd_072.txt.gz
Wind_Speed
60 65 67 70 74 77 81 81 83 85 89 91 94 98 99 101 101 93 85 83 70 62 56 50 39 32 33 37 39 49 61 70 74 76 78 85 91 95 101 102 99 98 95 99 104 105 107
59 64 68 72 74 76 81 80 86 89 91 95 96 96 98 102 104 98 87 84 74 62 56 51 44 33 30 35 38 43 55 68 73 76 79 82 87 95 98 103 103 99 99 102 105 105 104
58 62 68 72 75 77 80 82 86 87 88 96 100 101 102 102 107 103 94 84 77 63 57 53 43 32 27 29 36 39 50 61 70 74 78 80 86 91 96 101 103 102 102 104 101 105 106
58 61 67 69 76 78 81 83 87 88 90 94 100 105 104 107 107 105 97 91 80 67 59 53 43 32 24 21 26 36 46 57 66 75 78 81 83 88 91 95 97 102 104 106 104 107 109
58 61 66 68 74 78 81 83 87 88 89 94 99 104 108 109 110 105 101 95 86 71 62 56 46 35 27 22 18 29 40 52 60 70 75 79 82 84 87 90 92 94 97 100 104 108 109
57 60 63 67 72 74 80 83 85 89 89 92 97 103 107 109 111 107 100 98 87 75 65 59 51 40 30 23 12 20 35 47 55 65 72 77 80 79 84 83 80 84 92 99 105 107 109
56 58 63 67 71 73 78 83 86 87 89 90 96 101 107 110 112 107 102 100 89 75 67 62 56 43 32 23 11 13 28 39 49 58 66 73 76 70 75 81 81 87 95 102 104 107 110
56 57 61 65 70 73 76 82 84 86 87 90 95 100 106 108 108 108 103 101 94 76 68 62 57 47 33 25 10 2 16 29 38 49 64 69 71 73 76 81 81 84 93 99 104 110 108
54 54 60 65 68 71 75 80 81 85 88 88 94 99 105 109 108 104 103 103 100 83 69 62 57 50 37 24 11 2 12 20 34 47 59 63 71 68 72 74 77 83 90 98 103 106 109
55 57 58 65 67 71 73 78 81 84 87 87 90 97 104 111 110 102 101 102 102 90 72 61 57 52 39 26 10 8 6 20 28 41 57 60 65 65 71 72 73 79 88 95 100 104 106
52 55 57 63 67 68 72 77 81 82 85 85 88 93 103 109 113 104 99 102 102 96 77 65 56 52 41 28 13 11 13 19 27 36 50 53 57 62 67 71 73 75 83 90 96 101 106
52 56 56 61 65 64 70 75 79 81 84 83 86 91 98 105 107 110 99 103 101 98 81 66 57 52 45 33 18 10 16 18 26 37 45 50 55 63 65 71 70 74 77 82 89 98 102
50 55 55 57 62 62 66 73 77 79 82 81 82 88 95 102 104 107 101 94 101 96 85 69 57 50 45 36 23 15 11 19 23 31 39 45 50 56 61 65 67 68 71 77 84 91 97
49 54 53 56 59 60 63 70 74 77 79 78 79 84 92 97 102 105 103 99 100 99 91 75 59 50 44 39 27 12 14 11 16 24 33 38 41 48 54 60 64 66 69 72 80 86 94
53 55 53 54 58 59 60 66 72 74 76 77 77 80 87 93 99 106 110 99 96 99 93 75 60 51 44 38 29 14 12 15 14 14 21 26 28 38 51 57 62 63 66 70 76 83 89
52 54 54 55 57 56 58 63 68 73 74 76 77 80 85 92 96 102 106 101 95 96 90 78 60 49 41 37 32 20 10 10 12 13 10 14 21 28 42 51 54 59 65 67 71 78 82
54 57 55 53 54 55 55 61 65 71 73 75 75 77 82 89 93 98 107 108 94 95 89 76 58 44 39 32 28 22 14 1 8 14 15 15 19 22 29 39 50 55 59 62 68 74 78
54 56 54 50 51 53 54 59 64 68 71 73 73 75 80 85 91 95 102 105 93 93 86 73 59 45 33 30 27 22 13 7 3 13 18 21 23 20 27 39 49 54 57 59 62 67 75
52 56 53 51 49 52 54 58 62 65 70 71 72 73 76 81 89 94 99 104 96 91 86 73 56 46 34 26 22 19 15 8 4 5 15 23 25 28 33 35 37 42 48 53 57 63 68
52 54 52 51 50 51 54 57 61 64 69 70 71 73 76 81 87 93 97 103 96 97 87 76 57 43 34 26 21 18 14 9 6 6 7 12 23 29 37 41 45 48 55 59 64 63 63
52 53 52 50 50 50 55 57 59 61 66 67 69 70 74 80 86 91 95 104 102 95 89 73 62 43 33 26 21 17 16 11 7 6 8 11 15 22 29 36 43 49 55 63 63 63 60
52 52 52 52 50 51 54 56 57 59 65 66 66 69 72 77 83 89 93 98 101 91 88 78 60 50 33 25 22 21 17 13 9 7 9 11 13 16 22 27 33 39 46 52 56 58 60
51 50 51 53 51 51 53 57 55 60 63 63 63 66 71 76 81 84 87 92 99 98 84 75 63 54 39 25 20 21 19 17 13 9 9 11 13 15 18 20 25 31 36 41 48 52 55
50 51 51 53 52 53 54 56 55 59 59 60 62 66 72 77 80 83 85 90 94 93 87 82 67 56 42 30 21 19 20 20 18 15 13 12 14 16 17 19 24 26 28 32 37 42 45
49 49 50 51 53 54 54 55 55 58 58 58 62 66 70 76 79 83 86 88 94 96 93 79 69 53 43 33 26 19 20 20 21 20 18 15 16 16 19 20 25 25 26 29 34 36 39
48 48 50 51 51 55 52 53 54 55 54 57 61 65 71 75 79 83 83 88 94 96 95 85 73 60 44 35 28 24 22 23 25 24 22 21 20 21 20 20 24 25 25 27 30 30 35
47 48 50 51 54 51 52 52 53 53 54 59 61 66 71 74 78 81 83 85 91 95 95 86 80 67 57 38 27 26 24 25 27 27 26 26 24 25 24 25 25 22 24 27 29 33 34
50 50 50 52 51 52 52 49 49 52 56 61 62 68 72 76 80 81 85 90 91 94 92 84 77 61 57 45 33 24 25 26 28 29 29 30 29 28 29 29 27 28 26 25 27 32 34
49 48 51 53 51 53 53 51 49 53 57 61 63 68 73 76 80 82 86 90 91 92 94 82 74 61 53 49 40 30 25 25 26 30 31 33 33 32 32 32 32 31 31 29 29 30 31

GFSGBSN_250_spd_075.txt.gz
Wind_Speed
58 61 65 68 72 74 75 78 82 85 88 89 86 90 92 97 94 94 97 94 90 72 63 55 50 44 38 29 30 37 53 66 74 79 85 90 89 89 95 97 98 97 96 98 99 102 102
60 61 64 67 71 73 73 78 82 85 88 88 90 91 93 99 97 94 96 96 90 75 62 55 52 46 37 30 25 30 43 59 69 74 80 86 87 88 93 98 99 99 100 98 96 100 104
61 60 63 66 68 73 74 77 82 85 88 91 91 88 92 98 102 100 99 97 91 77 65 56 53 46 34 27 23 27 35 49 62 71 76 83 86 87 90 97 101 100 101 100 97 99 103
62 60 62 66 67 73 74 78 82 86 88 91 91 89 91 95 105 102 100 101 94 82 70 61 54 48 34 23 20 24 32 45 56 67 76 80 86 88 89 91 97 100 101 98 99 99 99
61 60 60 64 65 72 73 77 81 84 87 90 92 90 91 97 102 104 99 98 95 85 76 65 59 51 37 25 18 19 29 43 51 61 74 78 84 87 86 87 92 96 96 95 99 98 96
62 60 58 62 65 69 72 75 79 82 86 89 90 90 92 95 100 106 104 95 95 85 78 68 63 54 40 28 19 14 25 38 51 58 70 76 79 82 82 81 81 87 93 96 100 101 97
60 60 58 60 64 65 72 75 79 82 84 88 91 91 91 95 98 104 107 95 95 87 78 71 64 56 42 32 23 9 21 32 47 52 59 71 75 72 77 79 81 89 95 100 104 104 104
58 59 59 59 60 63 69 72 76 80 82 85 89 90 87 93 100 104 106 102 94 88 78 72 64 57 44 35 28 8 11 24 41 46 55 63 68 74 77 79 82 85 91 96 105 104 106
58 58 58 58 61 62 66 71 75 77 80 83 88 89 88 91 98 108 109 99 94 91 84 73 62 57 48 38 29 8 12 21 34 40 49 54 64 67 72 74 76 83 88 92 99 106 105
57 57 58 57 60 61 64 68 73 75 78 82 87 86 88 89 97 101 107 98 93 91 86 72 63 56 50 40 28 6 13 24 30 37 45 55 59 66 68 73 74 79 85 87 90 97 102
57 56 58 57 57 60 62 66 71 74 76 79 83 84 85 87 94 103 104 103 95 91 91 73 62 56 49 39 29 8 12 23 33 37 39 46 54 62 63 69 72 76 79 81 82 88 94
56 54 56 56 55 60 62 64 68 71 75 77 80 82 84 86 92 100 105 104 95 91 91 82 62 54 49 41 30 13 8 19 27 31 36 42 49 54 64 66 70 73 74 74 74 80 84
54 54 55 55 55 59 60 62 65 68 71 74 79 79 84 83 89 95 102 106 94 93 93 85 66 52 48 41 31 20 5 10 22 28 30 38 43 52 58 62 66 68 68 68 70 73 79
53 52 56 54 54 56 60 60 63 65 69 72 77 79 80 77 85 93 100 105 93 91 92 88 76 54 44 40 32 24 12 3 12 22 26 32 38 45 53 56 59 63 64 62 62 67 75
50 53 55 53 51 52 57 57 60 64 67 70 75 75 78 77 81 88 95 99 103 90 93 90 78 61 45 38 33 25 14 10 7 11 15 21 31 35 41 50 54 58 61 61 62 66 72
49 52 54 51 51 52 53 54 58 62 65 68 74 73 76 76 77 84 88 95 98 91 90 91 81 69 51 39 32 26 16 8 9 10 12 14 23 31 37 45 51 54 60 60 62 64 67
49 51 51 52 51 49 51 53 56 60 63 67 70 71 74 73 74 79 85 91 101 102 84 89 82 75 59 41 32 25 17 9 6 11 14 14 14 19 27 37 47 53 54 57 61 62 64
50 51 50 51 51 50 50 52 54 59 62 64 69 69 71 71 72 76 83 87 96 104 99 90 84 80 65 46 32 25 19 12 2 9 15 17 19 22 29 34 40 46 49 53 56 59 62
51 51 52 52 50 49 49 51 53 57 60 61 67 65 68 69 71 73 79 85 92 98 104 87 84 80 67 50 37 25 17 14 7 5 14 20 24 26 29 33 38 43 50 53 56 60 61
51 52 52 50 48 49 50 50 52 56 56 60 65 63 66 67 68 70 77 81 91 96 101 98 83 77 72 58 41 28 22 12 10 5 8 17 25 29 34 38 42 46 53 55 58 57 62
51 50 50 53 48 47 47 50 52 56 55 59 62 60 64 64 67 69 76 81 87 93 101 95 83 74 74 69 50 34 26 18 12 9 8 10 17 28 32 35 42 47 53 58 58 62 61
49 51 49 51 47 46 48 49 54 52 54 56 59 57 60 61 65 67 74 79 85 90 98 98 88 83 77 70 61 39 30 24 15 12 11 12 13 16 21 27 31 43 50 55 60 65 64
48 44 45 47 45 45 46 49 52 50 53 53 57 56 57 59 64 66 71 76 81 88 94 98 96 85 79 72 59 43 33 27 22 18 15 14 16 17 19 19 23 32 34 43 50 55 57
43 41 43 44 44 43 45 48 49 49 49 52 54 54 52 58 62 66 71 77 82 87 91 94 95 88 77 67 64 48 32 27 25 21 20 18 18 18 18 19 23 24 25 30 35 40 45
41 41 41 41 41 43 44 45 48 46 49 52 52 52 50 58 60 65 70 75 81 86 92 92 95 90 85 73 66 53 40 27 25 24 22 21 21 21 21 21 24 24 24 25 26 25 29
43 41 42 40 40 44 43 45 46 45 49 51 53 51 50 56 59 65 69 74 79 84 90 90 94 87 71 67 60 54 43 34 27 25 22 23 23 24 24 24 25 22 23 25 25 25 28
45 43 42 41 40 41 43 45 44 46 49 51 51 48 50 54 59 63 69 73 78 83 89 93 91 80 67 60 53 52 45 38 32 26 25 25 26 26 26 26 28 24 23 24 26 29 30
43 42 41 42 41 42 44 45 45 46 49 51 48 49 52 54 59 63 68 73 78 82 88 91 90 83 65 55 58 54 42 42 36 30 26 26 28 27 28 31 31 28 28 26 25 27 29
41 42 42 42 41 42 43 43 46 47 48 46 48 49 54 56 60 62 67 73 78 83 87 92 91 94 76 61 57 53 43 37 35 33 29 28 27 29 28 32 34 33 32 32 32 31 30

GFSGBSN_250_spd_078.txt.gz
Wind_Speed
54 57 60 64 68 71 71 72 76 79 82 85 88 92 90 89 86 85 86 87 94 96 87 69 52 44 39 33 28 30 40 54 65 73 80 84 86 88 91 93 92 90 91 93 102 103 102
53 56 60 62 66 70 70 71 77 78 81 85 88 92 92 91 90 88 91 90 97 97 90 76 53 43 39 33 25 26 37 49 63 73 78 83 86 87 89 93 95 92 91 94 99 105 102
53 54 59 62 63 68 68 71 75 77 80 85 88 91 92 93 95 90 92 92 95 98 95 80 52 41 39 33 23 22 32 42 57 70 76 82 84 87 89 94 95 94 94 96 97 103 105
53 53 56 61 63 65 66 69 73 77 79 84 88 90 91 92 94 93 92 94 96 98 91 77 54 43 41 33 21 17 26 38 49 62 73 79 84 88 90 89 95 97 97 97 96 99 104
52 55 55 58 62 63 65 68 71 75 78 83 88 90 90 91 91 93 94 94 95 98 88 73 57 48 43 32 19 13 22 36 46 55 70 79 80 83 87 90 94 96 95 94 95 97 99
52 52 55 57 60 62 63 67 70 74 77 81 86 88 88 90 93 94 97 94 95 98 88 78 59 50 45 33 20 12 16 31 47 52 69 79 81 79 86 88 86 90 92 92 95 97 96
53 52 55 57 58 60 61 66 67 72 75 78 82 86 88 90 90 92 95 97 94 95 87 78 62 50 46 36 23 14 9 24 43 48 66 75 76 79 83 87 88 87 94 96 97 99 101
52 52 55 57 58 59 59 64 65 70 74 77 81 85 87 88 90 92 95 97 98 94 89 81 66 53 49 39 29 17 7 20 38 42 59 70 75 75 81 84 85 86 90 95 99 100 101
53 54 57 57 57 59 58 61 63 69 72 74 78 82 85 85 89 90 96 97 96 89 89 79 69 55 50 42 33 22 8 19 29 43 55 65 68 73 77 80 82 84 86 91 97 99 99
54 56 58 58 57 60 58 59 61 66 68 73 75 79 82 84 84 86 94 100 96 84 87 83 71 58 50 45 36 26 8 16 28 46 56 63 69 70 71 76 79 81 84 88 91 93 97
53 56 58 59 58 56 57 57 59 63 67 70 73 76 79 81 81 84 91 98 99 94 87 84 74 59 49 46 38 29 14 15 32 45 52 58 62 67 70 72 74 74 79 83 86 86 88
58 60 58 58 56 56 56 56 57 61 66 67 71 74 76 79 80 81 89 96 98 92 90 83 77 63 50 46 39 30 19 2 30 42 49 54 60 62 65 67 68 74 76 78 79 81 82
60 60 57 59 54 53 54 54 56 57 64 64 70 71 74 77 77 77 85 91 96 95 87 84 77 68 54 45 39 30 20 6 21 33 41 44 48 56 62 66 70 71 73 73 74 76 76
59 57 55 56 53 50 52 52 53 56 61 63 68 68 71 75 74 76 81 89 94 94 89 83 75 70 60 46 40 31 21 12 8 25 33 37 46 51 55 60 65 68 69 68 68 70 74
58 55 52 55 52 49 50 49 53 55 59 61 65 66 68 72 72 71 78 84 89 97 89 81 78 71 65 51 41 33 23 14 7 14 23 27 35 43 50 57 59 60 63 64 65 69 74
58 56 54 54 51 47 48 47 50 54 58 58 62 63 64 68 69 67 73 78 85 91 93 80 77 73 71 58 41 33 25 16 8 11 20 27 34 39 44 49 54 56 60 64 66 68 69
57 56 57 54 49 47 45 46 48 53 55 56 59 60 61 66 66 65 71 74 82 89 93 85 74 74 67 65 46 32 26 19 10 5 12 18 27 35 38 43 49 54 56 59 63 64 65
53 55 55 53 49 46 43 43 50 51 53 54 56 58 58 62 62 61 66 71 77 86 94 93 77 76 71 64 55 35 27 20 13 5 6 18 25 26 32 39 44 49 54 57 59 61 64
52 54 52 52 47 45 44 45 47 51 52 53 52 53 56 59 61 59 64 68 73 82 88 93 86 74 70 67 61 45 27 19 15 10 7 11 23 29 34 38 41 46 51 55 58 61 61
51 52 52 52 47 45 45 46 47 50 50 52 50 50 53 56 57 56 61 63 72 78 85 90 92 82 75 69 60 54 40 24 16 11 10 12 16 27 33 38 41 46 51 54 54 54 60
48 52 51 50 45 46 44 45 47 47 48 47 47 47 49 53 56 54 60 63 68 73 81 86 89 89 80 73 66 54 46 34 20 12 11 12 15 21 28 36 40 46 50 55 57 62 59
45 47 48 46 44 42 43 46 47 43 45 43 45 45 47 49 53 53 57 60 65 72 78 82 89 94 89 78 68 67 48 36 27 18 13 13 15 20 25 31 37 43 46 52 55 59 59
41 44 46 44 39 39 42 43 41 40 41 39 44 44 45 46 52 50 55 59 64 69 74 82 85 90 90 82 72 65 56 38 30 23 17 14 15 18 23 27 32 38 41 43 50 55 59
35 42 45 42 42 39 41 41 37 38 38 38 43 44 44 44 49 48 53 56 62 67 73 78 83 84 83 81 78 69 60 46 35 27 22 17 17 17 19 24 28 31 31 36 39 44 48
33 36 38 40 39 38 39 36 34 36 35 38 42 43 42 45 46 46 52 56 61 66 71 76 83 83 87 87 82 78 62 52 41 31 24 21 20 21 21 21 25 24 27 29 31 32 37
33 35 36 35 35 35 38 36 34 34 34 37 41 42 42 41 45 46 51 54 59 64 68 74 79 83 84 90 82 73 64 52 42 33 28 24 23 23 23 24 25 24 24 27 29 31 35
30 35 36 35 35 35 36 36 36 34 35 39 40 41 42 42 43 46 51 54 59 64 68 70 77 81 84 88 85 74 62 55 47 38 30 26 27 28 26 27 29 25 26 26 28 32 32
28 32 37 36 35 35 37 36 36 36 38 40 40 39 39 40 43 47 53 55 59 64 69 73 78 83 85 88 88 79 66 53 51 46 35 28 26 28 29 30 32 29 30 30 30 32 32
26 28 34 37 38 37 36 36 34 37 40 40 40 37 38 40 43 48 53 56 59 64 67 75 77 79 84 89 85 84 72 58 51 52 45 38 30 28 30 32 34 35 33 34 34 33 33

GFSGBSN_250_spd_081.txt.gz
Wind_Speed
61 60 61 57 58 57 60 63 66 69 73 75 79 82 86 87 88 93 89 80 83 87 90 91 89 73 51 40 34 33 38 43 53 64 70 74 77 79 81 85 95 96 94 98 100 97 98
61 58 60 56 57 59 57 62 66 69 72 74 78 80 85 87 89 95 92 82 82 86 89 90 92 72 51 41 35 31 33 40 52 62 68 73 78 81 84 87 93 96 98 98 94 96 97
65 56 57 54 57 58 57 61 65 68 71 73 77 79 83 87 91 94 93 83 83 88 91 96 89 68 50 42 35 28 28 36 45 52 63 73 79 80 83 86 92 98 97 95 94 96 96
63 57 55 52 55 56 57 59 63 67 70 73 76 77 81 87 90 94 94 88 84 89 94 95 85 68 50 41 33 25 25 30 39 49 65 73 76 77 81 84 88 95 98 98 94 94 95
61 54 52 53 53 55 56 58 61 65 69 73 75 77 82 84 90 94 94 90 84 90 96 97 86 68 50 41 31 23 23 27 34 48 59 68 77 81 81 83 87 94 96 96 95 95 94
60 52 50 53 52 54 57 59 61 64 68 71 74 76 81 85 88 93 94 91 87 88 96 95 84 70 51 41 29 20 17 23 35 43 54 67 76 76 80 86 84 85 90 93 94 95 92
58 48 50 51 52 54 57 60 62 63 67 70 72 75 79 84 87 92 92 90 88 86 93 93 85 70 49 41 28 15 11 18 31 44 50 60 67 72 77 79 83 85 92 94 94 91 89
54 46 50 51 54 54 57 60 61 63 65 70 71 73 78 83 83 88 89 90 90 89 90 94 83 66 49 40 28 16 12 12 27 37 47 58 66 72 78 83 82 83 86 90 92 92 91
53 47 52 52 50 52 55 59 61 63 64 67 69 71 76 81 83 87 86 88 88 89 88 88 81 67 50 41 32 20 14 8 19 34 47 54 62 64 68 72 77 82 85 87 90 94 92
54 50 52 54 50 52 54 57 60 61 62 64 67 69 73 77 80 84 84 85 88 89 87 85 83 70 50 43 35 22 18 6 13 31 45 47 50 61 70 73 76 79 79 85 91 92 92
56 52 52 53 51 54 55 59 59 59 60 61 63 66 70 74 76 80 80 82 88 90 88 82 82 68 51 43 36 25 21 5 17 32 39 46 52 61 64 67 72 77 79 87 90 91 88
57 54 54 49 50 52 55 56 56 57 57 58 60 63 67 71 73 78 78 80 88 89 86 83 81 72 56 43 38 30 22 4 15 31 38 42 50 59 66 68 70 75 78 80 83 85 85
57 55 52 50 51 51 52 53 53 55 54 54 58 61 65 69 70 75 73 77 86 87 85 81 78 71 61 47 39 34 24 10 6 23 35 45 54 59 62 64 67 71 75 77 79 81 85
54 60 58 52 52 50 52 50 50 52 51 51 55 59 62 65 67 72 70 73 82 88 85 77 76 70 68 55 42 37 28 15 5 7 21 32 43 53 59 62 65 68 72 72 73 75 80
52 59 60 55 53 50 51 49 49 50 49 49 52 56 59 63 63 66 64 69 78 85 82 76 73 69 65 62 48 38 30 19 6 7 12 16 35 45 53 58 61 63 63 64 69 71 74
53 59 59 57 54 50 52 49 48 50 46 46 49 54 58 60 59 62 61 64 74 79 84 78 74 70 63 60 57 41 31 21 9 6 18 28 36 43 48 52 55 59 61 65 68 71 74
50 56 59 60 58 50 51 48 46 47 43 45 48 52 55 55 55 56 59 61 68 74 81 79 73 68 64 58 56 48 32 23 13 2 12 24 33 40 44 49 54 57 60 62 64 67 70
47 53 58 60 55 48 48 45 44 45 41 43 47 49 51 52 51 53 55 58 63 68 75 80 74 70 65 61 56 50 39 24 15 6 8 17 26 33 41 46 52 55 59 61 63 66 68
47 51 52 53 50 48 44 41 42 43 41 43 46 47 45 47 47 51 51 54 59 63 68 75 78 71 67 64 60 53 44 30 17 9 1 13 24 31 36 38 41 47 52 56 60 61 63
44 46 47 50 48 48 39 39 39 41 39 41 44 44 41 41 43 48 49 51 56 60 64 70 75 77 71 68 62 53 49 38 25 13 5 5 14 22 31 38 44 45 48 52 56 57 62
41 43 46 48 44 43 39 38 41 41 41 41 43 39 37 38 42 45 46 49 55 57 62 65 71 82 78 73 70 61 54 47 35 23 11 7 10 16 24 32 40 45 50 51 54 61 61
39 40 41 39 40 39 35 36 38 36 37 37 40 34 33 35 39 43 43 45 52 56 58 62 69 76 82 80 76 69 61 54 41 28 19 12 12 16 21 29 34 40 47 51 55 60 62
38 36 36 35 34 35 36 37 35 35 33 34 35 33 31 33 38 40 42 43 49 52 55 62 67 70 80 80 78 74 71 61 48 37 26 18 16 17 20 21 29 37 41 44 49 55 59
38 35 32 32 33 34 33 33 35 32 30 31 31 30 28 31 35 39 38 41 47 51 52 55 62 67 74 84 83 79 70 64 55 45 33 26 20 19 21 22 26 31 32 37 42 47 50
39 32 30 31 33 34 34 33 34 31 29 28 27 26 26 30 32 38 34 39 44 47 51 56 60 65 70 76 81 81 70 66 60 56 44 31 24 21 22 23 27 30 31 32 38 42 46
40 33 30 31 32 35 35 35 35 30 28 27 26 27 27 29 32 35 33 38 44 49 51 55 60 63 69 71 78 81 75 65 62 62 61 47 31 23 22 22 27 32 29 30 34 37 42
40 34 31 30 35 35 33 34 32 28 27 26 27 29 26 29 33 35 32 40 43 49 53 54 56 63 67 71 74 79 78 70 64 57 53 50 37 28 24 23 27 27 30 33 32 34 36
39 34 31 31 33 35 33 32 30 30 29 27 29 28 28 31 32 34 33 39 42 51 53 56 60 62 65 70 74 74 79 74 64 59 57 54 48 38 29 24 29 27 28 32 35 37 37
41 35 32 32 36 36 34 32 32 34 34 28 32 26 29 33 34 34 33 39 44 50 53 57 60 65 67 69 74 77 81 77 73 70 58 58 49 47 37 30 27 30 31 32 34 38 39

GFSGBSN_250_spd_084.txt.gz
Wind_Speed
87 80 80 77 76 69 64 61 59 59 63 65 69 74 78 83 85 85 87 90 90 81 78 84 81 83 80 66 50 39 34 35 39 44 55 60 64 71 77 80 84 89 96 97 102 102 105
89 86 80 77 67 65 62 59 57 58 61 65 69 74 78 83 87 86 88 92 92 81 80 83 83 83 81 64 46 39 35 33 38 44 54 59 63 71 79 81 84 86 94 98 103 101 104
91 85 79 72 65 61 60 56 56 58 61 65 71 75 78 83 87 87 90 91 92 81 80 82 85 88 80 63 47 41 36 32 35 42 54 62 67 71 77 81 84 89 92 98 100 98 103
89 82 74 65 63 57 58 53 55 58 62 65 71 74 77 83 86 87 89 91 91 80 81 83 88 88 82 61 48 43 36 30 28 36 47 65 71 73 78 78 83 85 90 96 100 103 108
87 76 71 62 59 57 56 51 54 57 61 64 68 73 76 81 84 85 88 90 90 79 80 84 87 89 81 61 49 43 34 27 24 30 41 56 68 74 78 81 84 87 87 93 97 101 103
81 74 68 60 56 54 52 48 54 57 59 61 67 71 76 79 83 83 87 89 90 79 80 83 87 91 78 60 47 40 31 23 22 27 34 52 63 73 75 79 80 83 88 93 97 100 97
77 71 64 58 53 52 48 47 53 56 58 61 67 71 75 77 81 81 85 87 89 79 79 83 86 88 75 56 45 37 28 20 18 27 37 51 62 67 69 77 83 87 89 91 94 97 100
77 68 61 58 51 51 44 47 52 55 57 61 65 69 72 74 79 80 84 87 85 77 78 85 87 86 77 55 45 35 29 14 14 24 37 48 58 65 71 80 81 86 89 91 97 99 98
77 69 59 56 51 48 43 47 52 55 55 61 63 66 69 72 77 77 83 86 82 77 76 83 86 85 75 54 45 35 26 8 6 18 29 35 49 61 70 76 76 81 88 90 89 92 91
73 68 59 53 48 47 43 47 50 51 53 58 60 62 66 70 74 75 81 84 80 78 74 82 85 83 75 56 44 34 20 10 4 16 25 33 45 57 67 72 74 77 83 84 82 84 87
75 68 57 53 44 42 44 46 49 48 52 56 58 58 62 67 70 72 79 79 77 81 73 79 83 80 73 59 44 34 22 19 5 13 25 31 40 48 56 65 69 76 78 79 80 83 80
78 71 60 50 48 41 42 48 48 47 50 53 54 54 58 64 68 70 74 77 74 80 72 78 80 80 72 59 42 34 27 21 14 3 18 27 32 42 50 57 65 70 70 73 76 76 70
82 73 64 53 48 44 41 46 46 47 48 49 51 52 57 61 65 68 70 72 71 77 73 77 80 78 73 60 47 34 30 25 22 7 14 23 33 43 52 59 62 64 67 68 73 73 76
78 69 60 56 49 43 41 47 48 49 48 47 49 50 54 59 62 64 64 65 66 74 80 75 77 79 71 61 52 39 33 27 22 15 2 22 34 43 48 53 57 61 66 71 70 70 75
73 69 64 50 47 45 44 48 50 50 48 45 47 46 50 57 58 59 60 59 64 72 79 74 76 78 71 62 57 48 35 29 21 15 10 5 26 34 42 47 52 56 59 62 66 71 73
74 71 62 48 49 48 45 48 49 50 46 43 44 42 47 53 53 54 55 55 60 68 76 76 74 74 72 66 56 52 41 29 21 12 5 10 20 29 38 44 51 56 57 62 65 68 70
74 67 57 50 47 46 47 49 48 48 44 41 39 39 45 48 48 50 50 51 54 63 70 75 74 73 71 66 62 52 45 33 23 14 7 4 15 27 34 41 46 51 56 60 62 62 65
71 64 61 50 50 49 48 49 48 46 43 37 37 37 44 45 45 45 45 47 49 58 64 70 74 73 70 68 66 61 49 39 27 17 12 6 10 19 28 37 44 49 53 55 56 59 63
70 68 58 50 50 47 45 45 46 45 37 31 31 35 39 41 42 40 41 42 47 53 59 64 68 71 71 69 68 67 56 49 34 23 16 13 14 18 25 33 40 46 49 53 55 58 62
65 65 57 50 48 45 42 42 42 38 31 28 30 33 38 37 37 36 36 38 42 49 56 60 62 69 70 72 71 68 63 57 47 28 16 13 12 17 23 29 37 43 49 53 55 58 64
69 63 56 47 45 42 42 40 38 33 30 29 31 33 34 32 32 34 32 34 37 44 51 57 59 62 69 69 68 67 64 60 54 47 27 13 13 13 20 26 31 39 45 49 52 58 56
66 55 52 48 44 39 38 37 36 33 30 30 29 28 29 27 29 30 30 29 35 40 46 51 56 60 65 73 71 70 68 64 60 54 45 37 17 13 19 21 26 34 39 48 51 55 57
64 59 54 49 44 39 37 37 32 32 29 28 26 26 24 25 25 27 28 26 32 38 41 48 52 56 59 63 71 71 69 67 65 59 52 46 36 23 16 20 23 29 37 41 44 51 54
69 63 55 48 41 36 34 34 34 31 27 25 23 22 23 21 23 26 27 25 30 35 40 45 49 55 58 62 68 73 71 68 67 59 51 48 43 33 23 18 23 31 35 36 39 45 47
60 53 50 45 37 33 34 32 32 32 27 25 23 22 21 20 23 25 25 25 29 34 40 43 48 53 55 58 64 71 77 72 69 66 58 52 48 41 31 22 22 27 34 34 35 41 43
63 58 52 43 35 35 36 35 33 32 29 24 22 21 20 20 23 23 22 24 29 34 37 42 45 50 54 55 60 66 71 75 68 71 69 62 50 45 38 27 25 28 29 31 35 36 42
58 54 48 39 36 36 35 35 35 31 27 25 23 20 19 21 22 22 23 26 29 34 36 40 44 47 50 53 57 64 68 73 76 73 70 62 56 47 45 40 34 26 27 28 31 37 43
62 55 47 40 36 36 36 37 36 34 31 27 24 20 21 20 21 23 24 27 30 32 37 40 45 48 50 54 57 63 68 72 77 78 74 68 63 53 56 53 47 36 26 28 32 37 41
66 57 49 41 37 38 39 38 37 34 31 28 24 24 21 20 21 23 23 26 29 32 36 41 45 51 52 56 58 61 68 72 75 80 82 86 80 75 69 68 56 46 36 30 30 35 40

GFSGBSN_250_spd_087.txt.gz
Wind_Speed
84 92 95 93 94 91 89 86 77 69 65 65 66 62 66 69 73 77 82 81 84 83 82 77 72 75 76 70 66 55 43 33 29 32 35 37 46 49 56 70 79 86 94 99 102 106 107
98 99 93 97 96 94 90 84 78 69 64 63 62 62 65 68 73 79 82 82 83 85 83 77 74 76 77 73 63 54 41 34 29 29 35 38 46 49 57 70 76 83 93 104 102 103 106
109 104 100 104 96 93 85 84 72 65 61 62 59 60 63 68 73 79 82 83 84 85 82 74 77 77 77 75 67 56 42 35 29 27 33 40 50 52 57 66 77 86 95 100 99 102 105
113 109 104 100 99 94 84 79 67 62 60 58 58 59 62 67 73 79 80 83 83 86 83 75 77 77 74 76 69 54 44 37 29 24 28 40 47 54 59 65 75 84 94 98 100 102 102
109 105 102 99 100 94 87 74 61 56 57 55 55 58 61 66 71 76 80 83 83 87 83 74 77 77 76 76 68 53 43 34 24 19 25 33 43 52 59 67 75 83 90 93 97 96 97
98 98 99 98 97 91 79 70 59 55 56 53 52 56 59 64 69 75 78 82 85 88 82 74 78 78 77 76 63 50 39 32 23 16 23 32 47 57 59 66 70 77 86 89 95 93 93
90 87 87 90 91 88 75 64 56 54 52 52 51 54 57 63 68 73 77 81 86 90 83 75 77 79 78 76 62 48 39 29 17 13 22 31 45 56 60 66 73 81 85 86 91 93 96
79 79 76 80 87 85 74 61 52 50 51 51 50 51 56 62 66 71 76 81 86 91 82 73 77 78 77 75 64 47 38 27 14 12 22 34 43 53 64 71 76 82 85 87 89 93 101
70 68 65 65 69 74 69 57 47 48 50 49 48 49 55 60 63 69 73 78 83 88 80 72 76 76 77 72 60 44 33 20 9 13 25 34 43 50 60 69 71 77 81 82 86 92 92
66 61 59 62 61 66 59 55 47 48 49 47 46 50 54 58 60 67 72 74 81 86 76 70 73 74 74 70 58 43 30 17 9 9 19 34 42 50 57 69 73 77 81 84 88 92 94
65 58 58 62 57 54 54 52 44 45 46 45 45 48 51 55 59 65 68 73 78 83 73 68 68 70 72 69 54 39 30 16 11 6 16 25 36 46 57 61 66 70 73 81 87 92 92
57 56 58 57 55 51 51 48 46 45 46 45 43 47 50 54 57 62 65 70 74 80 74 67 67 71 72 66 53 39 32 21 19 11 18 23 29 40 48 56 63 67 75 79 85 84 84
54 51 57 56 54 47 53 50 47 45 46 46 42 45 48 51 55 59 61 65 70 73 69 65 69 71 70 67 54 43 34 26 26 16 16 22 27 34 47 55 59 65 73 77 75 78 80
52 52 61 57 56 51 50 50 46 45 43 42 39 43 44 48 51 54 57 61 65 67 71 63 66 70 69 66 56 47 38 33 23 20 11 20 27 33 42 49 56 63 64 65 66 66 72
60 59 57 58 58 54 50 48 47 45 42 41 38 40 41 44 48 49 52 56 60 61 67 61 62 71 71 68 62 54 45 35 29 20 14 11 22 33 42 47 53 55 59 60 61 64 68
70 68 63 60 59 60 50 47 48 44 43 43 36 37 38 40 43 45 47 51 54 54 62 65 63 67 68 66 66 60 51 43 32 26 20 7 12 24 32 38 42 47 54 58 60 62 65
75 71 67 63 59 57 49 45 47 46 42 39 34 35 36 38 38 39 41 47 47 48 57 66 68 69 68 67 66 63 58 49 39 29 22 15 4 11 22 31 37 41 47 53 57 61 65
74 75 69 65 60 50 47 43 44 44 41 34 33 31 33 34 32 35 36 42 41 44 50 58 64 67 68 68 64 63 60 56 47 37 26 17 10 1 10 23 30 35 41 48 54 58 62
77 75 68 65 59 52 53 48 43 44 39 33 33 30 29 28 27 29 32 37 36 39 46 51 58 62 64 65 66 64 62 56 50 42 32 22 13 7 3 11 23 32 38 43 50 55 59
80 78 75 70 60 53 51 47 45 43 38 35 30 28 27 22 23 23 27 32 31 35 41 47 51 57 59 61 62 63 62 59 54 50 42 31 21 12 8 10 14 21 33 40 46 51 56
81 78 74 67 63 56 53 45 41 37 35 31 30 28 24 20 17 19 23 28 27 31 39 43 50 52 55 58 61 61 60 58 57 53 44 38 30 20 14 11 14 18 24 33 45 49 52
84 80 72 70 62 57 51 42 39 34 34 31 31 27 23 16 14 16 20 24 22 28 36 38 43 47 53 57 59 63 62 61 60 58 53 42 35 31 22 17 17 21 26 30 34 37 49
80 74 68 60 54 54 48 43 36 37 34 33 29 26 20 16 11 12 16 21 20 25 32 37 39 43 48 55 59 60 64 62 59 57 51 45 40 35 27 21 21 25 26 30 33 38 41
82 76 70 60 60 52 48 42 39 32 34 34 30 24 19 15 10 11 14 18 18 22 30 33 37 41 45 51 55 58 62 63 64 62 59 46 40 43 37 29 28 27 28 31 34 39 39
77 75 72 67 63 56 48 42 38 32 35 31 28 22 19 14 12 11 13 15 17 21 27 30 34 42 45 48 49 55 60 58 63 63 65 65 62 54 47 38 27 27 25 25 34 41 43
81 72 61 61 53 48 45 40 34 34 35 31 26 22 18 16 13 11 13 13 15 19 25 29 32 38 45 47 52 50 57 58 60 65 64 65 69 60 53 52 45 35 30 23 23 36 41
75 68 65 59 54 49 44 37 35 36 37 33 30 23 19 17 13 11 14 12 13 18 22 28 30 36 42 45 48 52 53 58 61 67 65 70 75 69 62 60 51 45 37 32 27 31 37
70 66 64 57 52 47 43 40 38 38 35 31 29 25 22 19 11 13 14 10 14 17 22 26 28 35 39 45 50 52 54 54 58 62 69 68 75 75 69 67 66 55 52 45 36 28 32
73 68 63 58 54 47 43 39 39 39 34 32 30 27 23 22 14 14 13 12 14 18 20 25 28 33 38 45 50 54 55 57 59 61 67 69 70 74 76 81 76 69 65 55 44 35 31

GFSGBSN_250_spd_090.txt.gz
Wind_Speed
107 107 107 108 107 103 98 98 98 96 94 91 90 87 83 76 75 76 73 74 76 77 75 73 71 69 65 68 66 67 64 53 43 35 34 34 36 38 47 56 70 79 83 90 99 105 108
114 115 114 110 110 105 100 100 97 97 94 89 90 84 80 73 74 75 73 74 76 77 75 72 71 67 66 69 69 67 59 50 37 31 30 33 36 38 46 56 65 75 83 92 95 104 108
122 119 116 115 112 106 106 98 96 95 92 88 87 81 82 73 71 74 72 73 76 77 76 72 72 67 67 71 70 66 59 47 34 30 28 32 37 41 50 57 66 75 84 91 96 97 103
108 110 111 112 109 107 102 100 91 88 89 85 82 78 74 71 69 71 70 72 75 77 75 71 70 70 71 72 70 66 59 43 33 29 26 29 37 43 51 55 65 75 84 90 94 99 104
97 99 93 93 102 100 96 92 89 84 79 76 77 78 66 68 66 69 68 72 75 79 72 70 70 72 73 73 70 66 55 38 32 26 22 28 34 43 52 58 67 75 84 90 99 101 100
77 81 86 82 85 87 83 79 76 74 67 69 70 70 65 63 63 67 66 71 75 81 72 71 72 71 73 74 69 63 49 36 28 20 18 23 30 44 53 59 64 71 80 85 89 100 99
69 77 74 73 70 69 69 66 64 67 62 63 63 65 61 59 61 64 65 69 76 82 73 72 69 73 76 71 69 60 44 34 29 14 14 23 35 47 54 58 63 69 77 77 82 90 94
58 62 68 70 63 64 59 52 55 57 53 50 55 57 58 56 58 61 63 68 77 81 72 68 70 73 71 69 68 55 41 35 24 12 11 28 37 40 47 54 59 65 75 80 84 88 89
52 57 65 70 65 59 56 49 52 45 41 43 49 51 52 53 56 59 60 67 75 78 73 67 68 72 70 71 64 50 39 31 21 7 13 28 36 43 48 54 59 65 73 77 83 87 91
54 58 64 68 59 56 54 52 43 37 34 36 43 49 49 50 52 57 57 65 72 78 74 71 66 68 66 67 58 47 37 29 17 3 10 22 33 42 48 53 60 65 70 77 82 85 88
60 58 61 63 66 56 52 50 44 32 30 35 41 47 47 47 49 54 55 62 69 75 74 68 64 63 64 64 55 42 34 29 15 6 10 22 30 39 48 51 57 63 71 75 79 82 88
70 63 66 65 65 58 53 48 42 33 32 35 40 45 45 44 48 50 51 58 65 71 72 66 62 60 61 61 54 41 32 25 16 11 13 17 26 32 45 51 56 61 67 71 75 82 88
71 73 71 67 61 62 53 48 39 32 33 37 42 42 42 41 46 46 48 55 60 63 68 61 58 59 59 56 54 45 35 27 20 13 15 20 22 32 38 45 52 58 65 71 75 82 85
71 75 71 69 67 65 56 52 40 37 36 39 43 40 39 39 41 40 45 51 54 56 64 57 55 57 57 57 57 47 38 31 22 18 10 17 21 29 37 43 47 51 59 67 70 72 76
70 71 72 68 74 67 59 53 45 39 38 41 42 39 37 37 38 38 43 48 47 50 56 55 55 55 58 55 55 51 45 36 30 20 13 7 17 26 33 40 46 50 55 61 66 67 70
68 73 64 68 70 65 60 54 44 41 40 42 40 35 34 34 34 36 38 42 42 42 50 52 53 54 59 59 58 56 53 44 32 26 19 10 5 14 25 36 43 48 51 57 60 63 66
67 66 67 67 70 65 61 54 46 42 42 43 37 34 31 31 30 35 34 35 36 36 43 50 51 57 61 62 59 58 58 53 45 35 23 16 11 7 16 29 35 39 46 50 53 55 58
69 65 70 72 73 68 61 52 46 43 43 42 35 32 29 28 27 31 28 28 30 30 38 48 53 56 60 60 62 59 58 55 50 41 30 20 13 5 6 16 27 34 39 44 47 49 52
69 65 68 72 69 66 60 53 48 45 43 38 34 30 27 26 26 25 23 22 25 24 31 40 46 54 57 58 60 61 62 60 56 49 38 30 20 12 4 4 12 22 31 38 43 47 51
71 64 68 77 78 68 58 54 49 45 42 37 32 27 25 24 24 20 18 18 20 20 26 36 39 45 51 55 57 57 58 56 56 52 48 40 30 21 11 4 6 12 21 31 39 45 51
69 68 77 76 69 68 59 52 49 45 42 35 30 27 25 23 21 15 15 14 17 17 24 31 33 39 45 51 52 54 53 52 51 51 48 48 43 35 22 15 8 10 15 22 31 38 45
73 76 79 77 77 67 61 54 51 47 40 33 31 26 24 22 17 13 12 11 14 15 21 27 33 34 39 45 51 53 52 54 54 52 47 47 42 38 33 24 17 13 12 20 27 30 38
73 78 82 80 73 68 63 56 52 45 39 35 30 27 25 22 17 12 10 9 12 13 19 25 31 34 38 43 47 52 53 53 53 53 54 54 49 44 39 31 28 25 19 19 22 27 36
77 81 81 77 70 61 58 57 52 45 39 34 33 31 26 23 17 12 9 7 9 10 17 24 27 32 39 40 43 47 49 53 54 57 57 57 53 50 50 44 36 28 26 24 23 25 29
77 80 78 73 68 62 56 52 47 42 38 35 35 31 27 21 18 14 11 5 7 8 13 20 23 30 35 40 42 47 46 50 52 55 57 61 62 59 55 46 37 36 40 29 25 24 28
72 79 76 67 64 59 55 50 45 41 36 35 36 30 28 23 20 14 11 5 6 7 12 17 21 25 31 37 42 45 48 50 52 56 52 55 62 62 64 63 65 50 46 37 35 33 26
79 77 73 69 64 60 54 48 43 39 36 34 35 32 29 25 19 16 10 6 6 7 11 16 21 24 28 34 39 45 47 47 52 56 56 52 58 61 62 62 65 67 60 60 50 40 33
78 76 72 68 65 60 54 47 40 39 36 36 35 34 30 25 22 18 11 8 7 6 9 13 19 21 27 30 36 42 46 52 54 55 57 57 59 60 61 67 70 68 75 65 59 52 45
77 73 70 66 61 57 53 47 44 39 37 38 38 35 31 27 23 18 12 10 7 6 8 12 17 20 22 28 32 38 44 49 54 59 59 62 61 65 68 66 78 84 85 83 69 60 51

GFSGBSN_250_spd_093.txt.gz
Wind_Speed
114 114 112 108 106 100 103 101 102 98 93 92 95 96 92 96 93 95 91 91 84 88 85 85 76 66 64 67 64 59 62 64 62 64 60 58 54 47 48 50 51 56 70 76 89 100 110
90 97 103 109 110 111 106 105 104 102 101 96 96 93 94 97 97 91 88 86 82 84 84 82 71 63 65 65 61 62 64 66 64 59 52 49 46 43 44 49 44 55 67 79 90 100 109
64 64 65 74 87 93 104 104 106 109 101 98 98 92 93 90 88 87 83 76 80 81 84 78 66 64 64 63 61 65 64 65 61 53 42 40 38 39 43 45 49 58 68 78 91 93 102
78 75 62 62 60 74 85 90 94 94 96 92 92 88 87 82 83 81 73 73 77 81 84 72 63 65 64 62 63 66 67 64 53 44 37 35 31 37 42 45 52 58 66 72 87 102 97
86 86 79 68 63 60 67 76 82 81 85 75 75 75 74 74 72 72 67 68 73 80 80 67 62 65 64 63 64 67 68 58 46 37 31 28 28 35 43 48 56 60 64 75 90 92 108
94 88 86 80 63 53 59 69 69 67 71 64 62 59 61 61 62 62 59 64 71 80 74 63 61 65 61 63 66 65 62 51 39 31 23 23 25 31 42 45 47 51 65 73 84 93 95
101 94 81 67 55 52 54 63 65 59 66 57 53 50 48 45 51 50 53 61 71 79 66 57 60 62 60 65 66 66 58 46 35 24 18 17 23 29 39 42 48 54 60 67 77 87 89
93 82 81 60 51 45 47 58 65 57 62 51 46 41 37 39 43 44 51 60 69 74 64 56 63 62 62 63 62 64 53 42 32 23 14 14 25 33 38 42 50 56 64 73 81 86 88
76 72 64 59 51 51 51 55 58 53 57 46 40 29 33 37 36 42 50 58 65 71 61 51 63 60 66 60 61 58 47 39 29 19 7 10 23 36 40 41 48 55 65 79 86 93 91
68 63 61 64 64 62 59 52 53 55 52 40 33 32 34 32 38 40 49 53 61 69 64 51 58 61 62 61 61 55 42 33 26 12 4 7 18 23 42 50 50 53 63 72 78 75 79
56 55 52 61 64 71 67 55 56 57 44 40 33 30 34 30 37 40 45 48 57 66 62 53 55 59 58 58 57 49 37 31 25 12 7 7 17 29 37 39 42 50 58 70 75 79 84
46 45 42 59 68 70 69 59 60 53 45 42 31 34 30 35 33 36 39 44 52 60 58 56 55 56 55 53 49 45 38 30 25 15 10 9 13 23 34 37 40 42 49 57 62 74 75
41 39 39 53 66 67 61 60 61 55 51 45 36 34 31 31 30 31 35 38 48 54 58 56 51 52 53 51 49 46 37 30 25 19 11 10 12 23 33 36 38 43 48 53 60 61 69
37 35 36 50 63 62 58 65 59 56 58 42 39 33 32 29 26 28 31 33 42 50 53 54 48 49 52 49 49 47 42 35 28 24 17 8 13 19 24 31 37 38 42 49 51 52 58
29 28 34 43 59 62 60 59 60 63 58 45 39 31 30 26 20 25 27 31 35 44 46 47 48 48 51 48 48 49 46 40 33 26 20 17 4 10 22 27 30 36 39 43 47 52 56
22 23 33 45 49 50 56 63 64 65 52 45 37 32 30 22 18 22 23 28 31 36 39 43 47 50 52 51 48 51 50 47 42 33 24 15 11 2 8 22 28 29 33 41 45 49 52
15 22 35 33 46 49 63 65 71 62 51 44 37 35 27 18 16 18 19 24 27 29 31 39 43 49 51 52 53 51 55 54 48 41 32 23 14 8 0 10 21 31 35 38 41 45 49
14 24 39 37 40 57 67 72 70 56 49 44 41 34 25 17 15 14 15 19 22 22 25 34 40 46 51 54 55 55 54 53 53 48 38 29 21 13 7 3 7 20 29 35 39 43 46
19 24 39 35 47 69 73 76 64 54 50 45 40 31 23 17 14 13 11 14 16 17 23 30 36 42 47 52 56 57 56 55 55 51 45 41 34 23 15 8 1 8 18 27 34 39 43
21 35 37 45 63 76 76 70 59 55 50 44 37 31 24 19 14 12 9 9 12 11 18 26 31 38 44 50 52 55 56 55 54 52 50 48 41 35 29 19 11 7 11 19 27 34 42
29 35 43 60 73 80 71 61 58 53 49 44 35 30 23 18 13 11 8 7 8 7 14 22 29 33 38 42 47 54 55 53 53 53 53 51 48 43 38 29 23 16 11 16 21 26 33
31 51 61 71 85 77 69 62 58 54 50 42 37 30 26 20 14 12 9 6 5 3 11 18 25 28 33 36 44 49 51 51 52 52 51 50 48 47 42 39 37 29 20 17 14 24 32
22 53 63 76 87 81 75 66 61 57 48 43 38 32 27 20 15 13 11 7 3 1 10 17 24 29 33 36 40 45 49 50 52 51 49 52 51 50 50 43 39 41 40 32 21 17 23
39 36 60 83 82 74 67 66 61 54 49 43 35 30 25 21 17 14 13 8 3 1 6 14 19 25 30 36 40 43 45 49 51 52 52 49 46 49 53 52 53 45 49 43 34 31 24
33 37 61 82 78 68 63 61 61 57 49 42 37 32 26 24 20 16 14 10 4 2 4 11 17 21 25 31 35 40 45 47 49 52 53 54 48 49 52 55 58 60 56 53 48 43 35
43 38 58 80 74 66 64 61 56 55 45 42 37 31 29 24 20 19 15 11 6 4 2 8 14 18 22 27 31 34 39 43 47 50 53 55 52 56 51 60 59 62 66 65 60 52 45
39 43 72 77 72 66 62 56 53 51 46 39 37 32 29 26 22 21 16 13 9 5 1 4 10 13 19 25 27 30 36 40 43 46 49 53 57 59 51 57 63 68 71 72 73 69 58
51 56 78 74 71 65 57 52 48 44 40 37 35 35 33 29 24 22 17 15 11 8 3 3 8 11 15 21 26 30 32 36 40 44 46 51 56 60 59 54 66 74 76 78 82 78 74
49 63 75 70 63 58 55 53 47 40 35 31 32 35 34 29 26 23 20 16 12 10 6 2 6 11 14 18 24 29 33 34 39 42 46 48 53 59 62 64 65 74 77 81 79 87 86

GFSGBSN_250_spd_096.txt.gz
Wind_Speed
70 70 68 61 59 61 78 86 88 90 105 104 98 105 97 91 87 88 89 89 93 95 99 101 100 95 87 71 71 66 62 59 60 60 63 67 71 72 70 69 65 61 61 62 66 76 93
86 75 73 63 57 54 57 65 70 75 74 85 94 98 96 94 90 86 87 85 92 94 97 97 97 93 79 72 70 65 60 60 62 62 64 68 70 68 66 62 54 54 56 59 66 73 91
90 88 83 72 60 61 55 56 52 57 63 76 80 88 91 90 87 84 85 86 89 91 93 94 91 83 73 68 66 61 59 63 62 63 64 64 62 57 53 49 47 50 52 57 63 70 86
93 92 88 77 69 61 54 54 57 54 59 63 71 74 80 82 76 75 75 77 79 83 88 86 82 76 70 67 61 58 59 62 62 61 59 53 49 44 42 42 44 48 51 55 63 67 84
98 94 86 70 64 60 52 54 58 60 53 52 57 60 66 66 62 61 65 64 67 69 75 79 75 72 64 63 55 57 56 59 61 57 48 43 39 38 37 39 44 46 47 55 63 76 87
98 94 82 70 62 61 57 54 61 59 55 51 53 52 58 53 50 50 54 54 52 61 69 72 68 62 61 55 55 57 57 57 56 48 41 36 32 30 31 34 37 41 50 58 65 71 84
99 88 81 72 69 64 61 64 60 54 52 41 49 52 52 44 40 44 47 41 45 57 62 66 59 54 54 51 51 53 55 56 48 41 35 28 25 21 23 29 39 47 53 57 67 78 89
88 81 77 71 69 68 68 72 61 62 53 41 42 49 43 39 34 39 32 34 47 52 60 53 52 53 47 49 52 50 54 49 43 38 30 21 15 14 22 31 39 47 52 60 69 74 84
84 75 70 65 63 66 69 72 69 63 58 44 49 43 39 34 33 27 29 36 46 50 51 45 46 46 46 52 51 52 52 42 36 29 19 10 6 12 23 30 40 46 49 59 73 85 92
68 59 58 55 47 56 59 71 64 62 52 50 47 39 37 28 28 19 27 36 42 47 42 40 45 44 50 50 52 51 43 34 28 25 17 8 2 12 22 29 38 42 49 61 77 81 87
61 54 50 46 38 45 49 55 61 62 51 54 50 41 35 30 19 20 27 32 40 39 37 36 39 45 50 49 49 44 37 31 24 22 17 11 4 6 25 31 34 39 46 53 61 77 86
51 45 41 36 32 37 36 41 59 61 57 54 52 43 39 31 21 19 24 28 33 36 34 31 35 46 48 49 46 40 35 30 23 23 20 13 5 8 19 29 31 36 41 50 63 70 76
45 38 30 23 24 27 29 44 55 59 55 56 54 49 41 31 22 16 20 25 28 34 32 32 37 43 45 44 43 39 36 31 24 23 24 18 8 7 15 25 29 35 41 49 57 65 69
41 31 20 12 15 21 33 40 50 54 58 59 56 49 42 32 22 15 16 19 24 29 36 33 38 42 45 43 40 40 41 35 31 27 22 22 17 6 13 18 23 25 29 38 47 56 61
32 18 7 4 14 23 26 39 53 52 63 62 58 48 39 32 23 14 12 14 22 25 34 35 36 42 42 39 42 44 45 40 36 33 28 21 19 13 8 13 19 22 24 25 35 42 45
22 11 1 13 18 16 25 35 57 66 65 65 55 48 39 33 22 12 9 9 19 23 30 33 36 42 43 41 45 45 48 48 43 38 33 27 20 16 9 7 10 15 20 23 28 30 35
20 9 4 18 22 20 30 43 57 70 64 61 55 46 41 32 23 13 3 6 15 19 25 32 34 40 44 45 46 47 50 51 49 44 39 34 28 19 13 10 5 10 12 17 21 27 32
19 3 8 25 33 44 51 55 63 65 65 59 52 48 39 31 22 12 4 4 11 16 21 28 34 39 43 45 50 51 55 55 52 49 45 41 34 29 23 14 8 7 4 11 19 23 27
20 6 12 37 43 53 66 68 67 65 63 56 54 46 38 30 21 13 6 3 7 12 18 25 32 36 42 48 51 53 53 54 54 55 52 52 46 40 34 26 20 13 4 4 10 16 24
20 8 16 42 52 56 68 70 69 67 61 57 49 44 37 29 20 13 8 4 6 10 17 23 28 34 41 45 51 53 54 54 53 52 51 53 51 49 45 39 32 24 17 9 10 15 20
15 14 25 41 57 68 71 68 71 63 57 56 51 41 35 25 18 13 8 7 6 12 17 22 25 31 38 43 48 51 53 53 53 54 52 53 49 50 50 45 40 34 27 19 14 11 16
14 20 39 51 60 74 69 72 66 59 58 53 48 39 34 26 21 12 9 6 7 13 17 21 24 28 32 38 44 46 49 51 54 54 54 53 53 55 54 48 44 39 35 30 23 19 18
8 20 35 58 70 73 73 68 63 60 55 48 44 39 31 23 15 13 10 7 6 10 12 15 20 26 29 35 38 41 45 46 48 51 50 51 53 53 55 54 53 49 45 39 35 29 22
16 16 25 45 63 69 68 65 63 59 53 49 43 34 28 20 16 11 9 8 5 8 9 11 14 21 26 30 33 37 38 41 47 49 50 50 47 51 55 53 56 54 50 47 46 41 46
5 12 15 34 51 64 64 62 57 54 50 47 40 33 26 20 14 11 9 7 4 5 7 9 12 18 21 26 29 33 37 37 39 42 48 48 50 49 55 59 56 57 55 55 52 50 48
8 19 16 31 46 62 63 62 57 51 48 46 40 34 28 21 16 12 9 7 4 3 5 7 7 12 20 25 28 32 35 36 39 41 41 45 48 48 52 55 60 60 58 54 58 58 54
18 32 34 41 51 62 62 58 54 48 46 46 42 35 27 21 15 12 10 8 6 4 4 3 5 9 14 20 25 29 33 36 38 40 41 45 46 49 52 55 60 60 60 58 59 63 63
14 35 49 56 56 60 57 55 50 43 41 44 40 34 29 23 18 14 12 10 7 7 5 2 2 7 12 17 20 24 29 33 37 39 41 43 46 49 50 53 58 56 60 58 62 66 70
29 50 60 58 60 59 56 51 47 42 36 40 40 34 30 24 19 16 14 12 9 9 8 6 2 4 10 15 18 21 26 30 34 39 41 43 47 48 52 51 55 58 59 65 66 67 71

GFSGBSN_250_spd_099.txt.gz
Wind_Speed
80 79 82 78 71 63 60 58 54 59 70 77 85 88 96 96 103 98 100 98 91 91 93 95 96 98 89 88 82 78 74 73 71 75 72 70 69 69 70 71 72 67 70 70 72 77 81
85 88 89 85 81 69 64 61 59 59 64 74 75 78 82 89 84 86 91 97 92 84 90 94 94 93 87 86 80 74 73 71 74 70 69 69 70 69 70 73 74 77 77 78 79 80 81
88 93 96 93 84 74 63 59 58 59 61 66 74 76 75 76 77 71 76 76 73 78 79 83 89 84 86 79 74 75 72 71 66 65 67 71 72 71 72 77 80 76 72 73 74 77 78
93 100 102 93 82 70 65 64 61 61 64 73 73 72 72 66 65 72 69 60 63 67 69 77 79 73 71 68 70 70 69 62 63 65 68 69 69 70 68 64 62 60 59 57 61 64 65
101 105 101 92 81 73 69 70 69 70 71 74 72 67 67 61 64 65 59 54 58 58 64 66 67 61 60 63 63 66 63 60 63 66 65 64 64 55 52 49 47 45 46 47 49 52 58
104 104 97 88 79 79 73 71 68 70 73 72 70 68 61 58 60 55 46 47 46 54 57 57 51 53 54 52 58 58 59 60 59 59 60 57 50 46 41 39 39 41 42 43 42 46 54
106 106 95 84 82 80 74 67 65 61 67 71 66 62 62 61 51 43 43 40 45 50 47 45 48 46 42 51 50 53 56 54 52 51 50 43 39 33 27 28 31 38 41 42 44 48 55
112 104 92 80 71 68 66 60 54 51 58 63 63 57 59 51 42 37 33 35 41 41 39 39 33 35 43 44 47 48 46 45 49 46 42 36 28 22 19 23 28 30 36 40 44 46 57
109 93 79 69 64 57 50 49 42 42 49 57 60 57 54 51 40 33 28 31 31 31 32 23 29 35 37 38 42 40 41 44 41 36 32 23 18 7 7 11 21 26 34 37 41 45 58
94 77 66 60 53 47 37 36 31 37 46 54 56 57 49 46 37 29 26 25 23 23 16 21 30 29 31 34 35 37 37 34 30 27 23 16 10 4 1 12 20 26 32 38 40 52 64
78 67 56 49 41 34 24 22 24 33 44 52 59 53 48 42 34 29 23 17 15 11 13 21 23 23 26 31 34 35 31 26 23 20 15 13 14 11 6 11 19 25 34 38 43 59 68
68 56 47 37 28 20 13 15 23 36 48 56 58 53 47 41 36 25 15 8 8 8 16 20 21 23 26 31 31 29 24 23 18 16 18 18 15 15 7 12 17 24 32 36 43 58 69
55 44 34 23 15 10 9 15 29 44 49 60 54 51 47 43 35 23 12 3 4 11 17 17 25 26 28 28 27 26 27 23 20 20 18 21 19 17 11 13 14 21 27 33 48 56 67
42 34 22 11 6 9 14 25 36 48 51 56 48 57 51 43 33 22 12 5 10 16 18 22 25 30 31 28 28 30 31 28 24 23 20 22 21 19 17 13 12 13 18 30 45 49 60
33 24 10 3 11 21 27 37 44 50 54 43 60 59 50 42 31 22 14 10 12 18 24 26 28 30 29 30 31 33 38 33 31 29 27 23 24 22 17 17 18 16 19 26 37 34 47
25 12 4 12 18 24 32 47 50 50 42 60 65 58 51 40 31 22 16 15 14 21 27 28 33 34 32 33 37 42 44 42 42 39 33 29 25 24 22 20 19 16 14 14 12 17 32
13 6 18 21 28 38 38 48 50 51 54 64 64 57 49 39 29 26 17 18 18 23 27 30 34 38 38 39 44 47 51 50 50 47 43 37 32 26 22 22 21 18 12 7 2 4 12
23 24 32 36 42 41 47 51 56 55 64 63 61 55 46 38 28 27 20 20 19 23 27 30 35 40 42 48 50 55 56 56 55 55 55 49 42 34 30 27 24 20 15 10 3 1 5
35 27 23 35 43 44 44 51 56 67 69 63 57 51 45 35 31 27 22 21 20 22 26 31 35 39 44 49 53 53 55 56 57 58 57 56 55 49 40 36 31 25 19 12 7 4 0
41 27 19 30 38 41 51 61 67 67 62 62 54 47 41 35 31 28 25 22 22 21 26 31 37 39 44 47 50 52 52 53 56 56 56 57 55 56 54 50 42 34 27 22 17 13 8
35 22 21 22 27 50 54 65 69 66 65 58 50 43 35 33 29 27 26 26 23 24 27 32 35 38 41 45 49 51 51 55 56 55 56 57 58 57 58 55 53 48 41 33 27 18 14
41 31 15 18 32 48 61 65 66 66 62 54 47 39 34 31 29 24 24 24 23 23 25 30 34 35 37 42 45 47 49 52 53 54 58 61 58 59 58 57 49 48 41 39 34 30 23
43 37 26 6 19 41 51 59 63 62 58 51 44 37 32 28 25 24 21 21 19 19 21 25 30 33 35 39 41 42 46 49 50 50 51 55 56 57 56 55 53 49 46 44 38 37 32
29 28 30 14 12 27 46 54 58 56 53 45 40 35 29 26 22 19 18 17 16 17 18 21 24 27 31 34 39 41 42 44 45 47 47 49 52 52 50 52 47 45 46 46 44 42 41
21 14 22 10 18 27 46 50 51 52 47 41 37 32 28 25 20 16 14 12 12 12 15 17 20 23 24 28 34 37 39 40 42 44 46 48 48 47 48 46 46 48 49 47 47 43 42
16 13 10 9 24 35 47 50 47 48 44 37 34 31 26 23 19 15 12 9 9 8 9 10 14 16 19 24 30 34 36 39 41 43 45 45 47 46 47 46 46 48 47 47 48 51 52
22 19 15 28 37 39 47 48 45 46 44 37 29 28 24 21 16 12 10 7 6 5 4 6 10 12 15 19 24 28 30 33 35 37 40 42 44 46 47 47 46 51 46 51 51 53 53
20 25 22 40 44 43 46 44 42 40 41 36 29 24 20 18 14 11 8 5 3 4 3 3 6 10 12 15 19 23 26 28 30 32 35 38 41 43 46 48 49 51 52 55 57 55 59
19 25 33 46 46 45 45 42 38 37 39 35 29 23 18 15 12 10 7 5 3 2 4 4 4 6 8 13 16 19 23 25 28 30 33 36 38 42 45 47 49 49 52 53 56 55 59

GFSGBSN_250_spd_102.txt.gz
Wind_Speed
68 72 74 77 76 77 76 76 73 68 65 68 68 73 78 82 85 86 83 83 82 81 84 88 90 92 89 88 91 83 77 72 69 68 64 72 71 68 71 69 68 65 64 62 61 66 71
74 76 77 78 80 80 80 80 75 74 71 69 71 73 77 78 82 78 79 76 76 74 74 73 79 78 78 85 80 76 72 70 62 65 68 68 68 67 66 66 64 65 65 62 60 64 71
80 79 79 83 80 79 80 81 86 72 69 71 66 71 76 78 75 81 73 72 72 66 68 69 67 66 65 65 61 65 63 59 64 58 63 68 66 62 63 65 66 66 65 66 65 69 72
84 84 85 83 81 83 84 81 79 79 70 69 70 65 71 73 74 71 71 68 65 66 67 62 63 60 57 54 54 56 59 54 50 59 61 61 60 60 62 64 65 68 70 71 74 74 78
90 90 90 90 89 87 84 78 74 71 71 63 62 60 63 67 65 67 68 65 63 59 56 57 55 46 44 44 46 51 46 47 53 52 54 56 60 63 67 72 75 75 74 73 73 71 77
91 94 95 91 88 83 77 70 61 59 59 54 52 55 60 61 60 58 62 58 59 56 56 45 40 37 34 39 39 39 43 49 46 48 51 54 62 69 68 64 62 60 60 61 56 56 61
98 95 91 85 78 71 63 57 51 47 42 38 39 51 55 56 54 57 55 57 58 58 42 37 28 28 24 28 32 40 42 43 44 48 55 60 57 49 48 47 43 43 45 45 45 50 52
96 90 84 78 71 64 56 49 41 36 30 24 33 45 53 48 50 49 48 46 44 33 32 25 19 17 20 26 31 34 38 43 45 48 52 49 43 40 37 34 29 29 31 35 40 46 46
89 82 75 67 61 54 46 38 30 24 19 20 33 44 44 48 46 44 41 37 34 24 17 11 11 12 18 23 29 34 36 37 39 45 42 39 37 31 26 20 16 18 23 29 36 42 46
82 72 62 55 47 40 32 24 17 12 14 24 33 42 48 42 46 40 34 27 19 9 5 6 12 16 17 23 25 27 28 32 36 37 32 29 26 16 11 5 5 13 23 27 36 40 47
69 60 50 42 35 26 14 9 7 12 21 28 38 42 44 48 42 33 23 17 7 7 8 9 11 12 15 18 20 24 25 28 28 25 22 18 12 5 5 5 7 15 22 32 36 41 45
58 50 43 37 27 12 4 6 14 21 28 35 38 43 51 42 35 25 20 18 17 13 11 12 12 12 15 19 19 20 20 19 18 16 13 9 4 9 14 15 15 16 24 30 35 40 46
52 44 37 29 14 3 8 16 22 28 34 41 42 45 43 40 34 30 29 27 19 17 19 17 15 16 15 16 16 16 14 13 14 14 12 7 11 18 19 21 20 17 18 27 31 38 47
50 39 29 19 8 6 17 22 26 33 42 41 42 42 41 44 42 40 34 24 26 28 23 19 16 14 14 16 16 17 19 21 19 19 16 14 17 21 22 22 24 19 15 17 23 29 32
48 32 23 14 8 15 25 33 36 38 39 38 45 49 50 52 47 42 31 34 32 28 21 20 20 20 22 23 26 26 26 29 28 24 22 20 22 23 24 25 24 20 13 6 4 18 35
36 26 18 18 20 25 40 43 43 42 43 46 48 54 56 52 47 41 37 37 34 30 29 31 33 35 34 34 35 34 37 38 37 32 27 25 24 24 26 27 28 26 26 19 14 7 19
36 38 29 28 36 37 40 52 44 49 46 51 59 59 54 51 45 41 41 38 35 35 37 39 41 44 44 44 44 44 46 45 45 43 38 34 28 25 28 30 30 29 30 30 29 16 10
57 52 47 41 43 42 38 53 52 45 55 61 60 56 55 47 43 42 40 38 37 39 41 43 46 47 51 51 50 52 52 50 53 51 50 44 38 32 32 33 33 32 31 30 28 22 11
76 59 44 35 36 42 43 50 50 60 64 61 57 54 49 45 41 40 39 39 40 41 43 45 48 50 52 53 56 58 59 60 58 58 57 57 52 46 41 41 39 35 33 34 28 23 11
89 65 44 29 34 40 43 45 54 59 60 57 57 52 46 41 39 40 40 38 40 41 44 45 47 49 50 54 53 54 57 60 60 60 60 60 60 54 54 53 52 49 50 43 35 28 17
68 69 46 26 20 28 36 48 55 58 55 53 51 47 43 39 38 39 40 39 39 41 43 44 44 47 51 53 54 56 54 57 59 62 63 63 65 64 64 64 61 57 53 47 45 39 29
49 44 40 19 12 21 32 45 52 52 50 50 47 45 39 38 35 36 36 36 37 37 40 42 42 44 47 49 49 52 53 55 56 58 59 60 59 61 62 62 58 54 51 48 44 41 36
37 20 30 18 7 16 29 42 45 46 44 42 40 38 35 32 31 30 29 29 30 32 36 37 38 40 42 45 47 47 50 51 51 53 54 54 55 55 54 53 52 49 48 44 40 36 29
41 30 19 22 5 15 32 41 41 41 39 37 36 35 32 30 28 25 23 23 25 27 28 30 34 36 39 40 42 45 47 47 48 48 49 48 51 50 49 49 46 43 43 37 37 33 32
34 23 16 5 7 24 28 34 36 36 34 32 32 30 27 24 24 22 20 19 20 21 22 24 29 33 34 36 38 39 41 43 44 46 47 46 45 45 45 43 40 40 39 36 36 38 35
28 18 11 7 16 14 29 31 32 31 28 25 24 24 24 21 20 19 18 16 15 16 17 18 21 24 27 29 30 32 34 36 37 38 39 39 40 43 40 42 38 38 42 37 35 35 36
41 10 15 14 16 18 28 28 29 27 22 21 19 18 17 17 17 15 14 13 11 10 11 12 15 17 21 23 25 26 29 32 32 33 35 35 37 37 36 36 37 38 39 38 40 39 37
70 29 14 17 19 26 28 28 27 24 22 18 15 16 13 11 12 10 10 10 10 10 11 9 10 13 14 16 20 22 23 25 27 28 30 30 31 32 32 34 36 38 39 41 39 41 43
68 61 25 25 21 34 33 31 31 26 23 20 17 14 13 10 8 6 4 5 6 7 8 6 5 7 9 12 15 17 19 21 22 23 25 26 27 28 30 32 36 37 39 41 44 46 48

GFSGBSN_250_spd_105.txt.gz
Wind_Speed
86 86 87 89 88 80 74 78 80 78 76 74 72 72 70 71 75 81 82 81 84 83 73 69 73 75 80 78 80 81 82 82 78 76 77 80 77 74 72 72 71 65 68 73 72 69 63
93 96 103 99 94 85 74 71 78 82 79 77 74 75 71 71 74 73 76 80 78 78 73 68 65 65 67 70 69 67 70 70 71 74 76 75 73 73 72 69 67 71 70 70 70 70 68
102 109 113 105 95 86 79 74 74 86 88 85 79 76 76 70 70 72 76 77 76 74 61 66 59 56 57 53 49 56 57 58 63 66 70 69 68 65 66 66 67 71 75 73 73 69 64
110 116 110 101 93 87 84 83 81 82 89 88 80 71 73 69 65 65 69 72 71 65 66 62 57 49 43 39 39 41 47 54 56 58 59 55 57 58 63 65 71 74 70 68 66 64 62
114 107 102 94 87 81 79 79 78 76 77 79 75 66 64 62 58 57 59 63 61 57 61 56 43 27 28 32 31 39 48 44 47 48 48 51 54 60 64 65 65 64 66 67 69 67 69
101 97 93 84 72 65 61 60 59 60 59 61 58 48 53 54 50 47 50 56 50 53 47 36 25 32 27 26 35 40 34 34 35 38 43 50 56 59 60 62 66 68 68 68 69 67 68
93 94 85 75 65 55 49 45 43 42 42 44 39 35 42 45 41 44 46 47 44 40 29 25 25 20 22 29 27 23 23 29 34 39 44 48 51 55 58 61 62 63 67 69 69 67 65
88 76 61 56 47 41 36 32 30 27 28 28 24 33 39 38 39 38 36 33 31 23 17 13 20 21 22 18 16 21 27 30 32 32 37 45 52 54 53 57 56 50 52 54 55 57 59
85 67 50 41 34 28 25 21 17 15 17 19 27 34 36 34 31 24 22 24 19 17 13 14 15 12 13 17 16 19 24 23 28 34 42 46 44 45 44 41 40 39 37 40 43 42 45
72 55 43 33 27 24 17 10 6 11 17 23 27 30 34 28 23 21 19 18 14 11 10 10 9 9 11 11 12 18 22 25 31 36 37 36 35 34 32 31 29 27 25 24 23 30 34
68 54 40 31 24 15 6 3 8 15 22 26 29 31 34 36 32 23 17 16 12 12 10 10 4 2 6 9 11 14 20 26 28 29 29 27 25 26 21 16 13 11 15 21 23 28 39
57 47 38 29 22 17 13 14 20 24 27 33 41 46 46 39 29 26 22 23 21 16 12 9 6 4 3 7 9 12 18 22 23 18 18 17 14 11 8 4 4 8 11 19 23 29 39
53 46 42 32 28 24 22 23 29 32 42 51 54 49 42 39 36 38 35 28 22 19 16 15 14 12 9 8 9 9 10 12 12 11 7 8 6 2 9 15 15 16 17 18 25 32 40
60 54 46 39 35 33 37 41 48 58 60 55 50 45 46 48 48 43 37 31 29 26 22 21 18 12 9 8 6 6 6 6 7 8 12 9 5 12 18 22 25 17 21 20 25 29 35
73 67 52 48 48 54 61 62 60 55 52 53 52 57 58 55 51 46 42 36 30 28 27 22 21 22 19 18 16 14 12 12 14 17 20 17 17 21 26 30 30 30 24 15 16 17 22
87 84 73 70 65 63 62 58 52 52 54 57 65 63 62 58 54 51 46 38 34 31 28 30 31 30 29 27 27 24 22 23 24 25 25 20 23 25 31 31 34 34 29 28 16 10 11
98 78 68 59 52 47 52 50 49 50 61 65 65 64 61 58 56 53 46 40 40 39 39 41 41 39 39 37 37 35 34 33 31 31 31 25 26 31 32 33 37 41 42 40 30 16 16
95 85 70 58 52 45 45 46 51 61 62 63 63 63 60 59 57 52 48 45 44 46 47 49 50 49 49 47 46 43 42 41 41 38 39 32 35 37 34 36 37 44 43 43 38 35 26
75 68 58 47 44 35 43 53 56 58 59 59 60 60 59 59 55 52 48 46 46 49 48 51 52 53 54 55 54 53 50 49 49 49 48 40 42 43 42 41 42 43 43 38 37 28 24
56 53 43 54 31 34 43 46 51 54 56 57 56 55 56 55 53 48 47 45 48 48 49 49 50 53 54 56 57 57 57 56 58 57 56 53 52 54 53 48 51 44 36 36 31 23 23
62 47 44 41 30 29 36 37 40 47 52 54 55 52 51 50 47 45 44 44 45 47 47 47 49 51 52 54 56 57 58 58 59 59 61 60 59 60 59 60 57 50 50 48 42 38 34
56 51 39 30 17 20 23 28 32 39 46 50 51 49 46 44 42 42 41 41 41 43 43 45 47 49 51 53 54 55 57 58 60 61 63 62 64 61 57 55 54 51 51 47 42 37 35
77 38 35 30 12 16 19 24 24 31 38 42 42 43 39 37 35 36 37 36 36 38 39 42 44 46 47 50 52 53 56 56 57 56 59 57 58 56 54 52 50 47 45 45 41 40 36
84 66 32 31 11 12 14 16 19 22 29 32 33 34 32 31 29 30 32 33 33 33 34 38 39 40 43 45 48 49 49 51 51 51 52 51 50 48 47 48 45 43 42 39 36 35 34
102 80 53 28 24 25 6 9 12 15 19 23 23 26 26 24 22 24 24 26 27 27 28 29 32 33 34 37 40 41 41 42 42 42 43 43 43 43 43 41 38 36 35 35 32 30 28
90 97 74 36 20 33 20 4 5 8 13 15 15 18 20 20 17 17 19 20 20 21 22 22 24 27 29 31 32 33 34 34 35 35 35 36 36 36 35 34 35 34 32 31 32 32 30
86 87 92 69 22 24 23 10 8 5 3 7 8 9 13 14 14 12 12 12 13 14 16 18 18 19 21 22 24 26 27 28 27 28 29 29 29 29 28 29 30 29 30 30 31 34 35
81 87 86 84 64 19 20 25 17 12 10 3 2 3 3 8 10 8 10 10 9 9 8 10 11 12 15 16 17 19 19 20 21 21 22 22 23 22 23 25 25 27 27 28 30 32 32
85 88 79 87 89 53 22 21 31 21 18 14 8 6 5 3 3 4 5 4 6 5 4 4 5 5 8 9 11 11 13 14 15 15 16 18 18 18 19 20 23 24 26 28 30 32 34

GFSGBSN_250_spd_108.txt.gz
Wind_Speed
100 99 102 103 101 101 98 101 98 100 101 92 86 81 76 82 81 78 78 82 82 86 86 85 78 73 65 68 70 68 70 73 78 82 83 86 85 88 90 91 92 87 87 85 83 77 77
105 107 103 98 98 96 96 96 93 93 94 90 84 78 77 78 83 80 80 80 80 80 79 83 79 67 61 59 58 54 58 65 70 72 74 81 89 92 93 93 94 91 89 85 86 83 80
93 90 89 94 92 88 90 87 84 81 80 80 77 76 77 78 80 80 77 76 77 71 70 75 73 65 55 44 46 47 51 56 59 59 69 77 87 86 87 91 90 89 85 80 81 81 78
80 88 92 94 91 83 79 69 63 62 64 67 69 69 73 77 77 77 72 71 66 64 67 69 69 58 46 40 36 35 41 47 49 58 62 66 75 84 85 84 82 80 74 75 76 75 69
80 87 98 88 82 66 62 59 57 55 51 55 58 60 60 63 64 65 59 56 54 58 60 63 55 48 34 27 26 30 35 41 45 51 57 66 70 69 69 72 71 68 66 67 71 71 72
83 84 79 61 48 47 47 45 43 45 44 47 49 47 45 42 46 48 46 45 48 51 52 43 39 35 25 20 24 25 33 39 46 54 53 52 52 55 58 59 62 61 61 65 67 72 68
68 60 49 38 35 35 33 30 30 32 35 38 37 32 30 34 33 36 37 41 39 38 34 32 26 16 15 17 22 28 33 35 31 31 35 41 44 48 50 54 57 60 62 65 66 67 66
59 51 40 33 27 23 20 18 17 19 24 26 24 24 28 27 26 30 28 30 28 24 21 12 8 14 16 18 20 18 25 19 21 25 30 34 38 44 49 53 56 59 61 64 67 67 69
50 44 37 31 25 19 14 11 9 9 14 17 20 22 22 22 23 27 25 22 23 21 21 17 14 11 8 12 14 15 18 15 20 27 29 35 39 44 46 49 52 56 58 59 57 56 56
52 47 40 35 31 26 19 11 5 3 7 11 15 18 21 26 30 34 35 32 31 27 19 13 11 11 9 8 12 14 14 16 23 27 29 32 34 36 40 40 38 40 40 40 42 42 46
59 53 49 43 37 34 30 25 23 22 22 22 25 31 39 47 47 45 41 34 28 24 18 15 9 7 6 9 10 12 14 17 23 23 22 24 26 29 29 29 31 31 31 33 36 38 37
79 63 57 52 48 46 41 38 38 41 44 48 52 58 60 54 50 44 40 36 29 24 16 11 8 8 6 6 8 9 10 11 16 16 17 18 20 21 20 21 23 23 22 24 25 25 27
94 81 70 66 63 66 63 61 62 64 67 66 63 60 57 55 50 44 37 28 22 20 17 16 13 10 6 3 1 6 8 7 7 10 11 13 14 14 14 12 11 12 10 11 13 15 19
115 101 80 72 73 71 72 71 72 72 69 66 62 59 56 50 44 39 36 33 29 26 22 19 16 13 12 9 9 6 2 2 4 4 6 6 5 5 5 4 4 8 8 8 11 15 20
103 100 88 72 69 69 69 69 68 66 64 62 59 56 53 50 47 44 41 36 33 29 27 24 22 19 16 12 10 11 11 9 6 9 5 4 2 6 12 16 16 18 17 17 13 10 14
93 80 76 71 61 63 60 60 65 65 64 64 62 59 56 52 49 45 40 38 37 37 33 30 28 25 22 19 19 18 15 14 15 13 12 8 11 12 16 20 27 35 34 33 30 23 16
84 72 52 60 53 51 52 59 63 66 67 65 63 60 55 52 49 44 44 44 42 39 37 34 32 29 28 28 27 24 22 23 19 16 16 19 21 20 24 28 39 41 42 39 32 31 29
74 66 60 48 45 41 42 50 60 64 63 63 62 59 57 56 54 51 50 47 46 46 44 43 39 37 37 35 35 35 31 29 22 20 24 29 28 31 30 37 40 42 45 36 35 28 30
70 67 51 53 50 41 43 47 53 57 58 59 59 58 57 56 55 55 52 53 52 51 51 49 46 45 43 43 47 43 40 35 29 31 34 32 31 35 38 37 35 36 38 34 33 29 27
67 60 50 49 52 43 37 39 44 49 50 52 54 54 54 54 53 53 52 52 53 51 52 51 52 53 52 52 53 53 49 44 42 46 45 44 45 47 43 39 37 36 37 36 31 23 18
98 65 48 46 49 48 39 34 34 40 43 44 48 50 50 50 50 49 50 51 52 53 52 51 52 53 54 57 56 58 57 52 49 56 58 58 54 51 48 48 49 49 46 44 39 32 21
95 86 46 38 48 46 43 36 30 32 37 39 40 42 44 44 44 45 46 48 49 49 49 49 51 53 55 56 56 58 55 53 53 56 61 60 56 55 51 54 53 49 47 44 42 37 31
86 91 88 63 30 40 37 35 33 30 31 33 34 34 37 38 38 38 40 41 43 43 45 46 48 49 50 52 53 55 55 56 55 58 59 57 55 53 52 53 51 48 50 48 45 41 38
87 84 95 81 51 34 38 29 31 30 26 25 27 28 29 32 31 31 31 33 35 36 37 39 41 42 45 46 48 49 50 50 50 50 50 50 49 48 48 48 48 48 44 41 40 39 37
77 80 85 82 83 35 29 28 25 27 27 22 20 19 19 21 23 24 24 25 26 29 30 31 34 35 36 38 39 41 42 43 43 43 42 41 42 43 41 40 39 37 35 35 34 33 32
71 75 81 86 81 80 50 30 15 22 24 24 19 14 14 13 14 16 18 18 19 21 23 24 24 26 28 29 31 31 32 32 33 33 33 33 32 31 31 30 30 30 29 28 25 25 24
59 68 71 77 79 77 77 54 35 16 18 24 21 18 12 11 10 10 10 12 12 13 15 16 17 18 20 21 22 23 23 23 23 23 23 23 23 24 24 23 23 24 24 24 25 22 22
63 64 70 64 76 77 73 76 63 31 17 16 22 19 18 13 10 9 9 6 5 6 6 8 9 10 11 13 14 15 16 15 16 16 17 17 18 18 18 19 20 21 21 22 23 23 23
70 68 63 64 67 80 84 87 74 60 29 22 19 17 17 18 14 10 9 9 7 3 2 3 4 5 6 8 10 11 12 12 12 12 12 13 13 13 14 15 17 18 21 21 23 24 28

GFSGBSN_250_spd_111.txt.gz
Wind_Speed
73 78 84 85 88 89 91 91 93 91 91 90 85 85 86 85 85 82 78 78 76 76 79 82 84 84 81 81 80 80 85 86 84 88 87 86 90 95 98 98 95 98 97 96 91 91 89
81 87 88 88 85 81 84 79 82 89 87 84 84 80 79 80 78 78 79 76 73 74 76 80 78 80 77 75 72 72 70 68 71 75 78 80 85 91 95 98 98 97 98 99 96 95 92
84 78 75 73 73 79 75 73 80 84 84 77 77 73 70 66 70 73 73 72 72 73 74 74 72 74 76 68 69 62 60 57 61 68 72 76 83 84 87 89 93 98 101 98 102 97 95
72 65 62 56 54 48 47 49 51 59 59 53 56 64 64 60 62 64 67 68 69 69 67 66 67 67 65 58 60 58 50 53 59 63 69 72 75 78 83 88 89 94 95 98 95 96 91
78 67 56 50 45 39 38 37 38 44 44 44 41 46 48 48 51 54 58 61 61 62 60 56 57 53 52 53 55 46 44 47 53 58 64 66 67 70 74 75 77 80 87 88 90 81 86
77 63 52 43 38 31 27 25 23 24 29 35 41 40 38 38 41 43 47 50 51 52 49 42 42 43 48 49 41 39 41 45 56 56 56 59 59 59 64 70 73 72 72 73 77 75 73
82 62 50 40 35 29 21 15 12 9 11 17 25 29 31 33 31 31 34 36 35 32 30 32 37 39 36 34 32 33 40 46 46 42 46 47 49 54 57 55 56 57 59 63 65 66 63
97 68 52 43 36 31 23 16 12 8 3 4 9 19 25 26 25 26 27 27 29 28 28 29 31 27 22 23 30 34 38 39 36 36 35 36 38 42 46 50 50 53 53 55 57 61 62
102 83 63 52 47 39 34 28 22 17 13 11 12 15 17 20 23 24 25 25 24 24 24 20 20 23 26 31 31 32 30 25 24 25 30 31 34 38 40 41 44 49 49 54 57 60 61
105 88 74 63 52 48 45 41 37 31 27 23 21 22 24 21 22 23 26 27 28 27 31 29 27 28 26 21 15 17 19 17 18 19 22 25 29 32 36 39 43 47 50 53 57 58 59
102 105 76 65 59 54 51 50 46 44 42 40 40 38 36 35 35 38 37 37 36 35 32 27 21 19 20 17 12 10 9 10 12 15 18 21 26 31 33 35 36 37 37 39 41 44 47
103 96 88 69 61 57 57 56 56 55 56 55 53 51 51 48 46 45 41 39 34 31 28 25 21 17 13 7 5 5 4 7 11 12 14 16 17 18 18 20 20 23 24 25 30 29 31
98 91 84 86 71 68 63 59 58 60 61 61 56 54 51 50 48 44 40 36 32 27 24 20 15 10 9 7 7 6 6 5 3 5 7 8 8 12 13 15 16 16 17 18 19 20 19
96 88 80 76 74 70 67 67 66 65 64 61 58 56 52 48 44 40 35 31 27 23 19 17 15 15 14 11 10 7 7 4 1 2 4 4 3 6 6 8 7 3 3 2 3 5 8
89 92 82 75 69 64 61 61 63 65 65 63 60 57 52 48 44 39 35 32 30 26 24 21 19 18 16 14 13 14 8 6 6 7 7 6 4 2 2 7 9 9 9 12 10 11 11
79 86 85 75 69 66 63 61 63 66 66 63 60 56 55 51 48 43 40 37 33 29 28 24 24 22 24 22 17 11 12 12 10 10 10 8 8 9 14 12 17 12 13 16 15 16 18
75 74 79 79 74 66 64 65 64 65 66 65 59 59 56 53 49 43 47 43 40 38 35 32 33 30 26 21 16 20 18 17 15 12 12 10 11 16 17 14 18 15 18 19 19 18 22
76 71 69 72 71 70 66 61 59 59 57 56 57 59 55 55 54 52 49 47 45 43 42 41 40 36 30 28 31 26 23 20 19 18 17 19 18 19 19 21 16 19 25 21 23 23 23
106 70 64 62 64 66 65 64 59 55 53 54 52 53 54 54 53 54 53 52 52 51 47 47 48 43 41 39 34 29 29 27 28 29 28 30 27 25 24 25 26 25 24 24 22 21 21
94 95 83 58 56 57 60 59 59 58 54 52 51 51 52 53 51 53 54 54 55 55 55 54 54 54 49 42 38 36 39 42 42 42 41 40 39 36 32 32 34 39 40 34 28 17 14
81 89 93 90 57 46 49 51 52 53 53 50 48 46 47 48 51 50 51 52 56 57 55 54 55 53 54 51 47 48 49 50 52 53 52 50 47 47 48 50 47 49 47 44 40 35 25
79 79 83 91 87 57 40 41 45 44 46 44 45 43 41 43 43 44 46 48 49 49 51 52 52 53 53 52 52 53 55 56 56 55 53 53 50 49 49 52 51 51 46 43 43 42 40
77 75 73 80 88 83 59 34 32 37 38 38 36 38 36 35 36 37 39 40 42 43 45 46 47 48 49 50 50 50 50 50 53 51 51 50 49 48 47 48 48 45 43 41 40 39 36
77 78 71 74 82 82 73 63 35 28 29 30 31 31 31 31 28 29 31 31 34 36 38 39 39 40 43 43 45 45 47 47 45 45 44 44 44 44 43 42 41 42 40 38 36 33 29
64 71 74 70 70 75 80 77 72 43 24 23 25 25 26 25 24 23 22 24 26 27 29 30 32 33 35 35 36 36 38 37 36 35 35 36 36 36 37 35 35 35 34 32 32 31 29
58 67 70 70 63 65 77 73 81 77 64 33 19 19 19 20 22 20 17 16 16 17 19 20 21 22 24 24 25 26 27 29 29 28 29 28 28 27 27 27 26 26 24 25 26 26 27
58 62 65 65 64 62 64 67 75 81 73 63 38 21 16 16 17 17 18 15 12 12 12 13 13 14 15 16 17 17 18 18 18 18 18 19 19 19 19 20 20 20 20 20 21 20 18
58 58 64 63 61 65 64 63 70 81 68 81 67 45 24 17 16 16 14 15 14 12 12 12 11 10 9 10 10 10 10 10 10 11 12 12 13 13 12 12 12 12 11 12 12 14 15
60 64 62 63 59 59 62 67 59 72 64 68 77 62 41 23 19 18 16 17 15 15 13 12 13 13 12 11 11 12 12 10 10 10 10 12 12 11 13 13 12 13 14 14 15 17 19

GFSGBSN_250_spd_114.txt.gz
Wind_Speed
84 83 67 55 50 47 48 52 64 75 76 75 75 86 92 96 96 93 91 91 89 88 85 84 84 84 83 82 88 87 88 88 91 94 94 98 99 102 104 107 103 99 103 101 98 95 92
93 86 71 62 49 43 38 37 42 48 57 61 64 66 78 82 85 85 82 84 84 83 84 85 84 80 83 84 80 80 80 83 83 85 87 88 91 92 96 102 104 103 101 107 106 102 102
100 93 77 64 51 41 34 29 31 34 38 45 47 62 67 69 71 68 73 72 71 76 80 80 77 78 78 83 78 71 72 74 72 75 77 80 83 83 84 89 98 103 106 104 107 105 106
100 99 84 66 51 41 30 22 21 22 27 35 44 44 63 62 68 67 65 64 65 68 68 70 72 71 73 74 72 66 63 68 68 67 67 68 71 71 78 84 90 94 93 97 103 104 105
99 98 87 70 53 38 26 20 16 11 13 14 27 39 45 50 57 60 63 61 59 61 61 59 59 63 63 62 61 59 58 59 60 62 60 60 65 68 72 78 82 84 85 91 93 91 91
95 92 90 71 55 41 27 20 16 12 3 10 18 29 42 42 44 46 52 51 52 52 51 50 48 51 53 52 52 51 52 54 54 47 48 56 62 67 71 74 75 76 76 78 77 78 75
94 92 89 77 67 48 36 28 22 17 11 6 9 16 26 35 35 38 35 35 38 39 40 40 40 43 40 38 44 46 45 37 31 40 46 55 59 62 65 68 67 67 66 68 67 70 70
97 95 91 91 78 60 46 39 34 28 24 18 14 11 15 22 27 27 27 28 30 30 28 27 25 30 31 36 36 29 22 26 34 39 46 49 51 51 54 56 58 59 61 61 60 59 57
104 98 93 89 87 76 59 46 41 37 34 32 28 21 19 21 22 20 19 22 21 21 22 25 28 30 30 25 20 20 27 30 33 37 41 42 41 43 46 47 46 47 49 52 54 53 52
112 104 96 86 82 81 74 61 51 44 43 39 34 29 25 22 20 19 18 18 19 20 20 20 20 18 17 20 20 22 24 26 27 31 34 36 37 37 38 40 42 42 45 46 48 49 48
108 110 104 97 83 77 73 70 59 53 52 48 44 39 34 30 27 24 22 20 20 20 21 22 21 20 18 18 17 18 19 25 24 21 23 23 26 27 28 32 36 38 42 44 47 49 51
96 105 109 103 98 85 77 70 65 60 55 53 51 49 45 42 39 35 32 29 27 26 24 21 20 17 14 15 13 12 14 12 11 11 13 15 16 19 24 26 28 30 32 34 37 42 45
86 93 101 106 98 97 91 84 80 68 58 51 49 50 45 41 39 36 31 28 25 22 19 20 17 15 12 12 11 9 6 4 4 3 0 2 7 12 15 17 18 18 21 23 24 28 30
82 83 91 98 101 93 91 90 88 83 77 68 61 57 51 46 41 36 32 28 25 23 20 18 15 14 12 11 11 9 9 9 9 11 7 3 7 8 8 9 13 16 15 16 16 17 18
84 79 82 87 93 93 86 82 81 79 75 71 67 62 60 55 50 44 39 34 32 28 24 20 18 18 18 16 15 19 18 15 13 11 6 2 2 5 7 8 9 10 10 10 7 9 8
105 80 74 78 81 84 85 83 79 76 74 71 69 64 60 56 53 48 45 43 37 32 30 27 27 29 24 25 28 24 19 17 13 11 11 5 6 7 5 9 8 9 5 4 2 4 8
99 107 72 70 72 75 75 77 77 74 72 69 65 64 63 60 57 53 52 45 42 41 38 37 37 37 40 34 30 25 23 23 18 15 12 7 3 7 10 11 13 11 7 9 9 9 16
93 98 89 64 63 65 67 68 68 69 71 69 65 63 61 60 59 56 53 49 45 45 44 45 51 46 39 34 31 28 29 26 21 18 16 14 19 22 24 25 25 22 21 15 15 15 16
86 94 93 89 63 57 59 60 61 61 60 62 64 61 60 60 60 58 55 53 53 57 57 51 48 42 39 36 36 35 34 35 31 30 31 31 32 34 36 37 35 34 27 27 27 21 22
85 87 91 84 97 85 54 52 53 54 55 53 55 58 55 56 56 56 56 56 58 59 57 53 50 48 47 46 44 45 48 47 46 43 44 43 42 43 47 48 46 43 40 34 33 30 25
75 84 83 84 79 92 91 54 45 47 48 50 50 49 51 49 49 50 51 51 52 52 52 52 48 48 49 52 50 51 53 52 50 49 47 47 47 49 53 52 49 50 47 45 43 41 35
71 77 83 82 80 85 82 88 58 41 42 42 44 45 42 41 43 41 42 44 44 46 47 46 46 46 50 49 45 48 52 48 47 48 47 45 49 50 51 50 47 47 47 47 47 45 44
65 73 74 76 77 79 80 77 78 83 53 39 37 35 36 37 35 35 37 37 36 36 39 40 41 41 42 43 42 45 46 44 44 42 43 44 44 44 45 44 44 43 43 41 41 40 41
60 67 69 70 70 75 77 74 69 81 80 70 39 33 32 31 31 29 29 30 31 30 29 31 32 33 34 35 37 38 38 39 39 37 38 38 37 37 36 36 36 38 38 36 35 36 36
57 62 65 66 65 69 74 78 69 70 74 72 75 69 30 27 27 27 24 22 23 25 26 27 25 24 25 26 28 28 29 28 28 29 28 28 28 27 27 27 27 28 28 27 28 28 27
51 57 60 64 62 65 63 71 74 66 69 74 76 74 52 20 21 23 24 24 18 17 19 21 22 22 23 21 20 20 19 18 19 20 19 19 19 19 19 20 19 20 20 20 20 21 20
49 54 61 65 58 63 58 60 66 72 70 68 70 68 64 64 26 18 18 20 23 23 16 14 16 18 18 18 18 16 16 16 15 14 15 14 14 13 13 13 11 11 12 12 13 13 14
56 55 56 62 66 62 57 55 56 61 70 65 66 71 68 65 60 35 18 18 19 21 22 20 15 14 14 15 15 16 15 13 13 13 14 13 14 14 14 14 14 14 13 12 12 11 10
53 55 56 58 65 62 56 61 55 59 63 67 62 64 66 69 70 56 40 23 22 19 21 22 20 18 16 13 15 15 16 17 18 16 17 17 17 17 16 17 17 17 16 17 18 17 17

GFSGBSN_250_spd_117.txt.gz
Wind_Speed
80 80 66 45 36 26 22 25 32 42 53 59 67 95 103 92 95 101 100 96 97 92 89 83 84 81 82 81 83 82 84 85 86 93 97 98 102 104 108 107 105 102 101 99 101 99 96
86 85 68 54 46 35 22 18 19 28 36 46 48 65 84 84 89 91 100 102 97 93 87 88 83 80 86 83 82 81 83 82 85 86 88 93 94 94 96 100 104 104 103 102 102 106 104
92 89 78 63 50 38 25 13 6 12 22 31 28 43 65 74 80 84 87 91 95 96 95 91 89 86 84 86 84 85 85 83 79 79 78 79 85 88 88 89 93 96 98 100 105 108 110
104 93 89 75 61 42 28 20 10 2 8 19 27 43 49 63 73 79 80 79 86 86 85 89 88 88 84 82 81 82 81 78 75 74 74 74 73 79 78 79 83 88 89 95 102 106 109
109 100 98 90 73 55 38 25 17 10 7 14 23 35 53 54 55 64 70 64 70 74 74 72 74 76 74 72 72 75 73 72 70 69 67 65 66 70 73 76 78 81 86 92 98 96 98
109 111 100 98 89 65 50 38 27 19 13 8 12 32 46 50 47 48 56 55 58 61 59 60 60 60 61 63 62 62 66 64 61 56 56 58 58 60 65 70 75 79 83 86 89 87 84
111 116 109 99 97 90 66 52 39 32 26 22 17 21 34 38 39 43 40 47 46 46 45 45 46 47 48 49 51 52 51 50 49 49 49 49 51 58 64 71 72 70 69 72 72 73 74
112 115 114 107 98 95 88 68 56 46 39 35 30 18 14 24 27 29 33 33 34 32 34 32 35 40 43 46 46 42 39 40 38 36 37 45 55 57 57 57 55 56 56 56 60 61 59
109 114 112 110 105 99 92 89 72 58 48 42 37 30 23 21 21 18 21 24 24 28 29 33 37 36 34 31 26 26 25 25 30 36 42 44 43 44 44 43 46 48 49 51 51 53 55
103 108 112 114 110 106 100 88 81 75 60 50 44 37 30 22 23 24 25 25 26 27 27 26 27 26 20 16 16 18 23 27 29 26 27 29 31 33 34 38 40 40 44 45 44 45 45
98 99 105 108 111 105 107 100 87 72 68 64 56 47 41 35 29 24 20 16 14 13 11 11 12 12 14 16 18 16 14 14 17 18 19 24 25 27 30 32 35 36 37 37 38 38 40
98 94 95 100 104 105 101 101 96 87 72 58 54 51 46 40 35 32 30 27 23 20 19 18 17 16 14 13 9 7 9 11 12 13 15 15 17 20 22 24 28 30 33 36 37 37 38
117 95 90 90 95 99 100 97 94 90 83 74 62 50 44 40 35 32 30 27 24 20 17 17 14 13 11 10 9 8 7 6 7 7 8 9 12 7 9 9 14 17 18 22 26 27 29
113 113 89 87 85 90 93 95 95 92 89 83 75 66 58 52 46 41 35 32 28 24 22 20 21 20 19 20 17 14 10 10 11 12 13 13 11 11 12 12 13 14 15 16 18 18 19
105 106 106 84 83 82 85 87 90 90 90 87 81 70 63 58 53 49 48 45 41 37 37 34 31 29 27 25 20 19 20 22 22 20 22 20 21 19 18 17 16 15 16 16 15 14 13
100 103 102 109 91 79 79 78 79 81 84 87 85 77 67 59 53 50 49 48 45 43 41 40 39 36 34 32 28 28 27 25 23 23 23 21 17 13 12 14 12 11 10 11 11 9 7
97 96 94 101 100 93 74 74 74 73 74 77 81 83 80 71 60 57 58 55 51 48 45 43 44 44 42 39 37 35 31 28 28 27 27 25 23 22 17 18 23 19 21 19 17 14 9
87 93 91 97 93 99 97 82 76 70 67 68 69 74 76 75 72 68 64 59 56 53 50 52 49 48 47 43 44 41 38 38 36 35 35 36 35 33 31 30 33 34 30 26 21 16 14
77 83 88 93 95 88 95 94 92 74 62 61 61 62 66 69 70 71 67 64 60 56 53 51 52 52 52 52 50 50 52 49 45 42 43 47 48 47 49 46 43 43 41 32 27 24 21
70 76 82 85 88 87 89 91 88 92 67 57 55 55 56 58 60 63 63 58 55 53 53 54 55 53 53 52 51 51 50 49 49 50 51 53 54 54 54 55 57 57 55 51 43 33 29
62 71 76 80 83 88 88 88 90 86 84 69 54 48 48 49 49 50 52 52 52 50 48 48 49 47 47 49 48 47 47 46 46 47 49 52 52 52 52 51 50 50 49 49 51 50 43
58 63 67 71 77 79 82 81 88 81 81 80 73 57 46 43 43 42 40 41 43 44 45 45 44 41 39 40 41 43 42 42 41 42 44 46 47 47 46 45 47 47 47 47 46 49 49
54 58 60 66 68 71 74 78 81 85 80 72 80 72 58 48 39 36 36 36 35 34 35 35 34 34 34 34 34 35 36 36 36 36 38 39 40 39 39 39 39 39 40 40 41 41 44
51 55 59 58 67 63 67 73 75 77 78 79 71 75 70 64 49 40 32 31 31 30 27 26 28 29 28 27 28 29 28 27 28 29 30 31 31 30 31 31 31 32 31 31 31 32 32
49 50 56 56 57 65 65 66 71 74 74 77 73 74 69 70 68 52 41 33 28 27 25 23 22 21 22 23 24 25 24 24 23 24 24 23 23 23 23 23 22 23 23 23 23 22 22
48 50 57 58 53 59 62 61 59 67 64 72 71 71 69 70 70 58 53 37 32 27 24 23 23 20 18 16 16 16 17 17 18 18 18 19 19 20 20 19 19 18 17 16 15 14 13
48 48 50 58 53 53 58 59 56 62 64 68 68 72 73 71 67 63 63 49 35 30 25 22 21 22 21 19 16 15 13 12 13 13 14 16 16 16 16 16 17 18 18 16 17 17 15
40 51 52 58 55 53 54 55 53 53 60 61 63 71 70 67 68 66 64 53 49 37 30 29 23 22 21 22 21 20 19 19 18 16 14 14 13 14 16 15 16 16 17 18 20 20 19
50 54 49 50 56 55 53 53 60 53 59 57 60 64 63 70 66 68 61 58 58 48 34 27 28 28 24 23 24 23 22 22 24 22 21 19 17 16 16 16 18 19 18 19 18 19 20